[[{"header":{"parameterUnit":"m.s-1","parameterCategory":1,"la1":30.6,"la2":29.2853,"lo1":-89.7004,"lo2":-87.6739,"dy":0.0162,"dx":0.0183,"nx":112,"ny":82,"refTime":"2026-04-04T00:00:00:Z","depth":0,"parameterNumber":2,"parameterNumberName":"U-component_of_WINDS"},"data":[0.0,0.0,0.0,0.0,0.0,0.0,0.0,0.0,0.0,0.0,0.0,0.0,0.0,0.0,0.0,0.0,0.0,0.0,0.0,0.0,0.0,0.0,0.0,0.0,0.0,0.0,0.0,0.0,0.0,0.0,0.0,0.0,0.0,0.0,0.0,0.0,0.0,0.0,0.0,0.0,0.0,0.0,0.0,0.0,0.0,0.0,0.0,0.0,0.0,0.0,0.0,0.0,0.0,0.0,0.0,0.0,0.0,0.0,0.0,0.0,0.0,0.0,0.0,0.0,0.0,0.0,0.0,0.0,0.0,0.0,0.0,0.0,0.0,0.0,0.0,0.0,0.0,0.0,0.0,0.0,0.0,0.0,0.0,0.0,0.0,0.0,0.0,0.0,0.0,0.0,0.0,3.824,4.0695,4.2003,4.1481,4.0632,3.8777,3.5626,0.0,0.0,0.0,0.0,0.0,0.0,0.0,0.0,0.0,0.0,0.0,0.0,0.0,0.0,0.0,0.0,0.0,0.0,0.0,0.0,0.0,0.0,0.0,0.0,0.0,0.0,0.0,0.0,0.0,0.0,0.0,0.0,0.0,0.0,0.0,0.0,0.0,0.0,0.0,0.0,0.0,0.0,0.0,0.0,0.0,0.0,0.0,0.0,0.0,0.0,0.0,0.0,0.0,0.0,0.0,0.0,0.0,0.0,0.0,0.0,0.0,0.0,0.0,0.0,0.0,0.0,0.0,0.0,0.0,0.0,0.0,0.0,0.0,0.0,0.0,0.0,0.0,0.0,0.0,0.0,0.0,0.0,0.0,0.0,0.0,0.0,0.0,0.0,0.0,0.0,0.0,0.0,0.0,0.0,0.0,0.0,0.0,0.0,0.0,0.0,0.0,0.0,0.0,0.0,3.6227,4.0345,4.1624,4.216,4.2081,4.0148,3.8097,3.6096,0.0,0.0,0.0,0.0,0.0,0.0,0.0,0.0,0.0,0.0,0.0,0.0,0.0,0.0,0.0,0.0,0.0,0.0,0.0,0.0,0.0,0.0,0.0,0.0,0.0,0.0,0.0,0.0,0.0,0.0,0.0,0.0,0.0,0.0,0.0,0.0,0.0,0.0,0.0,0.0,0.0,0.0,0.0,0.0,0.0,0.0,0.0,0.0,0.0,0.0,0.0,0.0,0.0,0.0,0.0,0.0,0.0,0.0,0.0,0.0,0.0,0.0,0.0,0.0,0.0,0.0,0.0,0.0,0.0,0.0,0.0,0.0,0.0,0.0,0.0,0.0,0.0,0.0,0.0,0.0,0.0,0.0,0.0,0.0,0.0,0.0,0.0,0.0,0.0,0.0,0.0,0.0,0.0,0.0,0.0,0.0,0.0,0.0,0.0,0.0,0.0,0.0,0.0,3.6305,3.8266,4.2278,4.297,4.2997,4.2657,4.1076,3.896,3.6279,3.56,0.0,0.0,0.0,0.0,0.0,0.0,0.0,0.0,0.0,0.0,0.0,0.0,0.0,0.0,0.0,0.0,0.0,0.0,0.0,0.0,0.0,0.0,0.0,0.0,0.0,0.0,0.0,0.0,0.0,0.0,0.0,0.0,0.0,0.0,0.0,0.0,0.0,0.0,0.0,0.0,0.0,0.0,0.0,0.0,0.0,0.0,0.0,0.0,0.0,0.0,0.0,0.0,0.0,0.0,0.0,0.0,0.0,0.0,0.0,0.0,0.0,0.0,0.0,0.0,0.0,0.0,0.0,0.0,0.0,0.0,0.0,0.0,0.0,0.0,0.0,0.0,0.0,0.0,0.0,0.0,0.0,0.0,0.0,0.0,0.0,0.0,0.0,0.0,0.0,0.0,0.0,0.0,0.0,0.0,0.0,0.0,0.0,0.0,0.0,0.0,0.0,0.0,3.9299,4.0657,4.3598,4.3886,4.3663,4.3062,4.1573,3.9378,3.6294,3.5208,0.0,0.0,0.0,0.0,0.0,0.0,0.0,0.0,0.0,0.0,0.0,0.0,0.0,0.0,0.0,0.0,0.0,0.0,0.0,0.0,0.0,0.0,0.0,0.0,0.0,0.0,0.0,0.0,0.0,0.0,0.0,0.0,0.0,0.0,0.0,0.0,0.0,0.0,0.0,0.0,0.0,0.0,0.0,0.0,0.0,0.0,0.0,0.0,0.0,0.0,0.0,0.0,0.0,0.0,0.0,0.0,0.0,0.0,0.0,0.0,0.0,0.0,0.0,0.0,0.0,0.0,0.0,0.0,0.0,0.0,0.0,0.0,0.0,0.0,0.0,0.0,0.0,0.0,0.0,0.0,0.0,0.0,0.0,0.0,0.0,0.0,0.0,0.0,0.0,0.0,0.0,0.0,0.0,0.0,0.0,0.0,0.0,0.0,0.0,0.0,0.0,0.0,3.9989,4.2447,4.3755,4.3886,4.3663,4.3062,4.0475,3.8097,3.6227,3.4084,0.0,0.0,0.0,0.0,0.0,0.0,0.0,0.0,0.0,0.0,0.0,0.0,0.0,0.0,0.0,0.0,0.0,0.0,0.0,0.0,0.0,0.0,0.0,0.0,0.0,0.0,0.0,0.0,0.0,0.0,0.0,0.0,0.0,0.0,0.0,0.0,0.0,0.0,0.0,0.0,0.0,0.0,0.0,0.0,0.0,0.0,0.0,0.0,0.0,0.0,0.0,0.0,0.0,0.0,0.0,0.0,0.0,0.0,0.0,0.0,0.0,0.0,0.0,0.0,0.0,0.0,0.0,0.0,0.0,0.0,0.0,0.0,0.0,0.0,0.0,0.0,0.0,0.0,0.0,0.0,0.0,0.0,0.0,0.0,0.0,0.0,0.0,0.0,0.0,0.0,0.0,0.0,0.0,0.0,0.0,0.0,0.0,0.0,0.0,0.0,0.0,0.0,3.9939,4.2343,0.0,4.4408,4.4029,4.3075,4.2017,3.9874,3.6321,0.0,0.0,0.0,0.0,0.0,0.0,0.0,0.0,0.0,0.0,0.0,0.0,0.0,0.0,0.0,0.0,0.0,0.0,0.0,0.0,0.0,0.0,0.0,0.0,0.0,0.0,0.0,0.0,0.0,0.0,0.0,0.0,0.0,0.0,0.0,0.0,0.0,0.0,0.0,0.0,0.0,0.0,0.0,0.0,0.0,0.0,0.0,0.0,0.0,0.0,0.0,0.0,0.0,0.0,0.0,0.0,0.0,0.0,0.0,0.0,0.0,0.0,0.0,0.0,0.0,0.0,0.0,0.0,0.0,0.0,0.0,0.0,0.0,0.0,0.0,0.0,0.0,0.0,0.0,0.0,0.0,0.0,0.0,0.0,0.0,0.0,0.0,0.0,0.0,0.0,0.0,0.0,0.0,0.0,0.0,0.0,0.0,0.0,0.0,0.0,0.0,0.0,3.7758,4.0632,4.3101,0.0,4.5257,4.4891,4.3911,4.3167,4.101,3.6933,0.0,0.0,0.0,0.0,0.0,0.0,0.0,0.0,0.0,0.0,0.0,0.0,0.0,0.0,0.0,0.0,0.0,0.0,0.0,0.0,0.0,0.0,0.0,0.0,0.0,0.0,0.0,0.0,0.0,0.0,0.0,0.0,0.0,0.0,0.0,0.0,0.0,0.0,0.0,0.0,0.0,0.0,0.0,0.0,0.0,0.0,0.0,0.0,0.0,0.0,0.0,0.0,0.0,0.0,0.0,0.0,0.0,0.0,0.0,0.0,0.0,0.0,0.0,0.0,0.0,0.0,0.0,0.0,0.0,0.0,0.0,0.0,0.0,0.0,0.0,0.0,0.0,0.0,0.0,0.0,0.0,0.0,0.0,0.0,0.0,0.0,0.0,0.0,0.0,0.0,0.0,0.0,0.0,0.0,0.0,0.0,0.0,0.0,0.0,0.0,0.0,0.0,3.8423,4.2239,4.5205,4.6383,4.6513,4.6278,4.5661,4.3533,4.0983,0.0,0.0,0.0,0.0,0.0,0.0,0.0,0.0,0.0,0.0,0.0,0.0,0.0,0.0,0.0,0.0,0.0,0.0,0.0,0.0,0.0,0.0,0.0,0.0,0.0,0.0,0.0,0.0,0.0,0.0,0.0,0.0,0.0,0.0,0.0,0.0,0.0,0.0,0.0,0.0,0.0,0.0,0.0,0.0,0.0,0.0,0.0,0.0,0.0,0.0,0.0,0.0,0.0,0.0,0.0,0.0,0.0,0.0,0.0,0.0,0.0,0.0,0.0,0.0,0.0,0.0,0.0,0.0,0.0,0.0,0.0,0.0,0.0,0.0,0.0,0.0,0.0,0.0,0.0,0.0,0.0,0.0,0.0,0.0,0.0,0.0,0.0,0.0,0.0,0.0,0.0,0.0,0.0,0.0,0.0,0.0,0.0,0.0,0.0,0.0,0.0,0.0,0.0,3.909,4.3545,4.6825,4.7611,4.7336,4.6825,4.6264,4.4853,4.2226,3.8161,0.0,0.0,0.0,0.0,0.0,0.0,0.0,0.0,0.0,0.0,0.0,0.0,0.0,0.0,0.0,0.0,0.0,0.0,0.0,0.0,0.0,0.0,0.0,0.0,0.0,0.0,0.0,0.0,0.0,0.0,0.0,0.0,0.0,0.0,0.0,0.0,0.0,0.0,0.0,0.0,0.0,0.0,0.0,0.0,0.0,0.0,0.0,0.0,0.0,0.0,0.0,0.0,0.0,0.0,0.0,0.0,0.0,0.0,0.0,0.0,0.0,0.0,0.0,0.0,0.0,0.0,0.0,0.0,0.0,0.0,0.0,0.0,0.0,0.0,0.0,0.0,0.0,0.0,0.0,0.0,0.0,0.0,0.0,0.0,0.0,0.0,0.0,0.0,0.0,0.0,0.0,0.0,0.0,0.0,0.0,0.0,0.0,0.0,0.0,0.0,0.0,0.0,4.0005,4.4604,4.7989,4.8788,4.8564,4.8224,4.7873,4.6564,4.4003,3.986,0.0,0.0,0.0,0.0,0.0,0.0,0.0,0.0,0.0,0.0,0.0,0.0,0.0,0.0,0.0,0.0,0.0,0.0,0.0,0.0,0.0,0.0,0.0,0.0,0.0,0.0,0.0,0.0,0.0,0.0,0.0,0.0,0.0,0.0,0.0,0.0,0.0,0.0,0.0,0.0,0.0,0.0,0.0,0.0,0.0,0.0,0.0,0.0,0.0,0.0,0.0,0.0,0.0,0.0,0.0,0.0,0.0,0.0,0.0,0.0,0.0,0.0,0.0,0.0,0.0,0.0,0.0,0.0,0.0,0.0,0.0,0.0,0.0,0.0,0.0,0.0,0.0,0.0,0.0,0.0,0.0,0.0,0.0,0.0,0.0,0.0,0.0,0.0,0.0,0.0,0.0,0.0,0.0,0.0,0.0,0.0,0.0,0.0,0.0,0.0,0.0,0.0,4.1102,4.5584,4.8945,5.0106,5.0091,5.0008,5.0008,4.8345,4.5813,4.2423,0.0,0.0,0.0,0.0,0.0,0.0,0.0,0.0,0.0,0.0,0.0,0.0,0.0,0.0,0.0,0.0,0.0,0.0,0.0,0.0,0.0,0.0,0.0,0.0,0.0,0.0,0.0,0.0,0.0,0.0,0.0,0.0,0.0,0.0,0.0,0.0,0.0,0.0,0.0,0.0,0.0,0.0,0.0,0.0,0.0,0.0,0.0,0.0,0.0,0.0,0.0,0.0,0.0,0.0,0.0,0.0,0.0,0.0,0.0,0.0,4.1951,3.9925,0.0,0.0,0.0,0.0,0.0,0.0,0.0,0.0,0.0,0.0,0.0,0.0,0.0,0.0,0.0,0.0,0.0,0.0,0.0,0.0,0.0,0.0,0.0,0.0,0.0,0.0,0.0,0.0,0.0,0.0,0.0,0.0,0.0,0.0,0.0,0.0,0.0,0.0,0.0,0.0,4.233,4.7466,5.1335,5.2537,5.1569,5.0851,5.0851,4.8625,4.5759,4.2327,3.9346,0.0,0.0,0.0,0.0,0.0,0.0,0.0,0.0,0.0,0.0,0.0,0.0,0.0,0.0,0.0,0.0,0.0,0.0,0.0,0.0,0.0,0.0,0.0,0.0,0.0,0.0,0.0,0.0,0.0,0.0,0.0,0.0,0.0,0.0,0.0,0.0,0.0,0.0,0.0,0.0,0.0,0.0,0.0,0.0,0.0,0.0,0.0,0.0,0.0,0.0,0.0,0.0,0.0,0.0,0.0,0.0,0.0,0.0,0.0,4.5507,4.3402,0.0,0.0,0.0,0.0,0.0,0.0,0.0,0.0,0.0,0.0,0.0,0.0,0.0,0.0,0.0,0.0,0.0,0.0,0.0,0.0,0.0,0.0,0.0,0.0,0.0,0.0,0.0,0.0,0.0,0.0,0.0,0.0,0.0,0.0,0.0,0.0,0.0,0.0,0.0,0.0,4.3216,4.7995,5.156,5.2741,5.2149,5.1547,5.1264,4.9497,4.7172,4.4291,4.0952,0.0,0.0,0.0,0.0,0.0,0.0,0.0,0.0,0.0,0.0,0.0,0.0,0.0,0.0,0.0,0.0,0.0,0.0,0.0,0.0,0.0,0.0,0.0,0.0,0.0,0.0,0.0,0.0,0.0,0.0,0.0,0.0,0.0,0.0,0.0,0.0,0.0,0.0,0.0,0.0,0.0,0.0,0.0,0.0,0.0,0.0,0.0,0.0,0.0,0.0,0.0,0.0,0.0,4.9526,5.046,5.1763,5.2336,5.2356,5.1809,4.9622,4.778,4.6224,4.4422,0.0,0.0,0.0,0.0,0.0,0.0,0.0,0.0,0.0,0.0,0.0,0.0,0.0,0.0,0.0,0.0,0.0,0.0,0.0,0.0,0.0,0.0,4.5554,4.5865,4.6579,4.5873,4.1006,0.0,0.0,0.0,0.0,0.0,0.0,0.0,0.0,0.0,0.0,0.0,4.4147,4.8357,5.1453,5.2494,5.2444,5.2139,5.1637,5.0423,4.8794,4.6713,4.3065,4.0198,0.0,0.0,0.0,0.0,0.0,0.0,0.0,0.0,0.0,0.0,0.0,0.0,0.0,0.0,0.0,0.0,0.0,0.0,0.0,0.0,0.0,0.0,0.0,0.0,0.0,0.0,0.0,0.0,0.0,0.0,0.0,0.0,3.8047,3.8692,0.0,0.0,0.0,0.0,0.0,0.0,0.0,0.0,0.0,0.0,0.0,0.0,0.0,4.8108,4.8396,5.1605,5.279,5.1962,5.4764,5.5906,5.5511,5.6206,5.651,5.6484,5.7092,0.0,4.9348,4.9557,0.0,0.0,0.0,0.0,0.0,0.0,0.0,0.0,0.0,0.0,0.0,0.0,0.0,0.0,0.0,0.0,0.0,0.0,0.0,0.0,0.0,0.0,5.1508,5.1068,5.0445,4.9645,4.841,4.3836,3.964,3.8592,3.714,0.0,0.0,0.0,0.0,0.0,0.0,0.0,4.5653,4.9977,5.3041,5.3715,5.3045,5.253,5.2454,5.0704,4.9064,4.7765,4.4971,4.2487,4.0487,3.7599,0.0,0.0,0.0,0.0,0.0,0.0,0.0,0.0,0.0,0.0,0.0,0.0,0.0,0.0,0.0,0.0,0.0,0.0,0.0,0.0,0.0,0.0,0.0,0.0,0.0,0.0,0.0,0.0,0.0,3.8516,3.9764,3.9261,4.0722,4.0908,0.0,0.0,0.0,0.0,0.0,0.0,0.0,0.0,0.0,5.0286,5.0369,5.1427,5.3688,5.5572,5.6722,5.7113,5.8855,5.95,5.9267,5.9877,5.9988,5.9758,6.057,5.92,5.6218,5.3826,5.1289,4.8736,0.0,0.0,0.0,0.0,4.6827,4.7155,4.9416,4.9965,4.9625,4.9139,0.0,0.0,0.0,0.0,0.0,0.0,0.0,4.5555,4.7774,5.0414,5.2719,5.3738,5.3432,5.2854,5.2623,4.9157,4.517,0.0,4.1222,3.9897,3.578,0.0,0.0,0.0,0.0,4.4594,4.7114,5.0434,5.2759,5.3316,5.3028,5.2648,5.2338,5.1506,5.0393,4.8937,4.7129,4.5315,4.3529,4.085,3.8563,0.0,0.0,0.0,0.0,0.0,0.0,0.0,0.0,0.0,0.0,0.0,0.0,0.0,0.0,0.0,0.0,0.0,0.0,0.0,0.0,0.0,0.0,0.0,0.0,0.0,0.0,0.0,0.0,4.0302,4.1483,4.0515,4.2452,4.2852,0.0,0.0,0.0,0.0,0.0,0.0,4.7844,4.8488,5.0429,5.3946,5.3827,5.5199,5.8338,5.8809,5.967,6.091,6.126,6.1502,6.1689,6.2083,6.2069,6.1738,6.2273,6.2236,6.1465,5.7284,5.4418,5.2442,5.028,4.9086,4.8763,5.0218,5.0737,5.1205,5.4504,5.5336,5.479,5.3819,5.2234,5.0083,4.6793,0.0,0.0,0.0,0.0,4.7098,5.0477,5.215,5.3478,5.5606,5.5528,5.4991,5.5144,5.3258,5.0231,0.0,4.53,4.3923,3.8693,0.0,0.0,0.0,0.0,4.6274,4.8551,5.0885,5.246,5.2845,5.2895,5.2737,5.2335,5.2176,5.1574,5.0318,4.9038,4.7732,4.6391,4.4058,4.191,3.9993,0.0,0.0,0.0,0.0,0.0,0.0,0.0,0.0,0.0,0.0,0.0,0.0,0.0,0.0,0.0,0.0,0.0,0.0,0.0,0.0,0.0,0.0,0.0,0.0,0.0,0.0,0.0,0.0,0.0,4.3374,4.5013,0.0,0.0,0.0,0.0,4.5908,4.9034,5.1409,5.2599,5.4696,5.6982,5.9348,5.9937,6.0551,6.1275,6.1493,6.1563,6.1454,6.1298,6.1418,6.1799,6.1958,6.2004,6.2004,6.2536,6.2684,6.2352,5.9812,5.8368,5.7548,5.585,5.4833,5.4372,5.4969,5.5182,5.5361,5.665,5.7059,5.7213,5.8265,5.6012,5.2495,5.0713,4.8963,0.0,0.0,4.9694,5.1407,5.3255,5.4345,5.5388,5.7106,5.6421,5.5494,5.6004,5.4635,5.2734,0.0,4.8595,4.6481,4.4799,0.0,4.3814,4.4535,4.5972,4.7792,5.0017,5.1808,5.2887,5.2895,5.2895,5.2895,5.2845,5.2385,5.2059,5.1975,5.0419,4.9254,4.8667,4.6969,4.4798,4.2087,4.0548,0.0,0.0,0.0,0.0,0.0,0.0,0.0,0.0,0.0,0.0,0.0,0.0,0.0,0.0,0.0,0.0,0.0,0.0,0.0,0.0,0.0,0.0,0.0,0.0,0.0,0.0,0.0,0.0,4.3375,4.5905,0.0,4.3422,4.6014,4.8117,4.8625,5.2186,5.4996,5.6579,5.7449,5.8757,6.064,6.052,6.1051,6.232,6.2407,6.2583,6.2921,6.2839,6.2502,6.1918,6.2356,6.2325,6.2044,6.2576,6.2783,6.2623,6.1427,6.0455,5.9681,5.8689,5.7724,5.6964,5.7527,5.7962,5.839,5.9176,5.9669,5.9797,5.8766,5.7298,5.5557,5.3342,5.2479,5.2228,5.2251,5.2844,5.3803,5.5479,5.5843,5.6149,5.7478,5.709,5.6577,5.7173,5.6184,5.5041,5.4419,5.2018,4.9276,4.6773,4.7301,4.7672,4.6517,4.8331,5.0343,5.1833,5.2837,5.3414,5.3414,5.3414,5.3264,5.2937,5.2737,5.231,5.1641,5.1013,5.0134,4.8843,4.7857,4.6537,4.4869,4.3257,4.0644,0.0,0.0,0.0,0.0,0.0,0.0,0.0,0.0,0.0,0.0,0.0,0.0,0.0,0.0,0.0,0.0,0.0,0.0,0.0,0.0,0.0,0.0,0.0,0.0,0.0,4.2495,4.4571,4.4561,4.7089,4.7922,4.5555,4.8036,5.0086,5.077,5.4356,5.7143,5.8545,5.9534,6.0693,6.2014,6.1818,6.2245,6.3375,6.3375,6.3576,6.3973,6.3973,6.355,6.2868,6.3224,6.3174,6.2847,6.3224,6.3254,6.3078,6.2722,6.2094,6.1346,6.0564,5.9827,5.9216,5.9801,6.0253,6.0634,6.1219,6.1397,6.1117,5.9394,5.8438,5.7631,5.5779,5.5489,5.5688,5.5508,5.557,5.5961,5.7029,5.7029,5.7022,5.7951,5.7732,5.7405,5.7801,5.7298,5.6671,5.6276,5.4293,5.1959,4.9707,5.0553,5.0879,4.9056,5.0695,5.2226,5.2586,5.3432,5.3926,5.3708,5.3884,5.3783,5.3213,5.2837,5.2327,5.1599,5.0686,4.9757,4.8843,4.7857,4.6838,4.5759,4.3725,4.1153,3.7977,0.0,0.0,0.0,0.0,0.0,0.0,0.0,0.0,0.0,0.0,0.0,0.0,0.0,0.0,0.0,0.0,0.0,0.0,0.0,0.0,0.0,0.0,0.0,4.0503,4.3816,4.6428,4.7132,4.8721,4.9899,5.0237,5.0295,5.0899,5.2349,5.5661,5.7845,5.8372,6.1125,6.2959,6.3618,6.4141,6.4459,6.45,6.45,6.45,6.45,6.45,6.4521,6.4496,6.4496,6.4496,6.4496,6.4496,6.4199,6.3726,6.3726,6.34,6.2752,6.1667,6.1235,6.1285,6.1818,6.1994,6.2094,6.2626,6.2119,6.116,6.0563,5.9639,5.866,5.8127,5.7951,5.7951,5.7926,5.7926,5.7926,5.7951,5.7926,5.8052,5.8585,5.8328,5.7926,5.7951,5.7926,5.76,5.6451,5.5408,5.4496,5.3858,5.3733,5.3381,5.2327,5.3055,0.0,5.2327,5.3625,5.4378,5.3758,5.4228,5.4328,5.3733,5.2703,5.2076,5.2076,4.9464,4.8184,4.8743,4.7179,4.5784,4.4665,4.1968,3.9759,3.814,0.0,0.0,0.0,0.0,0.0,0.0,0.0,0.0,0.0,0.0,0.0,0.0,0.0,0.0,0.0,0.0,0.0,0.0,0.0,0.0,0.0,4.035,4.2314,4.1686,4.4778,4.7233,4.7543,4.9427,5.0517,4.9997,5.172,5.3053,5.3458,5.6214,5.8093,5.8582,5.9383,6.0548,6.2133,6.2321,6.3251,6.5057,6.5078,6.5078,6.5078,6.5078,6.4877,6.4496,6.4496,6.4496,6.4496,6.4496,6.44,6.4274,6.4274,6.4174,6.3923,6.2797,6.2119,6.1793,6.1943,6.1994,6.2094,6.2626,6.2601,6.2275,6.1697,6.1065,6.0337,5.9357,5.9056,5.8981,5.8585,5.8485,5.856,5.8956,5.8478,5.8127,5.9056,5.8861,5.8604,5.8981,5.8755,5.8259,5.7575,5.6828,5.6025,5.5089,5.4604,5.4253,5.3951,5.4152,0.0,5.4461,5.4906,5.4805,5.3808,5.3833,5.3708,5.3163,5.2151,5.1515,5.1515,4.9656,4.8426,4.8159,4.6954,4.616,4.5834,4.3514,4.1895,0.0,0.0,0.0,0.0,0.0,0.0,0.0,0.0,0.0,0.0,0.0,0.0,0.0,0.0,0.0,0.0,0.0,0.0,0.0,0.0,0.0,0.0,4.2984,4.516,4.5274,4.7109,4.8629,4.906,5.0632,5.1564,5.1255,5.2658,5.3604,5.3604,5.5799,5.7334,5.7851,5.8612,5.966,6.1019,6.1063,6.215,6.438,6.4426,6.4814,6.5634,6.5634,6.5459,6.5179,6.5179,6.5179,6.5179,6.5179,6.5053,6.4827,6.4827,6.4701,6.4425,0.0,0.0,0.0,0.0,6.2918,6.2747,6.3073,6.2852,6.24,6.2099,6.1642,6.1085,6.0406,6.0211,6.0155,5.9834,5.9759,5.9834,6.0136,5.9558,5.9056,5.9684,5.9433,5.9056,5.9156,5.9106,5.8805,5.8052,5.7782,0.0,5.6595,5.5792,5.5107,5.4672,5.4981,5.5132,5.4737,5.529,5.539,5.4511,5.4612,5.4536,5.3992,5.2729,0.0,0.0,0.0,4.7973,4.6928,4.6035,0.0,0.0,0.0,0.0,0.0,0.0,0.0,0.0,4.0902,4.0893,0.0,0.0,0.0,0.0,0.0,0.0,0.0,0.0,0.0,0.0,0.0,0.0,0.0,0.0,0.0,0.0,4.5366,4.7879,4.9764,5.0075,5.0385,5.117,5.204,5.2723,5.316,5.3201,5.3222,5.3261,5.4768,5.5902,5.6403,5.8049,0.0,0.0,0.0,6.0903,6.2848,6.287,6.3754,6.5462,6.5462,6.5462,6.5462,6.5462,6.557,6.5742,6.5548,6.5296,6.5039,6.4826,6.4463,6.4057,6.4379,6.4496,6.4496,6.4496,6.4199,6.3797,6.3797,0.0,0.0,6.2195,6.1768,6.1285,6.1285,6.126,6.121,6.121,6.121,6.121,6.121,6.0788,6.0392,6.0392,6.0035,5.9533,5.8987,5.9257,5.9282,5.8202,5.8359,5.8535,5.8001,5.7004,5.5968,5.5006,5.5616,5.5648,5.4185,5.5272,5.5968,5.5365,5.5742,0.0,5.5358,5.3816,5.2711,5.2226,4.9599,4.7431,4.5939,4.5422,4.5407,4.5964,4.6426,4.6938,4.7475,4.7942,4.851,4.9053,4.4328,4.355,0.0,0.0,0.0,0.0,0.0,0.0,0.0,0.0,0.0,0.0,0.0,0.0,0.0,0.0,0.0,4.4205,4.6864,4.9329,5.115,5.1752,5.2042,5.2205,5.2702,5.3098,5.3201,5.3201,5.3323,5.3672,5.4,5.4419,5.4903,5.5278,5.6219,5.7892,5.7961,5.8905,6.0836,6.0858,6.1061,6.1421,6.1421,0.0,6.1421,6.1421,6.2269,6.3688,6.2091,6.2266,6.3474,6.1927,6.121,6.1358,6.3612,6.4496,6.4496,6.4496,6.4425,6.435,6.435,6.3923,6.3375,6.3375,6.2672,6.1843,6.1843,6.1542,0.0,6.121,6.121,6.121,6.121,6.111,6.1034,6.1034,6.0959,6.0708,6.0116,6.0066,5.9815,5.8736,5.8635,5.8535,5.8001,5.7305,5.6759,5.6577,5.6351,5.6075,5.5767,5.6,5.5842,5.4873,5.4848,5.4873,5.4773,5.359,5.2862,5.2762,5.0569,4.8953,4.819,4.8476,4.8686,4.8786,4.8912,4.9238,4.9775,4.9875,5.0469,5.1398,4.8611,4.8109,0.0,0.0,0.0,0.0,0.0,0.0,0.0,0.0,0.0,0.0,0.0,3.8845,4.0379,0.0,4.4868,4.7051,4.9122,5.0984,5.2576,5.301,5.3155,5.3155,5.3362,5.3589,5.384,5.3861,5.392,5.4148,5.4145,5.4249,5.45,5.4497,5.5035,5.627,5.6293,5.7346,5.9528,5.9552,6.0038,6.1006,6.1006,6.1006,6.1006,6.1006,6.1532,6.2396,6.1418,6.1555,6.235,6.1163,6.0639,6.0797,6.2214,6.3196,6.3974,6.4939,6.5128,6.4902,6.4902,6.4551,6.4099,6.4099,6.3722,6.3245,6.3245,6.3069,6.2843,6.2843,6.2667,6.2466,6.2466,6.2039,6.1592,6.1592,6.1411,6.1135,6.0814,6.0738,6.0512,5.9664,5.9489,5.9338,5.8805,5.8234,5.7757,5.7481,5.7204,5.7047,5.7047,5.6778,5.6401,5.5867,5.5541,5.5408,5.5408,5.4403,5.3758,5.3758,5.1925,5.072,5.0444,5.046,5.0586,5.0845,5.1105,5.1507,5.2034,5.2352,5.2929,5.3733,5.2879,5.2503,0.0,0.0,0.0,0.0,0.0,0.0,0.0,0.0,3.7683,3.9112,4.0329,4.1748,4.3725,4.5678,4.7651,4.9722,5.111,5.2369,5.3628,5.3876,5.3938,5.3938,5.4,5.4231,5.4603,5.4727,5.4769,5.4769,5.4769,5.4769,5.4769,5.4769,5.4958,5.5334,5.5334,5.6251,5.8224,5.8224,5.9013,6.0572,6.0572,6.0572,6.0572,6.0572,6.0783,6.1134,6.1134,6.0923,6.055,6.0168,6.0011,6.0035,6.0428,6.1302,6.2622,6.4972,6.5501,6.5093,6.5481,6.5204,6.4672,6.4672,6.4576,6.4496,6.4496,6.4496,6.4496,6.4496,6.4199,6.3873,6.3873,6.3174,6.2496,6.2496,6.2089,6.1662,6.1562,6.1416,6.1165,6.0588,6.0468,6.0311,5.9759,5.9307,5.8786,5.8152,5.7976,5.7901,5.7901,5.7481,5.7161,5.7161,5.6778,5.6527,5.6527,5.5616,5.5006,5.4906,5.3632,5.2854,5.2754,5.2444,5.2503,5.3038,5.349,5.3966,5.4511,5.5006,5.5458,5.591,5.6344,5.5993,3.2696,3.2396,3.3303,3.5482,3.6052,3.688,0.0,0.0,4.1173,4.2708,4.4378,4.5788,4.6471,4.8128,4.9743,5.0798,5.1771,5.2743,5.3669,5.4145,5.4414,5.4414,5.4793,5.5062,5.5127,5.55,5.5749,5.5749,5.5749,5.5749,5.5749,5.5749,5.5769,5.5811,5.5831,5.5953,5.6234,5.6234,5.6311,5.6553,5.6553,5.6553,5.6553,5.6553,5.7478,5.9108,5.9108,5.8128,5.6553,5.6491,5.647,5.6639,5.8376,5.914,5.9734,6.3486,6.4508,6.4318,6.6152,6.6108,6.5229,6.5229,6.4902,6.4496,6.4496,6.4496,6.4496,6.4496,6.4471,6.44,6.44,6.43,6.4224,6.4224,6.3822,6.3274,6.2727,6.225,6.1743,6.119,6.111,6.0914,6.0292,6.0166,5.979,5.8761,5.8202,5.7901,5.7901,5.7851,5.7801,5.7801,5.775,5.77,5.77,5.7104,5.6527,5.6068,5.5867,5.5541,5.5039,5.544,5.5899,5.6433,5.6508,5.6828,5.7424,5.7499,5.7549,5.7625,5.7675,5.7355,3.5017,3.5255,3.6179,3.7615,3.8898,4.0288,4.2141,4.3039,4.3852,4.5291,4.6637,4.7755,4.8479,4.9909,5.1172,0.0,5.2909,5.3879,5.4544,5.4793,5.4917,5.4917,5.5082,5.521,5.521,5.5624,5.5893,5.5893,5.5893,5.5893,5.5893,5.5893,5.6018,5.6287,5.6308,5.6432,5.6656,5.6656,5.6656,5.6656,5.6656,5.6656,5.6656,5.6656,5.7104,5.7869,5.7869,5.7277,5.6308,5.6308,5.6308,5.6385,5.7196,5.7661,5.8272,6.1689,6.2801,6.2681,6.3306,6.3194,6.2742,6.2476,6.2238,6.2047,6.2047,6.2047,6.2288,6.3424,6.3507,6.3543,6.4678,6.4726,6.4496,6.4496,6.4325,6.4099,6.3827,6.3375,6.2822,6.2245,6.1893,6.1492,6.0914,6.0814,6.0663,6.0211,5.9382,5.883,5.883,5.8554,5.8252,5.7926,5.7901,5.8027,5.8334,5.7832,5.7556,5.7656,5.7355,5.7097,5.6846,5.7072,5.728,5.7506,5.7506,5.765,5.7901,5.8227,5.8529,5.883,5.9156,5.9357,3.6446,3.7241,3.8335,3.95,4.1343,4.3108,4.3983,4.5096,4.6244,4.7341,4.8417,4.9391,5.0199,5.1358,5.2371,5.2971,5.3985,5.481,5.5169,5.521,5.5082,5.4834,5.4917,5.5,5.5,5.5666,5.6142,5.6266,5.6242,5.6242,5.6242,5.6242,5.6407,5.6763,5.6763,5.6904,5.719,5.721,5.721,5.721,5.721,5.721,5.721,5.721,5.721,5.721,5.721,5.7024,5.6763,5.6763,5.6763,5.6763,5.6763,5.6945,5.7456,5.9646,6.0744,6.1129,6.1348,6.1327,6.1143,6.0799,6.0684,6.0684,6.0684,6.0684,6.098,6.2382,6.2407,6.2335,6.3763,6.3718,6.3323,6.3323,6.3225,6.3276,6.3811,6.352,6.3148,6.3247,6.2948,6.2471,6.1768,6.1642,6.1542,6.126,6.0507,5.996,5.996,5.9463,5.9062,5.883,5.8654,5.871,5.9112,5.8956,5.8855,5.8911,5.8855,5.873,5.8579,5.873,5.8805,5.8805,5.8805,5.8805,5.8805,5.9207,5.9583,5.9979,6.0362,6.0864,3.5997,3.7131,3.8722,4.0977,4.2888,4.4588,4.5913,4.7299,4.8438,4.8915,5.0073,5.117,5.1646,5.2539,5.3427,5.4314,5.4855,5.5165,5.521,5.521,5.4855,5.3938,5.4228,5.4517,5.4517,5.5766,5.6743,5.7128,5.7169,5.7169,5.7169,5.7169,5.7169,5.719,5.719,5.719,5.721,5.721,5.721,5.721,5.721,5.721,5.721,5.721,5.721,5.721,5.721,5.719,5.719,5.719,5.719,5.719,5.719,5.719,5.7215,5.7294,5.8295,5.9834,6.1767,6.2106,6.1693,6.1647,6.167,6.167,6.167,6.167,6.167,6.174,6.1419,6.1074,6.112,6.0775,6.0429,6.0429,6.0038,6.0161,6.2057,6.2042,6.222,6.409,6.4446,6.4073,6.2952,6.2752,6.24,6.1361,6.1185,6.116,6.116,6.0638,6.0487,6.1034,6.0588,6.0242,6.0242,6.0763,6.0658,5.9533,6.0507,6.0839,6.0242,6.0788,6.111,6.111,6.111,6.111,6.111,6.111,6.1135,6.116,6.116,6.1441,3.76,3.9371,4.1376,4.3365,4.5228,4.6844,4.79,4.877,4.9536,5.0281,5.0095,4.9929,5.0385,5.0943,5.1543,5.2141,5.3903,5.5314,5.5624,5.5935,5.579,5.4834,5.4875,0.0,0.0,5.5207,5.5997,5.6738,5.6805,5.6925,5.719,5.721,5.721,5.721,5.721,5.721,5.721,5.721,5.721,5.721,5.721,5.721,5.721,5.721,5.721,5.721,5.721,5.721,5.721,5.721,5.721,5.721,5.721,5.721,5.721,5.721,5.7534,5.8038,5.8434,5.8463,5.8246,5.7969,5.7862,5.7862,5.7862,5.7862,5.8104,5.9416,5.9661,6.0138,6.2775,6.3081,6.3039,6.4422,6.3324,6.2497,6.4426,6.34,6.2711,6.4643,6.4726,6.4396,6.3998,6.3948,6.3822,6.3446,6.2139,6.121,6.121,6.1034,6.0964,6.1185,6.1034,6.0889,6.0889,6.1085,6.1034,6.0638,6.0984,6.111,6.0889,6.111,6.121,6.121,6.121,6.121,6.121,6.1542,6.1718,6.1743,6.2496,6.2968,3.954,4.1503,4.3489,4.5477,4.6968,4.819,4.9143,4.9681,5.0178,5.0713,4.9929,4.9205,4.9495,4.9204,4.9472,5.1108,5.2826,5.442,5.5707,5.5873,5.5621,5.502,5.4668,5.442,0.0,0.0,5.5393,5.6515,5.6598,5.6784,5.7169,5.721,5.721,5.721,5.721,5.721,5.721,5.721,5.721,5.721,5.721,5.721,5.721,5.7376,5.7438,5.7459,5.7624,5.7707,5.7707,5.7707,5.7707,5.7686,5.7521,5.7438,5.7438,5.7272,5.7314,5.7376,5.6966,5.6801,5.6738,5.6449,5.6366,5.6366,5.6366,5.6366,5.6615,5.7892,5.8128,5.8603,6.1148,6.1439,6.1373,6.2724,6.1783,6.1072,6.2847,6.2003,6.1385,6.316,6.3801,6.3956,6.3779,6.3585,6.3228,6.2519,6.1202,6.0731,6.1933,6.1913,6.1768,6.1768,6.1592,6.1512,6.1512,6.1079,6.0716,6.0498,6.0691,6.0815,6.0815,6.1621,6.2089,6.2089,6.229,6.2365,6.2365,6.2742,6.2898,6.2898,6.3646,6.3998,4.1664,4.3427,4.5043,4.7237,4.8148,4.8749,4.9661,5.0136,5.0362,5.0362,4.9556,4.8832,0.0,0.0,4.7444,5.1046,5.1791,5.2868,5.5562,5.5186,5.4603,0.0,0.0,0.0,0.0,0.0,5.5058,5.6453,5.6556,5.6763,5.7169,5.721,5.721,5.721,5.721,5.721,5.721,5.721,5.721,5.721,5.721,5.721,5.7231,5.7686,5.7893,5.7914,5.8415,5.8601,5.8601,5.8601,5.8601,5.856,5.81,5.7914,5.7852,5.7438,5.7541,5.7831,5.7417,5.7252,5.7231,5.721,5.721,5.721,5.721,5.721,5.721,5.721,5.6925,5.6643,5.6766,5.6438,5.613,5.6207,5.6158,5.6452,5.7972,5.8216,5.8578,6.0045,6.1825,6.2879,6.2375,6.1876,6.0912,5.9049,5.8783,5.9895,6.3048,6.2936,6.259,6.259,6.2116,6.1836,6.1836,6.0719,5.9763,5.9218,5.9715,6.0045,6.0045,6.2239,6.3457,6.3457,6.3953,6.4203,6.4203,6.4203,6.4245,6.435,6.4375,6.4442,4.324,4.5539,4.7589,4.85,4.9307,5.0052,5.0632,5.0343,4.995,4.995,4.7589,4.5519,4.5519,4.5705,4.6596,4.8894,5.1833,0.0,5.6183,5.6225,0.0,5.5103,0.0,5.4461,5.3856,5.4207,0.0,5.5997,5.608,5.6411,5.7169,5.721,5.721,5.721,5.721,5.721,5.721,5.721,5.721,5.721,5.721,5.721,5.7231,5.7686,5.7893,5.7914,5.8415,5.8601,5.8601,5.8601,5.8601,5.8601,5.8477,5.8229,5.7914,5.8141,5.8079,5.7914,5.8141,5.7997,5.7666,5.7314,5.721,5.721,5.721,5.721,5.721,5.721,5.7128,5.7397,5.896,5.8985,5.8957,6.0446,5.9395,5.8562,6.0391,5.9642,5.9062,6.0547,6.0932,6.1015,6.0853,6.0737,6.0465,5.9971,5.9881,5.9918,5.9985,5.9838,5.9744,5.9744,5.9605,5.9535,5.9535,5.9239,5.9001,5.884,5.8978,5.9048,5.9048,5.9645,5.9977,5.9977,6.0094,6.0186,6.0186,6.0186,6.0904,6.2352,6.2762,6.3709,4.5498,4.7382,4.8852,4.9515,5.0052,5.0258,4.9742,4.9246,4.8521,4.732,4.4959,4.3116,4.3116,4.3551,4.4814,4.7631,5.086,5.3693,5.5707,5.5976,5.579,0.0,5.521,0.0,5.4458,5.5041,5.5641,5.6163,5.6018,5.6262,5.7148,5.721,5.721,5.721,5.721,5.721,5.721,5.721,5.7293,5.75,5.75,5.7603,5.7831,5.8286,5.8493,5.856,5.9015,5.9222,5.9222,5.9222,5.9222,5.9202,5.8995,5.8746,5.8514,5.8581,5.8581,5.8514,5.8581,5.8581,5.839,5.7728,5.7376,5.721,5.721,5.721,5.721,5.721,5.721,5.7464,5.8638,5.8867,5.903,5.9963,5.9269,5.8605,5.9309,5.8596,5.8253,5.9743,5.9804,5.958,5.9378,5.949,5.9279,5.8221,5.806,5.7839,5.7242,5.8256,5.8967,5.8738,5.8693,5.8693,5.8693,5.7938,5.7469,5.7469,5.7469,5.7469,5.7469,5.8476,5.9035,5.9035,5.9286,5.9401,5.9401,5.9608,6.026,6.1351,6.1869,6.2686,4.7817,4.8956,4.9619,5.0322,5.0527,5.0115,4.8231,4.761,4.6678,4.3987,4.2205,4.1187,4.1294,4.1521,4.3011,4.7051,4.9721,5.2247,5.5003,5.5396,5.5417,5.5455,5.5417,5.5396,5.5396,5.6059,5.6515,5.6602,5.6225,5.637,5.7169,5.721,5.7231,5.7293,5.7355,5.7355,5.7293,5.7293,5.7459,5.781,5.7852,5.81,5.8539,5.9057,5.9305,5.9326,5.9781,5.9988,5.9988,5.9988,5.9988,5.9947,5.9554,5.9347,5.9264,5.8912,5.8995,5.9243,5.8912,5.9015,5.916,5.8291,5.7707,5.7376,5.7314,5.7293,5.7293,5.7231,5.721,5.721,5.721,5.75,5.7707,5.7293,5.75,5.7608,5.6846,5.6639,5.6993,5.8274,5.8458,5.8285,5.7875,5.8133,5.7688,5.562,5.5251,5.5231,5.5293,5.7358,5.8684,5.8277,5.8232,5.8254,5.8322,5.6833,5.5897,5.5897,5.5897,5.5854,5.5812,5.7869,5.8978,5.8933,5.9454,5.9703,5.9703,6.0133,6.0452,6.0729,6.1394,6.1855,4.8625,5.0136,5.1274,5.1046,5.1274,5.0984,4.879,4.7134,0.0,4.2992,4.0527,3.9016,3.9727,4.1128,4.3383,4.7092,5.0259,5.3222,5.5976,5.6349,5.6473,0.0,5.6552,5.6349,5.6349,5.6142,5.6183,5.6556,5.6515,5.6701,5.7169,5.721,5.7376,5.7769,5.8141,5.8162,5.7769,5.7769,5.7624,5.7334,5.7707,5.7934,5.8038,5.8912,5.9305,5.9326,5.9781,5.9988,5.9988,5.9988,5.9988,5.9988,5.9906,5.9636,5.9347,5.9636,5.9554,5.9347,5.9636,5.9554,5.9202,5.8664,5.841,5.8266,5.7893,5.7769,5.7686,5.7314,5.721,5.721,5.721,5.7252,5.7293,5.7231,5.7272,5.7272,5.7128,5.6821,5.6679,5.6941,5.668,5.6387,5.6303,5.6366,5.6266,5.5839,5.5459,5.5355,5.5728,5.5536,5.5477,5.5796,5.5817,5.5962,5.6341,5.6095,5.59,5.59,5.59,5.5736,5.5336,5.6113,5.6344,5.5944,5.6432,5.6664,5.6664,5.6748,5.7613,5.9213,6.0972,6.2642,4.9826,5.0943,5.175,5.1522,5.146,5.0529,4.7051,0.0,0.0,3.9803,3.8026,3.7322,3.7968,3.9599,4.1793,4.4733,4.732,5.0156,5.3615,5.432,5.4982,5.6366,5.6759,5.6821,5.6618,5.6598,5.6676,5.6904,5.7132,5.7359,5.7541,5.779,5.8017,5.827,5.8472,5.8498,5.8266,5.8245,5.8266,5.8312,5.8514,5.8767,5.8995,5.9202,5.9305,5.9305,5.9533,5.9636,5.9636,5.9636,5.9781,5.9968,5.9719,5.9636,5.9678,5.9906,5.9699,5.9326,5.9554,5.9492,5.9222,5.8767,5.8601,5.856,5.8328,5.8245,5.8203,5.7976,5.7914,5.7872,5.7624,5.7748,5.781,5.7314,5.7376,5.7562,5.7562,5.7422,5.7339,5.7587,5.7256,5.6863,5.6614,5.678,5.678,5.6328,5.6059,5.5997,5.6225,5.5641,5.531,5.5541,5.5562,5.5666,5.5873,5.5893,5.5893,5.5893,5.5893,5.579,5.5583,5.5769,5.579,5.5562,5.579,5.5893,5.5893,5.6345,5.7045,5.8004,5.9452,6.0646,5.086,5.1667,5.2081,5.1978,5.1522,4.9908,4.5354,4.3428,4.1379,3.6995,3.6023,3.6126,3.6701,3.8133,4.0016,4.2375,4.4319,4.6989,5.1067,5.2392,5.3778,5.6059,5.7028,0.0,5.7053,5.7132,5.721,5.721,5.7728,5.8038,5.8038,5.8498,5.8767,5.8767,5.8767,5.8767,5.8767,5.8664,5.8746,5.8995,5.9098,5.9285,5.9533,5.9367,5.9305,5.9305,5.9409,5.945,5.945,5.945,5.9657,5.9947,5.9595,5.9678,5.9988,5.9988,5.9761,5.945,5.945,5.945,5.9388,5.9015,5.8829,5.8746,5.8643,5.8601,5.8601,5.8601,5.8601,5.8519,5.8141,5.8307,5.8394,5.7541,5.7707,5.8017,5.7914,5.7976,5.8141,5.8539,5.8286,5.7893,5.7438,5.7728,5.7794,5.7012,5.6888,5.6908,5.7012,5.6618,5.637,5.6473,5.6225,5.608,5.6183,5.6183,5.6183,5.6183,5.6183,5.6142,5.6038,5.6142,5.6183,5.6183,5.6287,5.639,5.6494,5.7173,5.75,5.7546,5.8706,5.9244,5.1253,5.2392,5.2974,5.2536,5.1771,4.9908,4.5354,0.0,4.0652,3.6887,3.5754,3.5733,3.6623,3.7632,3.9202,4.1912,4.3882,4.6492,5.0591,5.2989,5.5162,5.7438,0.0,0.0,5.8415,5.7666,5.721,5.721,5.8017,5.8539,5.8539,5.8995,5.9243,5.9243,5.9243,5.9243,5.9243,5.8808,5.8415,5.8017,5.8477,5.8452,5.8121,5.8933,5.9305,5.9326,5.974,5.9926,5.9926,5.9926,5.9947,6.0015,5.9947,5.9947,5.9988,5.9988,5.9968,5.9926,5.9926,5.9926,5.9926,5.9885,5.9574,5.916,5.8726,5.8601,5.8601,5.8601,5.8601,5.8601,5.856,5.8581,5.8452,5.7955,5.8183,5.841,5.7976,5.8224,5.856,5.8601,5.8581,5.8394,5.7914,5.8203,5.8348,5.7877,5.7769,5.7914,5.8374,5.8022,5.7898,5.8312,5.726,5.668,5.7045,5.7086,5.7086,5.7086,5.7086,5.6925,5.6535,5.6883,5.7086,5.7086,5.75,5.7939,5.8353,5.8436,5.8452,5.8503,6.0523,6.1423,5.1232,5.2658,5.3445,5.3013,5.1791,4.9555,4.5271,4.2681,4.0134,3.6437,3.5526,3.5511,3.5899,3.625,3.7156,3.9099,3.9782,4.1793,4.674,4.8459,5.086,5.5327,5.6283,5.6987,5.8059,5.7583,5.7438,5.7997,5.8394,5.8726,5.9015,5.9471,5.9719,5.9719,5.945,5.9305,5.9305,5.9119,5.8933,5.8746,5.9222,5.9347,5.916,5.9264,5.9305,5.9305,5.9492,5.9409,5.916,5.916,5.916,5.916,5.916,5.916,5.9222,5.9781,5.9636,5.9202,5.9471,5.9574,5.9533,5.9243,5.9222,5.9326,5.9409,5.9429,5.9429,5.9429,5.9429,5.9367,5.9098,5.8808,5.8535,5.8374,5.8684,5.8974,5.8788,5.8891,5.9098,5.9388,5.9222,5.8974,5.8788,5.8664,5.8539,5.8348,5.8079,5.8059,5.856,5.8457,5.8394,5.8581,5.8125,5.7877,5.8017,5.8038,5.8038,5.8038,5.8038,5.798,5.7794,5.796,5.8038,5.8038,5.825,5.839,5.8601,5.8891,5.9015,5.9062,6.0162,6.07,5.1232,5.2886,5.3731,5.3468,5.1688,4.9017,4.5167,4.2331,3.9516,3.6106,3.5402,3.5402,3.5402,3.5402,3.5816,3.7094,3.7451,3.923,4.3925,4.5561,4.8024,5.2741,5.382,5.4896,5.6714,5.7086,5.7583,5.8539,5.8601,5.8808,5.9264,5.9616,5.9781,5.9781,5.9202,5.9015,5.9305,5.9036,5.8953,5.9098,5.9285,5.945,5.9574,5.9243,5.9098,5.9119,5.9388,5.916,5.8622,5.8767,5.8726,5.8622,5.8767,5.8726,5.8705,5.9492,5.9367,5.885,5.9181,5.9388,5.945,5.9119,5.9243,5.9574,5.9885,5.9906,5.9823,5.9947,6.0092,6.0113,5.9802,5.9574,5.9362,5.9264,5.9574,5.9864,5.974,5.9802,6.0009,6.032,6.0133,5.9838,5.974,5.9554,5.93,5.9057,5.885,5.8808,5.8995,5.9015,5.9015,5.9015,5.9015,5.8912,5.8643,5.8601,5.8601,5.8601,5.8601,5.8601,5.8601,5.8601,5.8664,5.8808,5.8808,5.8953,5.9222,5.9409,5.9636,5.9906,6.0113,6.0195,5.1377,5.3134,5.3794,5.3794,5.1439,4.8252,4.5043,4.1816,3.8737,3.5966,3.5402,3.5402,3.5402,3.5402,3.5712,3.666,3.832,4.0433,4.3223,4.5954,4.8355,5.0217,5.1274,5.2557,5.4376,5.6155,5.7583,5.8539,5.8601,5.8808,5.9264,5.9305,5.9305,5.9305,5.839,5.8374,5.9285,5.8394,5.8141,5.8601,5.8121,5.8162,5.8622,5.8622,5.8622,5.8664,5.9574,5.9471,5.8643,5.9098,5.9015,5.8664,5.9119,5.9015,5.8664,5.914,5.9305,5.9285,5.9305,5.9595,5.9988,5.9988,5.9988,5.9988,5.9988,5.9678,5.9409,5.9864,6.032,6.0698,6.0698,6.0982,6.1183,6.0754,6.1003,6.1183,6.0754,6.1023,6.128,6.128,6.128,6.1162,6.0734,6.0997,6.0976,6.0113,6.0387,6.0512,6.003,5.9988,5.9988,5.9988,5.9988,5.9616,5.8684,5.8601,5.8601,5.8601,5.8601,5.8601,5.8601,5.8601,5.8829,5.9285,5.9285,5.974,6.0677,6.0222,6.0444,6.126,6.0878,6.0698,4.6761,4.8707,4.9887,4.8913,4.7465,4.5539,4.264,4.0451,3.8327,3.5904,3.5402,3.5402,3.5402,3.5402,3.6126,3.8282,3.8861,4.0102,4.3161,4.4898,4.6885,4.966,5.2994,5.5393,5.6259,5.6859,5.7583,5.8539,5.8286,5.8332,5.8808,5.8519,5.8498,5.8808,5.8203,5.8038,5.8353,5.8038,5.7976,5.8121,5.8622,5.8933,5.9098,5.9409,5.9554,5.9554,5.9533,5.9347,5.9078,5.8891,5.8746,5.8664,5.9119,5.9015,5.8705,5.9492,5.9574,5.9347,5.9657,5.9864,5.9988,5.9988,5.9988,5.9988,5.9988,5.9885,5.9802,5.9947,6.0092,6.0216,6.0216,6.0547,6.0858,6.0713,6.1023,6.1286,6.1142,6.1224,6.1301,6.1301,6.1301,6.1239,6.1121,6.1003,6.0899,6.0893,6.0775,6.0734,6.0873,6.0651,6.0491,6.0491,6.0175,5.9864,5.9574,5.9554,5.9678,6.0009,6.003,6.0154,6.0438,6.0459,6.0521,6.0666,6.0666,6.0811,6.11,6.0955,6.1038,6.128,6.1183,6.0961,4.4194,4.6264,4.7444,4.6741,4.5375,4.3615,4.1397,3.9558,3.7761,3.58,3.5402,3.5402,3.5402,3.5402,3.6023,3.791,3.8551,3.9626,4.2,4.3718,4.5932,4.9164,5.2787,5.5352,5.6114,5.6796,5.7521,5.8291,5.8059,5.8017,5.8307,5.8059,5.7934,5.8059,5.779,5.7707,5.7893,5.7707,5.7707,5.7893,5.8307,5.8705,5.9036,5.916,5.9305,5.9471,5.9347,5.9202,0.0,5.8912,5.8767,5.8664,5.9119,5.9015,5.8705,5.945,5.9554,5.9347,5.9636,5.9843,5.9988,5.9988,5.9988,5.9988,5.9988,5.9988,5.9988,5.9988,6.0113,6.0257,6.0257,6.0589,6.0941,6.0941,6.1121,6.1301,6.1301,6.1301,6.1301,6.1301,6.1425,6.1508,6.1322,6.1224,6.123,6.1307,6.108,6.1023,6.1286,6.108,6.0941,6.0941,6.0671,6.0506,6.0506,6.034,6.0444,6.0899,6.0941,6.1038,6.128,6.1301,6.1301,6.1301,6.1301,6.1384,6.1549,6.1742,6.1742,6.1549,6.1363,6.1162,0.0,4.5085,4.5852,4.6183,4.4382,4.2168,4.0859,3.8933,0.0,3.5671,3.5402,3.5407,3.5428,3.5407,3.5609,3.623,3.7744,3.9192,4.0217,4.2787,4.5809,4.908,5.142,5.3261,5.4583,5.6217,5.7397,5.7852,5.7852,5.7852,5.7893,5.7852,5.7645,5.721,5.721,5.7417,5.7852,5.7417,5.7417,5.7831,5.7438,5.7707,5.8539,5.8162,5.825,5.8684,5.9119,5.9078,5.8746,5.914,5.9057,5.8746,5.9181,5.9078,5.8767,5.9202,5.9347,5.9347,5.9347,5.9636,5.9988,5.9988,5.9988,5.9988,5.9988,5.9988,5.9988,5.9988,6.0299,6.0657,6.0657,6.0935,6.1266,6.1266,6.126,6.1301,6.1301,6.1301,6.1301,6.1301,6.1659,6.1824,6.1363,6.1653,6.1804,6.139,6.1301,6.1301,6.1301,6.1286,6.1286,6.128,6.1239,6.1239,6.1322,6.0982,6.092,6.1301,6.1342,6.1363,6.1411,6.1411,6.1411,6.1411,6.1411,6.1591,6.2052,6.2493,6.2472,6.2052,6.1617,6.1363,3.8274,0.0,4.0333,3.9416,3.8982,3.8502,0.0,3.6809,3.623,3.5547,3.5402,3.5506,3.5878,3.565,3.6111,3.8344,3.9068,3.9895,4.1563,4.5042,4.8894,5.2762,5.4337,5.5476,5.6465,5.6962,5.7397,5.7852,5.7562,5.7521,5.7872,5.7562,5.7314,5.721,5.721,5.7252,5.7355,5.7252,5.7252,5.7376,5.7603,5.7852,5.8105,5.8705,5.9036,5.914,5.9243,5.9429,5.9636,5.9409,5.945,5.9678,5.9781,5.9761,5.9678,5.9781,5.9823,5.9823,5.9823,5.9906,5.9988,5.9988,5.9988,5.9988,5.9988,5.9988,5.9988,5.9988,6.0071,6.0154,6.0154,6.0485,6.0837,6.0837,6.108,6.1301,6.1301,6.1301,6.1301,6.1301,6.1384,6.1425,6.1301,6.1384,6.1425,6.1301,6.1301,6.1301,6.1301,6.1017,6.0961,6.1286,6.0686,6.0734,6.1762,6.1431,6.1348,6.1824,6.1845,6.199,6.2348,6.2369,6.2369,6.2369,6.2369,6.2431,6.2555,6.2645,6.2645,6.2507,6.241,6.2183,3.6039,3.7161,3.8071,3.757,3.7467,3.7301,3.6597,3.625,3.5961,3.5506,3.5402,3.5485,3.5733,3.5754,3.6209,3.7703,3.8634,4.033,4.3677,4.6968,5.0406,5.4065,5.5331,5.6221,5.7107,5.721,5.7314,5.7562,5.7355,5.7314,5.7562,5.7334,5.721,5.721,5.721,5.721,5.721,5.721,5.721,5.721,5.7459,5.7583,5.7603,5.8332,5.8788,5.8995,5.9202,5.9574,5.9968,5.9719,5.9761,5.9988,5.9988,5.9988,5.9988,5.9988,5.9988,5.9988,5.9988,5.9988,5.9988,5.9988,5.9988,5.9988,5.9988,5.9988,5.9988,5.9988,5.9988,6.005,6.0284,6.0512,6.0698,6.0698,6.0858,6.1017,6.1017,6.1017,6.1142,6.1555,6.1638,6.1638,6.1638,6.1638,6.1638,6.1638,6.1638,6.17,6.1907,6.1748,6.1686,6.1934,6.152,6.152,6.2265,6.21,6.2058,6.2307,6.2327,6.2507,6.299,6.2804,6.2707,6.2707,6.2707,6.2707,6.2707,6.2941,6.3017,6.3017,6.3017,6.2893,3.548,3.6556,3.7529,3.7732,3.7545,3.7156,3.6701,3.6271,3.5878,3.5485,0.0,3.5428,3.5588,3.6002,3.6395,3.6685,3.8382,4.1343,4.6245,4.8769,5.1275,5.4438,5.5579,5.6387,5.7128,5.721,5.721,5.721,5.721,5.721,5.721,5.721,5.721,5.721,5.721,5.721,5.721,5.721,5.721,5.721,5.721,5.7231,5.7314,5.779,5.8245,5.8726,5.914,5.9574,5.9988,5.9906,5.9926,5.9988,5.9988,5.9988,5.9988,5.9988,5.9988,5.9988,5.9988,5.9988,5.9988,5.9988,5.9988,5.9988,5.9988,5.9988,5.9988,5.9988,6.005,6.0222,6.0615,6.076,6.0775,6.0775,6.0775,6.0775,6.0775,6.0775,6.1003,6.1762,6.1907,6.1886,6.1804,6.1804,6.1804,6.1804,6.1804,6.199,6.252,6.252,6.2555,6.2679,6.2582,6.2582,6.2769,6.2679,6.2679,6.2893,6.2831,6.3017,6.3501,6.3114,6.2893,6.2893,6.2893,6.2893,6.2893,6.3238,6.339,6.339,6.339,6.339,3.6266,3.7032,3.7239,3.6106,3.6064,3.6188,3.5733,3.5568,3.5485,3.5407,3.5402,3.565,3.6453,3.697,3.7798,3.9333,4.1754,4.492,4.9182,5.0755,5.2681,5.5893,5.6718,5.7045,5.719,5.721,5.721,5.721,5.721,5.721,5.721,5.721,5.721,5.721,5.721,5.721,5.721,5.721,5.721,5.721,5.721,5.7417,5.781,5.8291,5.8746,5.9202,5.9264,5.9574,5.9968,5.9574,5.9636,5.9988,5.9988,5.9988,5.9988,5.9988,5.9988,5.9988,5.9988,5.9988,5.9988,5.9988,5.9988,5.9988,5.9988,5.9988,5.9988,5.9988,6.0304,6.0615,6.0698,6.0961,6.1224,6.1224,6.1224,6.1224,6.1224,6.1224,6.1266,6.1363,6.1404,6.1307,6.0961,6.0899,6.0899,6.0899,6.0899,6.1189,6.199,6.1762,6.1824,6.2617,6.1996,6.199,6.3176,6.2555,6.2617,6.3811,6.3514,6.3487,6.397,6.3936,6.3887,6.3887,6.3887,6.3887,6.3859,6.3563,6.339,6.339,6.339,6.339,3.5226,3.5832,3.6375,3.6515,3.6887,3.7115,3.6639,3.6349,3.6147,3.6147,3.6147,3.637,3.7053,3.815,3.9789,4.2393,4.467,4.7217,5.0341,5.1996,5.382,5.6308,5.6966,5.721,5.721,5.721,5.721,5.721,5.721,5.721,5.721,5.721,5.721,5.721,5.721,5.721,5.721,5.721,5.721,5.721,5.721,5.7438,5.7914,5.8394,5.8726,5.8953,5.945,5.9657,5.9616,5.9657,5.9802,5.9988,5.9988,5.9988,5.9988,5.9988,5.9988,5.9988,5.9988,5.9988,5.9988,5.9988,5.9988,6.0056,6.0304,6.0387,6.0423,6.0624,6.0713,6.076,6.0982,6.1348,6.168,6.168,6.168,6.168,6.168,6.1466,6.1535,6.2307,6.1824,6.1493,6.2065,6.1727,6.1499,6.1754,6.1796,6.194,6.2327,6.2203,6.2224,6.2645,6.2307,6.2327,6.2955,6.2617,6.2769,6.3659,6.3763,6.3763,6.3721,6.3721,6.3597,6.3349,6.3328,6.3328,6.3328,6.3362,6.339,6.3411,6.3659,6.3784,3.4744,3.5128,3.5878,3.7177,3.769,3.798,3.8374,3.7922,3.757,0.0,3.7819,3.7736,3.8208,3.9972,4.2271,4.5147,4.7341,4.9411,5.1582,5.3176,5.4769,5.6535,5.7028,5.721,5.721,5.721,5.721,5.721,5.721,5.721,5.721,5.721,5.721,5.721,5.721,5.721,5.721,5.721,5.721,5.721,5.721,5.7438,5.7914,5.8266,5.8519,5.8643,5.9243,5.9367,5.916,5.9409,5.9636,5.9823,5.9823,5.9906,5.9988,5.9988,5.9988,5.9988,5.9988,5.9988,5.9988,5.9988,5.9988,6.0071,6.0574,6.0698,6.0775,6.1183,6.1162,6.1085,6.139,6.1824,6.2155,6.2155,6.2155,6.2155,6.2155,6.1886,6.1949,6.3017,6.2369,6.1928,6.2928,6.2493,6.2114,6.2472,6.2555,6.2617,6.2831,6.2769,6.2741,6.2831,6.2769,6.2707,6.2707,6.2893,6.3114,6.3362,6.3846,6.3936,6.3576,6.3549,6.339,6.3017,6.3017,6.3017,6.3017,6.3287,6.339,6.3411,6.3784,6.3936,3.6282,3.6333,3.6271,3.726,3.7198,3.7674,4.0631,4.0282,0.0,4.1542,0.0,0.0,4.0569,4.2847,4.5271,4.7175,4.9742,5.2164,5.4003,5.4751,5.56,5.6983,5.719,5.721,5.721,5.721,5.721,5.721,5.721,5.721,5.721,5.721,5.721,5.721,5.721,5.721,5.721,5.721,5.721,5.721,5.721,5.7438,5.7893,5.7914,5.8208,5.8581,5.8203,5.8266,5.8622,5.8203,5.8581,5.9347,5.9347,5.9616,5.9988,5.9988,5.9988,5.9988,5.9988,5.9988,5.9988,5.9988,5.9988,6.0071,6.0574,6.0698,6.0775,6.1183,6.1597,6.1907,6.1949,6.2307,6.2645,6.2645,6.2645,6.2645,6.2645,6.2617,6.2617,6.2727,6.2679,6.2493,6.2155,6.2052,6.2011,6.2052,6.2052,6.239,6.3238,6.2955,6.2866,6.3314,6.2955,6.2707,6.2707,6.3487,6.3846,6.3438,6.3846,6.4094,6.406,6.406,6.4032,6.3998,6.3998,6.3998,6.3998,6.3597,6.339,6.339,6.3425,6.3452,3.506,3.5397,3.6085,3.7868,3.8609,0.0,0.0,4.1607,4.2065,4.3654,4.3304,0.0,0.0,4.4981,4.6844,4.8687,5.1068,5.3199,5.4731,5.5355,5.6014,5.7065,5.721,5.721,5.721,5.721,5.721,5.721,5.721,5.721,5.721,5.721,5.721,5.721,5.721,5.721,5.721,5.721,5.721,5.721,5.721,5.7438,5.7893,5.7893,5.7997,5.8162,5.8312,5.8266,5.8162,5.8312,5.8726,5.9326,5.9616,5.9843,5.9988,5.9988,5.9988,5.9988,5.9988,5.9988,5.9988,5.9988,5.9988,6.0071,6.0574,6.0878,6.1162,6.1617,6.2073,6.2369,6.2073,6.2348,6.2707,6.2707,6.2707,6.2707,6.2707,6.2472,6.2348,6.2645,6.2224,6.1949,6.2369,6.2197,6.2093,6.239,6.2431,6.2555,6.2941,6.2804,6.2769,6.2955,6.2804,6.2707,6.2707,6.3017,6.3142,6.2976,6.3411,6.3659,6.3659,6.3362,6.3224,6.3224,6.3224,6.3224,6.3224,6.3052,6.2955,6.2955,6.2955,6.2955,3.4475,3.475,3.5687,3.7662,0.0,0.0,4.2288,4.3346,4.4506,4.6326,4.5892,4.5167,4.5209,4.6326,4.7796,4.9537,5.171,5.3719,5.521,5.5707,5.62,5.7086,5.721,5.721,5.721,5.721,5.721,5.721,5.721,5.721,5.721,5.721,5.721,5.721,5.721,5.721,5.721,5.721,5.721,5.721,5.721,5.7376,5.7666,5.7666,5.7666,5.7686,5.8017,5.7976,5.7707,5.8017,5.8514,5.914,5.9761,5.9988,5.9988,5.9988,5.9988,5.9988,5.9988,5.9988,5.9988,5.9988,5.9988,6.0113,6.0713,6.108,6.1425,6.2052,6.2452,6.2617,6.2307,6.2452,6.2707,6.2707,6.2707,6.2707,6.2707,6.2452,6.2327,6.2645,6.2183,6.1955,6.2582,6.2431,6.2348,6.2645,6.2707,6.2707,6.2707,6.2707,6.2707,6.2707,6.2707,6.2707,6.2707,6.2707,6.2707,6.2707,6.299,6.3176,6.3176,6.2866,6.2707,6.2707,6.2707,6.2707,6.2707,6.2707,6.2707,6.2707,6.2707,6.2707,3.5034,3.4801,3.5138,3.6494,3.8547,4.1092,4.4298,4.5706,4.7093,4.9844,4.8624,4.6782,4.5912,4.6823,4.819,4.9578,5.171,5.3843,5.5645,5.5893,5.62,5.7086,5.721,5.721,5.721,5.721,5.721,5.721,5.721,5.721,5.721,5.721,5.721,5.721,5.721,5.721,5.721,5.721,5.721,5.721,5.721,5.721,5.721,5.721,5.721,5.721,5.721,5.721,5.721,5.721,5.7748,5.8705,5.9636,6.0015,5.9988,5.9988,5.9988,5.9988,5.9988,5.9988,5.9988,5.9988,5.9988,6.0154,6.1038,6.128,6.1493,6.241,6.2679,6.2707,6.2707,6.2707,6.2707,6.2707,6.2707,6.2707,6.2707,6.2707,6.2707,6.2707,6.2707,6.2707,6.2707,6.2707,6.2707,6.2707,6.2707,6.2707,6.2707,6.2707,6.2707,6.2707,6.2707,6.2707,6.2707,6.2707,6.2707,6.2707,6.2707,6.2707,6.2707,6.2707,6.2707,6.2707,6.2707,6.2707,6.2707,6.2707,6.2707,6.2707,6.2707,6.2707,3.4543,3.5013,3.6204,3.8195,4.0658,4.3513,4.7071,4.7838,0.0,0.0,5.032,4.9224,4.8687,4.9121,4.9845,5.0591,5.2348,5.4172,5.5686,5.5893,5.62,5.7086,5.721,5.721,5.721,5.721,5.721,5.721,5.721,5.721,5.721,5.721,5.721,5.721,5.721,5.721,5.721,5.721,5.721,5.721,5.721,5.721,5.721,5.721,5.721,5.721,5.721,5.721,5.7231,5.7562,5.8038,5.8664,5.9264,5.9699,5.9988,5.9988,5.9988,5.9988,5.9988,5.9988,5.9988,5.9988,5.9988,6.005,6.032,6.0811,6.1342,6.1638,6.2203,6.2707,6.2707,6.2707,6.2707,6.2707,6.2707,6.2707,6.2707,6.2707,6.2707,6.2707,6.2707,6.2707,6.2707,6.2707,6.2707,6.2707,6.2707,6.2707,6.2707,6.2707,6.2707,6.2707,6.2707,6.2707,6.2707,6.2707,6.2707,6.2707,6.2707,6.2707,6.2707,6.2707,6.2707,6.2707,6.2707,6.2707,6.2707,6.2707,6.2707,6.2707,6.2707,6.2866,3.5329,3.6163,3.7682,3.9809,4.2269,4.5209,4.9246,5.0095,5.0488,5.2019,5.1605,5.088,5.0633,5.0777,5.1106,5.1584,5.2865,5.4231,5.5459,5.579,5.6163,5.6883,5.7086,5.7135,5.691,5.7085,5.711,5.691,5.7085,5.721,5.721,5.721,5.721,5.721,5.721,5.721,5.721,5.721,5.721,5.721,5.721,5.721,5.721,5.721,5.721,5.721,5.721,5.721,5.7231,5.7707,5.8187,5.8664,5.9119,5.9574,5.9988,5.9988,5.9988,5.9988,5.9988,5.9988,5.9988,5.9988,5.9988,6.003,6.0216,6.0775,6.1322,6.1535,6.2141,6.2707,6.2707,6.2707,6.2707,6.2707,6.2707,6.2707,6.2707,6.2707,6.2707,6.2707,6.2707,6.2707,6.2707,6.2707,6.2707,6.2707,6.2707,6.2707,6.2707,6.2707,6.2707,6.2707,6.2707,6.2707,6.2707,6.2707,6.2707,6.2707,6.2707,6.2707,6.2707,6.2707,6.2707,6.2707,6.2707,6.2707,6.2707,6.2707,6.2707,6.2707,6.2707,6.2955,3.6742,3.7823,3.9399,4.1418,4.3779,4.674,5.1005,5.2309,5.2743,5.3181,5.2578,5.1978,5.1978,5.1978,5.2122,5.2536,5.332,5.4189,5.5124,5.5576,5.6031,5.6598,5.6937,5.6935,5.6459,5.686,5.6935,5.6434,5.686,5.716,5.721,5.721,5.721,5.721,5.721,5.721,5.721,5.721,5.721,5.721,5.721,5.721,5.721,5.721,5.721,5.721,5.721,5.721,5.7231,5.7707,5.8187,5.8664,5.9119,5.9574,5.9988,5.9988,5.9988,5.9988,5.9988,5.9988,5.9988,5.9988,5.9988,6.0071,6.0574,6.0976,6.1411,6.1886,6.2348,6.2707,6.2707,6.2707,6.2707,6.2707,6.2707,6.2707,6.2707,6.2707,6.2707,6.2707,6.2707,6.2707,6.2707,6.2707,6.2707,6.2707,6.2707,6.2707,6.2707,6.2707,6.2707,6.2707,6.2707,6.2707,6.2707,6.2707,6.2707,6.2707,6.2707,6.2707,6.2707,6.2707,6.2707,6.2707,6.2707,6.2707,6.2707,6.2707,6.2707,6.2707,6.2741,6.3017,3.625,3.8046,4.0593,4.3551,4.732,5.088,5.2907,5.3465,5.3569,5.3651,5.3527,5.3359,5.3359,5.3359,5.338,5.3483,5.4003,5.4686,5.5624,5.5466,5.5713,5.6937,5.6773,5.6534,5.6409,5.6509,5.6534,5.6409,5.6509,5.676,5.7185,5.721,5.721,5.721,5.721,5.721,5.721,5.721,5.721,5.721,5.721,5.721,5.721,5.721,5.721,5.721,5.721,5.721,5.7231,5.7707,5.8187,5.8664,5.9119,5.9574,5.9988,5.9988,5.9988,5.9988,5.9988,5.9988,5.9988,5.9988,5.9988,6.0071,6.0574,6.0976,6.1411,6.1886,6.2348,6.2707,6.2707,6.2707,6.2707,6.2707,6.2707,6.2707,6.2707,6.2707,6.2707,6.2707,6.2707,6.2707,6.2707,6.2707,6.2707,6.2707,6.2707,6.2707,6.2707,6.2707,6.2707,6.2707,6.2707,6.2707,6.2707,6.2707,6.2707,6.2707,6.2707,6.2707,6.2707,6.2707,6.2707,6.2707,6.2707,6.2707,6.2707,6.2707,6.2707,6.2707,6.3079,6.3487,3.743,3.9561,4.2476,4.6575,4.9887,5.2536,5.4107,5.4314,5.4186,5.4417,5.4293,5.4124,5.4124,5.4124,5.4124,5.4124,5.4331,5.4594,5.4876,5.5016,5.5295,5.5765,5.5943,5.5931,5.5653,5.6107,5.6283,5.6031,5.6509,5.691,5.7185,5.721,5.721,5.721,5.721,5.721,5.721,5.721,5.721,5.721,5.721,5.721,5.721,5.721,5.721,5.721,5.721,5.721,5.7231,5.7707,5.8187,5.8664,5.9119,5.9574,5.9988,5.9988,5.9988,5.9988,5.9988,5.9988,5.9988,5.9988,5.9988,6.0071,6.0574,6.0976,6.1411,6.1886,6.2348,6.2707,6.2707,6.2707,6.2707,6.2707,6.2707,6.2707,6.2707,6.2707,6.2707,6.2707,6.2707,6.2707,6.2707,6.2707,6.2707,6.2707,6.2707,6.2707,6.2707,6.2707,6.2707,6.2707,6.2707,6.2707,6.2707,6.2707,6.2707,6.2707,6.2707,6.2707,6.2707,6.2707,6.2707,6.2707,6.2707,6.2707,6.2707,6.2707,6.2707,6.2707,6.3176,6.3659,3.8468,4.126,4.4734,4.9451,5.1708,5.3178,5.492,5.4896,5.4665,5.5207,5.4872,5.4497,5.4497,5.4583,5.4579,5.4401,5.4439,5.4334,5.3937,5.4443,5.4755,5.4546,5.5085,5.5274,5.4843,5.5603,5.5981,5.5628,5.6434,5.701,5.7185,5.721,5.721,5.721,5.721,5.721,5.721,5.7128,5.7128,5.721,5.721,5.721,5.721,5.721,5.721,5.721,5.721,5.721,5.7231,5.7707,5.8187,5.8664,5.9119,5.9574,5.9988,5.9988,5.9988,5.9988,5.9988,5.9988,5.9988,5.9988,6.005,6.0195,6.0651,6.108,6.1535,6.199,6.241,6.2707,6.2707,6.2707,6.2707,6.2707,6.2707,6.2707,6.2707,6.2707,6.2707,6.2707,6.2707,6.2707,6.2707,6.2707,6.2707,6.2707,6.2707,6.2707,6.2707,6.2707,6.2707,6.2707,6.2707,6.2707,6.2707,6.2707,6.2707,6.2707,6.2769,6.2831,6.2831,6.2831,6.2831,6.2831,6.2741,6.2707,6.2707,6.2707,6.2707,6.2707,6.3266,6.3721,3.685,4.1713,4.7279,5.0756,5.2617,5.4003,5.5479,5.5145,5.4748,5.5624,5.5124,5.4497,5.4497,5.4834,5.4859,5.4037,5.4207,5.4377,5.4251,5.3919,5.413,5.5291,5.5113,5.4889,5.4812,5.4939,5.5173,5.5578,5.5729,5.6233,5.716,5.721,5.721,5.721,5.721,5.721,5.721,5.6842,5.6842,5.721,5.721,5.721,5.721,5.721,5.721,5.721,5.721,5.721,5.7231,5.7707,5.8187,5.8664,5.9119,5.9574,5.9988,5.9988,5.9988,5.9988,5.9988,5.9988,5.9988,5.9988,6.0284,6.0671,6.11,6.1555,6.2011,6.2472,6.2645,6.2707,6.2707,6.2707,6.2707,6.2707,6.2707,6.2707,6.2707,6.2707,6.2707,6.2707,6.2707,6.2707,6.2707,6.2707,6.2707,6.2707,6.2707,6.2707,6.2707,6.2707,6.2707,6.2707,6.2707,6.2707,6.2707,6.2707,6.2707,6.2707,6.3079,6.33,6.33,6.33,6.33,6.33,6.2893,6.2707,6.2707,6.2707,6.2707,6.2707,6.3597,6.4032,3.9209,4.3906,4.85,5.146,5.301,5.4107,5.5251,5.5186,5.5082,5.5769,5.5352,5.48,5.4488,5.4639,5.4547,5.3814,5.3918,5.404,5.3951,5.3692,5.3842,5.4704,5.4527,5.4355,5.4355,5.4635,5.4914,5.5122,5.5704,5.6258,5.6735,5.676,5.691,5.7185,5.691,5.676,5.676,5.6656,5.6556,5.6469,5.6738,5.6863,5.6863,5.7086,5.721,5.721,5.721,5.721,5.7231,5.7707,5.8017,5.8266,5.9015,5.9429,5.9636,5.9906,5.9988,5.9988,5.9988,5.9988,6.003,6.0325,6.0527,6.0816,6.1493,6.1845,6.2093,6.2582,6.2707,6.2707,6.2707,6.2707,6.2707,6.2707,6.2707,6.2707,6.2707,6.2707,6.2707,6.2707,6.2707,6.2707,6.2707,6.2707,6.2707,6.2707,6.2707,6.2707,6.2707,6.2707,6.2707,6.2707,6.2707,6.2707,6.2707,6.2928,6.3079,6.3079,6.3535,6.3784,6.3784,6.3784,6.3687,6.3411,6.2928,6.2707,6.2707,6.2707,6.2707,6.2707,6.3659,6.4094,4.0409,4.4132,4.7258,5.0488,5.2182,5.3424,5.4586,5.4938,5.5186,5.5769,5.54,5.491,5.4622,5.4707,5.4571,5.3708,5.388,5.4005,5.3669,5.3539,5.3642,5.4101,5.4057,5.3998,5.3998,5.4355,5.466,5.4787,5.5678,5.6258,5.6409,5.6409,5.666,5.7185,5.6685,5.6347,5.6245,5.6218,5.5987,5.5533,5.6259,5.6598,5.6598,5.7028,5.721,5.721,5.721,5.721,5.7231,5.7583,5.779,5.7976,5.8808,5.9202,5.9367,5.9823,5.9988,5.9988,5.9988,6.0071,6.0222,6.0449,6.0734,6.1127,6.1659,6.199,6.2238,6.2617,6.2707,6.2707,6.2707,6.2707,6.2707,6.2707,6.2707,6.2707,6.2707,6.2707,6.2707,6.2707,6.2707,6.2707,6.2707,6.2707,6.2707,6.2707,6.2707,6.2741,6.2866,6.2866,6.2866,6.2866,6.2976,6.3017,6.2893,6.33,6.3576,6.3576,6.3983,6.4232,6.4232,6.4232,6.4094,6.3735,6.3287,6.2928,6.2707,6.2707,6.2769,6.2893,6.3721,6.4094,3.7993,4.0137,4.235,4.6844,4.9618,5.1707,5.3463,5.4207,5.4789,5.5728,5.5108,5.4557,5.4912,5.543,5.5319,5.3762,5.4299,5.4584,5.3577,5.3421,5.3572,5.3971,5.3998,5.3998,5.3998,5.4023,5.4253,5.4762,5.5325,5.5855,5.6384,5.6409,5.666,5.7185,5.6685,5.623,5.5826,5.5401,5.4952,5.4502,5.5918,5.6598,5.6598,5.7028,5.721,5.721,5.721,5.721,5.721,5.7231,5.75,5.7934,5.8457,5.8912,5.9367,5.9823,5.9988,5.9988,5.9988,6.0278,6.0594,6.0154,6.0899,6.1866,6.1446,6.1949,6.2679,6.2679,6.2707,6.2707,6.2707,6.2707,6.2707,6.2707,6.2707,6.2707,6.2707,6.2707,6.2707,6.2707,6.2707,6.2707,6.2707,6.2707,6.2707,6.2707,6.2707,6.2866,6.33,6.3376,6.3376,6.3376,6.3763,6.3846,6.339,6.3784,6.406,6.406,6.4418,6.4667,6.4667,6.4667,6.4667,6.4638,6.4232,6.3597,6.2707,6.2707,6.2928,6.3362,6.3874,6.4094,3.7736,4.0072,4.2555,4.5643,4.8128,5.0197,5.1707,5.3114,5.4417,5.5645,5.5331,5.4956,5.5301,5.5101,5.4549,5.3587,5.3772,5.4016,5.3918,5.3611,5.3687,5.4423,5.4202,5.3998,5.3998,5.3998,5.4074,5.4278,5.4838,5.5402,5.586,5.5968,5.6377,5.7165,5.6685,5.6062,5.5377,5.454,5.4094,5.4029,5.5464,5.6142,5.6163,5.6883,5.721,5.721,5.721,5.721,5.721,5.721,5.7293,5.7521,5.8286,5.8705,5.8953,5.9719,5.9988,5.9988,5.9988,6.0092,6.032,6.0707,6.1162,6.1638,6.2079,6.2431,6.2707,6.2707,6.2707,6.2707,6.2707,6.2707,6.2707,6.2707,6.2707,6.2707,6.2707,6.2707,6.2707,6.2707,6.2707,6.2804,6.31,6.3142,6.2928,6.2348,6.3017,6.3328,6.2617,6.33,6.3846,6.3846,6.3998,6.4032,6.3874,6.4232,6.448,6.448,6.4887,6.5135,6.5135,6.5135,6.5011,6.47,6.4542,6.417,6.3597,6.3597,6.3535,6.3411,6.3859,6.3936,3.6448,3.8494,4.0921,4.382,4.5704,4.761,5.0653,5.1881,5.3028,5.5203,5.5083,5.474,5.5291,5.4739,5.4065,5.3661,5.3787,5.3964,5.411,5.3821,5.3818,5.4468,5.4227,5.3998,5.3998,5.3998,5.3939,5.3808,5.4506,5.5065,5.5382,5.5592,5.6103,5.6915,5.6128,5.5426,5.4837,5.3887,5.3524,5.3789,5.5032,5.5805,5.6163,5.6859,5.721,5.721,5.721,5.721,5.721,5.721,5.7293,5.75,5.8286,5.8705,5.8933,5.9699,5.9988,5.9988,5.9988,6.0195,6.0527,6.0955,6.139,6.1845,6.2327,6.2582,6.2679,6.2454,6.2406,6.2351,6.2138,6.2262,6.2406,6.2406,6.2543,6.2707,6.2707,6.2707,6.2707,6.2707,6.2831,6.3017,6.3349,6.3535,6.3425,6.2804,6.3487,6.3797,6.3004,6.3735,6.4294,6.4294,6.4418,6.4467,6.4294,6.4687,6.4949,6.4949,6.5225,6.5383,6.5383,6.5383,6.5259,6.4949,6.4949,6.4791,6.4529,6.4094,6.3874,6.3846,6.3874,6.3784,0.0,0.0,0.0,4.1125,4.2182,4.386,5.0115,5.0523,5.0629,5.4346,5.4236,5.3738,5.4829,5.4459,5.3998,5.3998,5.4431,5.4584,5.4074,5.3998,5.3998,5.3998,5.3998,5.3998,5.3998,5.3998,5.3828,5.3424,5.4257,5.4822,5.4979,5.5361,5.5835,5.6384,5.5036,5.4296,5.4296,5.3455,5.3234,5.3701,5.4638,5.5627,5.6573,5.7003,5.721,5.721,5.721,5.721,5.721,5.721,5.7479,5.7934,5.8436,5.8891,5.9367,5.9823,5.9988,5.9988,5.9988,6.0542,6.1198,6.0811,6.1555,6.2542,6.2101,6.2294,6.2515,6.1932,6.1767,6.1629,6.1057,6.1326,6.1767,6.1767,6.2214,6.2631,6.2631,6.2679,6.2707,6.2707,6.3079,6.3411,6.3425,6.3825,6.4122,6.4094,6.4094,6.4218,6.4604,6.4667,6.47,6.4729,6.5135,6.5225,6.4762,6.5135,6.5383,6.5383,6.5383,6.5383,6.5383,6.5383,6.5383,6.5383,6.5383,6.5383,6.5383,6.4094,6.3887,6.47,6.3825,6.3659,3.3978,0.0,0.0,0.0,0.0,0.0,4.4568,4.5854,4.7609,5.2286,5.2386,5.2387,5.4974,5.4657,5.3998,5.3998,5.4125,5.4176,5.4023,5.375,5.3672,5.3959,5.375,5.3672,5.3978,5.373,5.3521,5.3429,5.3705,5.4035,5.4409,5.4905,5.5557,5.6363,5.5036,5.4103,5.3732,5.3586,5.3386,5.314,5.4467,5.543,5.6053,5.6854,5.721,5.721,5.721,5.721,5.721,5.721,5.7479,5.7934,5.8436,5.8891,5.9367,5.9823,5.9988,5.9988,5.9988,6.0071,6.024,6.0471,6.0707,6.0935,6.1145,6.1294,6.1361,6.1195,6.116,6.1105,6.0939,6.101,6.116,6.116,6.1298,6.1389,6.1389,6.2012,6.2679,6.3114,6.33,6.3597,6.4232,6.4452,6.4343,6.3673,6.3597,6.3611,6.3735,6.3763,6.4108,6.5101,6.5321,6.535,6.5225,6.5321,6.5383,6.5383,6.5383,6.5383,6.5383,6.5383,6.5383,6.5383,6.5383,6.5383,6.5383,6.5039,6.4791,6.47,6.4156,6.3784,0.0,0.0,0.0,0.0,0.0,0.0,4.3141,4.4227,4.5818,5.0835,5.1199,5.14,5.3999,5.3653,5.3129,5.3658,5.375,5.3808,5.3978,5.3986,5.3984,5.4004,5.3992,5.406,5.431,5.3765,5.3485,5.3731,5.3368,5.338,5.3886,5.4185,5.4829,5.5798,5.4608,5.3806,5.349,5.3592,5.3472,5.3153,5.4232,5.5072,5.5742,5.6512,5.6885,5.6885,5.711,5.721,5.721,5.721,5.7583,5.8203,5.8498,5.9015,5.9616,5.9885,5.9831,5.9642,5.9853,5.9826,5.9773,6.0219,6.042,6.053,6.0831,6.0892,6.0844,6.0587,6.0365,6.0183,6.0183,6.0365,6.0512,6.0512,6.0726,6.0952,6.1161,6.166,6.2301,6.2892,6.3506,6.4108,6.4589,6.4858,6.4825,6.4294,6.4232,6.4232,6.4232,6.4232,6.4542,6.5321,6.5383,6.5383,6.5383,6.5383,6.5383,6.5383,6.5383,6.5383,6.5383,6.5383,6.5383,6.5383,6.5383,6.5383,6.5383,6.5197,6.4887,6.4467,6.4591,6.4405,3.3853,0.0,0.0,0.0,3.7177,0.0,4.3428,4.3889,4.4456,4.9207,4.9806,5.0056,5.204,5.163,5.1352,5.2497,5.2926,5.3326,5.392,5.4366,5.4474,5.4049,5.4443,5.4728,5.4716,5.3967,5.3681,5.4083,5.3244,5.2919,5.3465,5.349,5.3931,5.4864,5.4066,5.3509,5.3415,5.346,5.346,5.3415,5.394,5.4673,5.5527,5.6082,5.6333,5.6434,5.689,5.711,5.711,5.711,5.7656,5.8514,5.8504,5.9036,5.9822,5.9811,5.947,5.9084,5.9532,5.9605,5.9563,5.9985,6.0365,6.0726,6.0726,6.0726,6.0587,6.006,5.9559,5.9207,5.9207,5.9559,5.9893,5.9893,6.0318,6.0846,6.1219,6.1463,6.172,6.2271,6.354,6.4531,6.4572,6.4993,6.529,6.529,6.5231,6.5225,6.5383,6.5259,6.5225,6.5383,6.5383,6.5383,6.5383,6.5383,6.5383,6.5383,6.5383,6.5383,6.5383,6.5383,6.5383,6.5383,6.5383,6.5383,6.5383,6.4977,6.4591,6.417,6.5011,6.5135,3.505,3.5754,3.6519,3.6499,0.0,0.0,3.8502,3.974,4.1631,4.4454,4.4921,4.5697,4.8654,4.8375,4.782,4.8133,4.9918,5.1933,5.3744,5.3812,5.374,5.3959,5.4187,5.4285,5.4182,5.4088,5.3907,5.3561,5.2999,5.2919,5.3465,5.349,5.3757,5.4334,5.4239,5.3732,5.2864,5.3267,5.3267,5.2864,5.3765,5.4472,5.497,5.5502,5.5981,5.6409,5.6509,5.6559,5.6559,5.6559,5.7143,5.8033,5.7992,5.8262,5.8696,5.8664,5.8548,5.8503,5.892,5.8987,5.8966,5.9423,5.9537,5.9543,5.9543,5.9543,5.9515,5.9375,5.9272,5.9207,5.9207,5.9272,5.9347,5.9347,5.9439,5.9543,5.966,6.0605,6.1477,6.159,6.25,6.3375,6.3739,6.4283,6.466,6.466,6.417,6.417,6.5259,6.4467,6.4218,6.5288,6.5383,6.5383,6.5383,6.5383,6.5383,6.5383,6.5383,6.5383,6.5383,6.5383,6.5383,6.5383,6.5383,6.5383,6.5383,6.5321,6.5039,6.4604,6.5135,6.5135,3.5588,3.5919,3.6561,3.7032,0.0,0.0,0.0,3.8841,4.0218,4.2698,4.2866,4.3329,4.5832,4.5483,4.5117,4.6093,4.8261,5.0263,5.1579,5.293,5.3785,5.3722,5.3778,5.4025,5.4461,5.3854,5.3249,5.2784,5.2715,5.2619,5.2458,5.2463,5.266,5.3137,5.3361,5.3237,5.2715,5.3395,5.3493,5.3072,5.3774,5.4209,5.4431,5.4945,5.535,5.5628,5.588,5.6006,5.6006,5.6006,5.6447,5.7123,5.731,5.7653,5.8026,5.8228,5.8098,5.792,5.8359,5.8262,5.8044,5.8721,5.8893,5.8887,5.9121,5.9207,5.9207,5.9207,5.9207,5.9207,5.9207,5.9207,5.9207,5.9207,5.9207,5.9238,5.9473,6.0226,6.0973,6.1209,6.1814,6.2593,6.3448,6.3855,6.4143,6.4459,6.4201,6.4173,6.4864,6.4634,6.4561,6.4913,6.5212,6.5383,6.5383,6.5383,6.5383,6.5383,6.5383,6.5383,6.5383,6.5383,6.5383,6.5383,6.5383,6.5383,6.5383,6.5383,6.5288,6.5044,6.5288,6.5259,0.0,0.0,0.0,0.0,0.0,3.743,0.0,0.0,0.0,4.1267,4.1193,4.1261,4.276,4.2291,4.2203,4.3837,4.6052,4.7751,4.8295,5.0821,5.2674,5.2775,5.3227,5.3737,5.4264,5.3118,5.2329,5.2379,5.2281,5.1992,5.144,5.1577,5.1816,5.2095,5.2521,5.2716,5.2715,5.3393,5.3633,5.3384,5.3808,5.3998,5.3998,5.4457,5.4711,5.4818,5.5249,5.5451,5.5451,5.5451,5.5661,5.6045,5.6614,5.7082,5.7497,5.7832,5.7674,5.7308,5.777,5.7612,5.7336,5.8215,5.8566,5.8711,5.909,5.9207,5.9207,5.9207,5.9207,5.9207,5.9207,5.9207,5.9207,5.9207,5.9207,5.9297,5.9601,6.0011,6.0421,6.0888,6.1308,6.195,6.3035,6.3335,6.3575,6.4076,6.4237,6.4315,6.4315,6.4754,6.4897,6.4537,6.4946,6.529,6.5383,6.5383,6.5383,6.5383,6.5383,6.5383,6.5383,6.5383,6.5383,6.5383,6.5383,6.5383,6.5383,6.5383,6.5383,6.5383,6.5383,6.5383,0.0,0.0,0.0,0.0,3.9596,0.0,0.0,0.0,3.8555,3.7674,0.0,3.8058,3.8378,0.0,0.0,3.8573,4.1188,4.3379,4.416,4.5861,4.7888,5.0294,5.2401,5.3182,5.1923,5.1318,5.1659,5.3208,5.1579,5.0742,5.1382,5.2261,5.2546,5.2114,5.262,5.2818,5.2695,5.2812,5.3027,5.3384,5.3808,5.3998,5.3998,5.4049,5.4355,5.4812,5.4843,5.4869,5.4869,5.4869,5.4891,5.4985,5.5864,5.6482,5.6893,5.6825,5.6742,5.6747,5.7151,5.7261,5.7336,5.8215,5.8769,5.9121,5.918,5.9207,5.9207,5.9207,5.9207,5.9207,5.9207,5.9207,5.9207,5.9207,5.9207,5.9207,5.9266,5.959,5.998,6.0401,6.0859,6.1327,6.1835,6.2417,6.2814,6.2892,6.3364,6.3699,6.3699,6.3748,6.397,6.4459,6.4565,6.4803,6.5355,6.5383,6.5383,6.5383,6.5383,6.5383,6.5383,6.5383,6.5383,6.5383,6.5383,6.5383,6.5383,6.5383,6.5383,6.5383,6.5383,6.5383,0.0,0.0,0.0,0.0,0.0,0.0,3.7119,0.0,3.6814,0.0,0.0,0.0,0.0,0.0,0.0,0.0,3.9659,4.1603,4.1973,4.3976,4.6111,4.8,4.8233,4.8397,4.8734,4.9828,5.0818,5.1534,5.0729,5.0449,5.1011,5.1659,5.1919,5.1699,5.2409,5.2625,5.2344,5.3061,5.3437,5.3384,5.3808,5.3998,5.3998,5.3998,5.4125,5.4329,5.4329,5.4329,5.4349,5.463,5.4855,5.5104,5.5743,5.6097,5.6313,5.6532,5.6609,5.6601,5.6777,5.7012,5.7336,5.8215,5.8828,5.9207,5.9207,5.9207,5.9207,5.9207,5.9207,5.9207,5.9207,5.9207,5.9207,5.9207,5.9207,5.9207,5.9207,5.9707,6.0215,6.0362,6.0976,6.1484,6.166,6.1923,6.2243,6.264,6.2921,6.321,6.3546,6.3921,6.4093,6.3999,6.4286,6.4582,6.4881,6.4897,6.504,6.5383,6.5383,6.5383,6.5383,6.5383,6.5383,6.5383,6.5383,6.5383,6.5383,6.5383,6.5383,6.5383,6.5383,6.5383,4.1959,0.0,0.0,0.0,0.0,0.0,0.0,0.0,0.0,0.0,0.0,0.0,0.0,0.0,0.0,0.0,0.0,4.0034,4.03,4.1792,4.3542,4.5324,4.4895,4.5204,4.7111,4.8221,4.9279,5.0336,4.9742,4.9819,5.0934,5.1262,5.1405,5.1401,5.2007,5.2324,5.2246,5.3158,5.3633,5.358,5.3842,5.3998,5.3998,5.3998,5.3998,5.3998,5.3998,5.4076,5.4238,5.4551,5.5,5.5481,5.5794,5.5989,5.6126,5.6465,5.6609,5.6628,5.6719,5.7109,5.7648,5.8273,5.8828,5.9207,5.9207,5.9207,5.9207,5.9207,5.9207,5.9207,5.9207,5.9207,5.9207,5.9207,5.9207,5.9207,5.9207,5.9746,6.0255,6.0372,6.1015,6.1572,6.1689,6.1719,6.1864,6.235,6.2417,6.2591,6.3006,6.3479,6.3653,6.3382,6.3892,6.4315,6.4487,6.466,6.4926,6.5383,6.5383,6.5383,6.5383,6.5383,6.5383,6.5383,6.5383,6.5383,6.5383,6.5383,6.5383,6.5383,6.5383,6.5383,0.0,0.0,0.0,4.1178,0.0,0.0,0.0,0.0,3.7877,0.0,0.0,0.0,0.0,0.0,0.0,0.0,0.0,0.0,0.0,3.822,3.8887,4.1972,4.386,4.5771,4.8036,4.6318,4.6719,5.0681,4.8581,4.8377,5.1317,5.1491,5.1473,5.1401,5.144,5.1831,5.2676,5.2734,5.3158,5.3978,5.3998,5.3998,5.3998,5.3998,5.3998,5.3998,5.3998,5.4277,5.4694,5.4694,5.5176,5.5891,5.5891,5.6165,5.6562,5.6582,5.6609,5.6667,5.7051,5.7746,5.8449,5.8507,5.8828,5.9207,5.9207,5.9207,5.9207,5.9207,5.9207,5.9207,5.9207,5.9207,5.9207,5.9207,5.9207,5.9207,5.9207,5.9531,5.9922,6.0314,6.0801,6.125,6.1631,6.1719,6.1719,6.1719,6.1719,6.1748,6.1767,6.1796,6.2039,6.2669,6.3257,6.3875,6.4459,6.504,6.5383,6.5383,6.5383,6.5383,6.5383,6.5383,6.5383,6.5383,6.5383,6.5383,6.5383,6.5383,6.5383,6.5383,6.5383,6.5383,4.7568,4.736,4.6537,4.3623,4.178,3.9974,0.0,0.0,0.0,0.0,0.0,0.0,0.0,0.0,0.0,0.0,0.0,0.0,0.0,3.7425,3.7662,3.9347,4.1142,4.2355,4.2583,4.3519,4.4898,4.6821,4.6145,4.687,4.9614,5.0046,5.0553,5.1382,5.1719,5.2129,5.2695,5.3013,5.3306,5.3619,5.3861,5.3998,5.3998,5.3998,5.3998,5.3998,5.3998,5.4277,5.4733,5.498,5.5403,5.593,5.625,5.6445,5.6609,5.6609,5.6609,5.668,5.7429,5.8027,5.8566,5.8859,5.9062,5.9207,5.9207,5.9207,5.9207,5.9207,5.9207,5.9207,5.9207,5.9207,5.9207,5.9207,5.9207,5.9207,5.9207,5.9531,5.9922,6.0314,6.0801,6.124,6.1631,6.1719,6.1719,6.1719,6.1719,6.1864,6.2291,6.2369,6.2466,6.2669,6.3257,6.3508,6.3335,6.422,6.4975,6.5383,6.5383,6.5383,6.5383,6.5383,6.5383,6.5383,6.5383,6.5383,6.5383,6.5383,6.5383,6.5383,6.5383,6.5383,4.9075,4.907,4.8535,4.6045,4.4632,4.3011,3.987,4.0366,4.1211,0.0,0.0,0.0,0.0,0.0,0.0,0.0,0.0,0.0,0.0,3.6887,3.7094,3.7856,0.0,0.0,0.0,4.1658,4.3034,4.5027,4.46,4.5408,4.8075,4.9226,5.0134,5.0957,5.1699,5.2363,5.293,5.3248,5.3463,5.3619,5.3887,5.3998,5.3998,5.3998,5.3998,5.4017,5.4173,5.4512,5.4941,5.5351,5.5755,5.6165,5.6465,5.6609,5.6609,5.6609,5.668,5.6894,5.7468,5.7937,5.8359,5.88,5.8945,5.8976,5.9149,5.9207,5.9207,5.9207,5.9207,5.9207,5.9207,5.9207,5.9207,5.9207,5.9207,5.9207,5.9207,5.9531,5.9922,6.0314,6.0801,6.124,6.1631,6.1719,6.1719,6.1719,6.1719,6.1864,6.2291,6.232,6.232,6.232,6.291,6.3306,6.3335,6.4048,6.4754,6.5355,6.5383,6.5383,6.5383,6.5383,6.5383,6.5383,6.5383,6.5383,6.5383,6.5383,6.5383,6.5383,6.5383,6.5383]},{"header":{"parameterUnit":"m.s-1","parameterCategory":1,"la1":30.6,"la2":29.2853,"lo1":-89.7004,"lo2":-87.6739,"dy":0.0162,"dx":0.0183,"nx":112,"ny":82,"refTime":"2026-04-04T00:00:00:Z","depth":0,"parameterNumber":3,"parameterNumberName":"V-component_of_WINDS"},"data":[0.0,0.0,0.0,0.0,0.0,0.0,0.0,0.0,0.0,0.0,0.0,0.0,0.0,0.0,0.0,0.0,0.0,0.0,0.0,0.0,0.0,0.0,0.0,0.0,0.0,0.0,0.0,0.0,0.0,0.0,0.0,0.0,0.0,0.0,0.0,0.0,0.0,0.0,0.0,0.0,0.0,0.0,0.0,0.0,0.0,0.0,0.0,0.0,0.0,0.0,0.0,0.0,0.0,0.0,0.0,0.0,0.0,0.0,0.0,0.0,0.0,0.0,0.0,0.0,0.0,0.0,0.0,0.0,0.0,0.0,0.0,0.0,0.0,0.0,0.0,0.0,0.0,0.0,0.0,0.0,0.0,0.0,0.0,0.0,0.0,0.0,0.0,0.0,0.0,0.0,0.0,4.2469,4.5147,4.6598,4.6069,4.5151,4.309,3.9567,0.0,0.0,0.0,0.0,0.0,0.0,0.0,0.0,0.0,0.0,0.0,0.0,0.0,0.0,0.0,0.0,0.0,0.0,0.0,0.0,0.0,0.0,0.0,0.0,0.0,0.0,0.0,0.0,0.0,0.0,0.0,0.0,0.0,0.0,0.0,0.0,0.0,0.0,0.0,0.0,0.0,0.0,0.0,0.0,0.0,0.0,0.0,0.0,0.0,0.0,0.0,0.0,0.0,0.0,0.0,0.0,0.0,0.0,0.0,0.0,0.0,0.0,0.0,0.0,0.0,0.0,0.0,0.0,0.0,0.0,0.0,0.0,0.0,0.0,0.0,0.0,0.0,0.0,0.0,0.0,0.0,0.0,0.0,0.0,0.0,0.0,0.0,0.0,0.0,0.0,0.0,0.0,0.0,0.0,0.0,0.0,0.0,0.0,0.0,0.0,0.0,0.0,0.0,0.0,4.0234,4.4832,4.6203,4.6772,4.6685,4.4589,4.2335,4.0089,0.0,0.0,0.0,0.0,0.0,0.0,0.0,0.0,0.0,0.0,0.0,0.0,0.0,0.0,0.0,0.0,0.0,0.0,0.0,0.0,0.0,0.0,0.0,0.0,0.0,0.0,0.0,0.0,0.0,0.0,0.0,0.0,0.0,0.0,0.0,0.0,0.0,0.0,0.0,0.0,0.0,0.0,0.0,0.0,0.0,0.0,0.0,0.0,0.0,0.0,0.0,0.0,0.0,0.0,0.0,0.0,0.0,0.0,0.0,0.0,0.0,0.0,0.0,0.0,0.0,0.0,0.0,0.0,0.0,0.0,0.0,0.0,0.0,0.0,0.0,0.0,0.0,0.0,0.0,0.0,0.0,0.0,0.0,0.0,0.0,0.0,0.0,0.0,0.0,0.0,0.0,0.0,0.0,0.0,0.0,0.0,0.0,0.0,0.0,0.0,0.0,0.0,0.0,4.0321,4.2498,4.6928,4.7671,4.77,4.7375,4.5645,4.3293,4.0292,3.9538,0.0,0.0,0.0,0.0,0.0,0.0,0.0,0.0,0.0,0.0,0.0,0.0,0.0,0.0,0.0,0.0,0.0,0.0,0.0,0.0,0.0,0.0,0.0,0.0,0.0,0.0,0.0,0.0,0.0,0.0,0.0,0.0,0.0,0.0,0.0,0.0,0.0,0.0,0.0,0.0,0.0,0.0,0.0,0.0,0.0,0.0,0.0,0.0,0.0,0.0,0.0,0.0,0.0,0.0,0.0,0.0,0.0,0.0,0.0,0.0,0.0,0.0,0.0,0.0,0.0,0.0,0.0,0.0,0.0,0.0,0.0,0.0,0.0,0.0,0.0,0.0,0.0,0.0,0.0,0.0,0.0,0.0,0.0,0.0,0.0,0.0,0.0,0.0,0.0,0.0,0.0,0.0,0.0,0.0,0.0,0.0,0.0,0.0,0.0,0.0,0.0,0.0,4.367,4.5129,4.8368,4.8687,4.8467,4.7852,4.6197,4.3757,4.0331,3.9102,0.0,0.0,0.0,0.0,0.0,0.0,0.0,0.0,0.0,0.0,0.0,0.0,0.0,0.0,0.0,0.0,0.0,0.0,0.0,0.0,0.0,0.0,0.0,0.0,0.0,0.0,0.0,0.0,0.0,0.0,0.0,0.0,0.0,0.0,0.0,0.0,0.0,0.0,0.0,0.0,0.0,0.0,0.0,0.0,0.0,0.0,0.0,0.0,0.0,0.0,0.0,0.0,0.0,0.0,0.0,0.0,0.0,0.0,0.0,0.0,0.0,0.0,0.0,0.0,0.0,0.0,0.0,0.0,0.0,0.0,0.0,0.0,0.0,0.0,0.0,0.0,0.0,0.0,0.0,0.0,0.0,0.0,0.0,0.0,0.0,0.0,0.0,0.0,0.0,0.0,0.0,0.0,0.0,0.0,0.0,0.0,0.0,0.0,0.0,0.0,0.0,0.0,4.4364,4.7091,4.8542,4.8687,4.8467,4.7852,4.4977,4.2335,4.0234,3.7854,0.0,0.0,0.0,0.0,0.0,0.0,0.0,0.0,0.0,0.0,0.0,0.0,0.0,0.0,0.0,0.0,0.0,0.0,0.0,0.0,0.0,0.0,0.0,0.0,0.0,0.0,0.0,0.0,0.0,0.0,0.0,0.0,0.0,0.0,0.0,0.0,0.0,0.0,0.0,0.0,0.0,0.0,0.0,0.0,0.0,0.0,0.0,0.0,0.0,0.0,0.0,0.0,0.0,0.0,0.0,0.0,0.0,0.0,0.0,0.0,0.0,0.0,0.0,0.0,0.0,0.0,0.0,0.0,0.0,0.0,0.0,0.0,0.0,0.0,0.0,0.0,0.0,0.0,0.0,0.0,0.0,0.0,0.0,0.0,0.0,0.0,0.0,0.0,0.0,0.0,0.0,0.0,0.0,0.0,0.0,0.0,0.0,0.0,0.0,0.0,0.0,0.0,4.4356,4.7027,0.0,4.932,4.8926,4.7892,4.669,4.4309,4.036,0.0,0.0,0.0,0.0,0.0,0.0,0.0,0.0,0.0,0.0,0.0,0.0,0.0,0.0,0.0,0.0,0.0,0.0,0.0,0.0,0.0,0.0,0.0,0.0,0.0,0.0,0.0,0.0,0.0,0.0,0.0,0.0,0.0,0.0,0.0,0.0,0.0,0.0,0.0,0.0,0.0,0.0,0.0,0.0,0.0,0.0,0.0,0.0,0.0,0.0,0.0,0.0,0.0,0.0,0.0,0.0,0.0,0.0,0.0,0.0,0.0,0.0,0.0,0.0,0.0,0.0,0.0,0.0,0.0,0.0,0.0,0.0,0.0,0.0,0.0,0.0,0.0,0.0,0.0,0.0,0.0,0.0,0.0,0.0,0.0,0.0,0.0,0.0,0.0,0.0,0.0,0.0,0.0,0.0,0.0,0.0,0.0,0.0,0.0,0.0,0.0,0.0,4.1957,4.5151,4.7921,0.0,5.0291,4.9884,4.8822,4.7968,4.5547,4.1018,0.0,0.0,0.0,0.0,0.0,0.0,0.0,0.0,0.0,0.0,0.0,0.0,0.0,0.0,0.0,0.0,0.0,0.0,0.0,0.0,0.0,0.0,0.0,0.0,0.0,0.0,0.0,0.0,0.0,0.0,0.0,0.0,0.0,0.0,0.0,0.0,0.0,0.0,0.0,0.0,0.0,0.0,0.0,0.0,0.0,0.0,0.0,0.0,0.0,0.0,0.0,0.0,0.0,0.0,0.0,0.0,0.0,0.0,0.0,0.0,0.0,0.0,0.0,0.0,0.0,0.0,0.0,0.0,0.0,0.0,0.0,0.0,0.0,0.0,0.0,0.0,0.0,0.0,0.0,0.0,0.0,0.0,0.0,0.0,0.0,0.0,0.0,0.0,0.0,0.0,0.0,0.0,0.0,0.0,0.0,0.0,0.0,0.0,0.0,0.0,0.0,0.0,4.2673,4.6963,5.0233,5.1485,5.163,5.1369,5.0768,4.8321,4.5466,0.0,0.0,0.0,0.0,0.0,0.0,0.0,0.0,0.0,0.0,0.0,0.0,0.0,0.0,0.0,0.0,0.0,0.0,0.0,0.0,0.0,0.0,0.0,0.0,0.0,0.0,0.0,0.0,0.0,0.0,0.0,0.0,0.0,0.0,0.0,0.0,0.0,0.0,0.0,0.0,0.0,0.0,0.0,0.0,0.0,0.0,0.0,0.0,0.0,0.0,0.0,0.0,0.0,0.0,0.0,0.0,0.0,0.0,0.0,0.0,0.0,0.0,0.0,0.0,0.0,0.0,0.0,0.0,0.0,0.0,0.0,0.0,0.0,0.0,0.0,0.0,0.0,0.0,0.0,0.0,0.0,0.0,0.0,0.0,0.0,0.0,0.0,0.0,0.0,0.0,0.0,0.0,0.0,0.0,0.0,0.0,0.0,0.0,0.0,0.0,0.0,0.0,0.0,4.3438,4.8415,5.2033,5.2849,5.2572,5.2033,5.1381,4.9814,4.6922,4.2382,0.0,0.0,0.0,0.0,0.0,0.0,0.0,0.0,0.0,0.0,0.0,0.0,0.0,0.0,0.0,0.0,0.0,0.0,0.0,0.0,0.0,0.0,0.0,0.0,0.0,0.0,0.0,0.0,0.0,0.0,0.0,0.0,0.0,0.0,0.0,0.0,0.0,0.0,0.0,0.0,0.0,0.0,0.0,0.0,0.0,0.0,0.0,0.0,0.0,0.0,0.0,0.0,0.0,0.0,0.0,0.0,0.0,0.0,0.0,0.0,0.0,0.0,0.0,0.0,0.0,0.0,0.0,0.0,0.0,0.0,0.0,0.0,0.0,0.0,0.0,0.0,0.0,0.0,0.0,0.0,0.0,0.0,0.0,0.0,0.0,0.0,0.0,0.0,0.0,0.0,0.0,0.0,0.0,0.0,0.0,0.0,0.0,0.0,0.0,0.0,0.0,0.0,4.4454,4.9565,5.3297,5.4155,5.3936,5.3559,5.3139,5.1742,4.8897,4.4269,0.0,0.0,0.0,0.0,0.0,0.0,0.0,0.0,0.0,0.0,0.0,0.0,0.0,0.0,0.0,0.0,0.0,0.0,0.0,0.0,0.0,0.0,0.0,0.0,0.0,0.0,0.0,0.0,0.0,0.0,0.0,0.0,0.0,0.0,0.0,0.0,0.0,0.0,0.0,0.0,0.0,0.0,0.0,0.0,0.0,0.0,0.0,0.0,0.0,0.0,0.0,0.0,0.0,0.0,0.0,0.0,0.0,0.0,0.0,0.0,0.0,0.0,0.0,0.0,0.0,0.0,0.0,0.0,0.0,0.0,0.0,0.0,0.0,0.0,0.0,0.0,0.0,0.0,0.0,0.0,0.0,0.0,0.0,0.0,0.0,0.0,0.0,0.0,0.0,0.0,0.0,0.0,0.0,0.0,0.0,0.0,0.0,0.0,0.0,0.0,0.0,0.0,4.5674,5.0627,5.4329,5.5649,5.5662,5.5632,5.5632,5.387,5.1104,4.7218,0.0,0.0,0.0,0.0,0.0,0.0,0.0,0.0,0.0,0.0,0.0,0.0,0.0,0.0,0.0,0.0,0.0,0.0,0.0,0.0,0.0,0.0,0.0,0.0,0.0,0.0,0.0,0.0,0.0,0.0,0.0,0.0,0.0,0.0,0.0,0.0,0.0,0.0,0.0,0.0,0.0,0.0,0.0,0.0,0.0,0.0,0.0,0.0,0.0,0.0,0.0,0.0,0.0,0.0,0.0,0.0,0.0,0.0,0.0,0.0,4.654,4.4316,0.0,0.0,0.0,0.0,0.0,0.0,0.0,0.0,0.0,0.0,0.0,0.0,0.0,0.0,0.0,0.0,0.0,0.0,0.0,0.0,0.0,0.0,0.0,0.0,0.0,0.0,0.0,0.0,0.0,0.0,0.0,0.0,0.0,0.0,0.0,0.0,0.0,0.0,0.0,0.0,4.7039,5.2717,5.7013,5.8348,5.7747,5.7288,5.7288,5.5294,5.2351,4.8451,4.5039,0.0,0.0,0.0,0.0,0.0,0.0,0.0,0.0,0.0,0.0,0.0,0.0,0.0,0.0,0.0,0.0,0.0,0.0,0.0,0.0,0.0,0.0,0.0,0.0,0.0,0.0,0.0,0.0,0.0,0.0,0.0,0.0,0.0,0.0,0.0,0.0,0.0,0.0,0.0,0.0,0.0,0.0,0.0,0.0,0.0,0.0,0.0,0.0,0.0,0.0,0.0,0.0,0.0,0.0,0.0,0.0,0.0,0.0,0.0,5.0486,4.8176,0.0,0.0,0.0,0.0,0.0,0.0,0.0,0.0,0.0,0.0,0.0,0.0,0.0,0.0,0.0,0.0,0.0,0.0,0.0,0.0,0.0,0.0,0.0,0.0,0.0,0.0,0.0,0.0,0.0,0.0,0.0,0.0,0.0,0.0,0.0,0.0,0.0,0.0,0.0,0.0,4.8553,5.413,5.8278,5.958,5.9269,5.881,5.8487,5.6814,5.4385,5.1092,4.7266,0.0,0.0,0.0,0.0,0.0,0.0,0.0,0.0,0.0,0.0,0.0,0.0,0.0,0.0,0.0,0.0,0.0,0.0,0.0,0.0,0.0,0.0,0.0,0.0,0.0,0.0,0.0,0.0,0.0,0.0,0.0,0.0,0.0,0.0,0.0,0.0,0.0,0.0,0.0,0.0,0.0,0.0,0.0,0.0,0.0,0.0,0.0,0.0,0.0,0.0,0.0,0.0,0.0,5.5277,5.6381,5.7678,5.8477,5.8563,5.7952,5.5506,5.3328,5.1365,4.9308,0.0,0.0,0.0,0.0,0.0,0.0,0.0,0.0,0.0,0.0,0.0,0.0,0.0,0.0,0.0,0.0,0.0,0.0,0.0,0.0,0.0,0.0,5.0759,5.1162,5.2044,5.1312,4.5918,0.0,0.0,0.0,0.0,0.0,0.0,0.0,0.0,0.0,0.0,0.0,5.0284,5.5476,5.9255,6.042,6.0463,6.0211,5.9664,5.839,5.6597,5.4213,5.0035,4.673,0.0,0.0,0.0,0.0,0.0,0.0,0.0,0.0,0.0,0.0,0.0,0.0,0.0,0.0,0.0,0.0,0.0,0.0,0.0,0.0,0.0,0.0,0.0,0.0,0.0,0.0,0.0,0.0,0.0,0.0,0.0,0.0,4.81,4.5857,0.0,0.0,0.0,0.0,0.0,0.0,0.0,0.0,0.0,0.0,0.0,0.0,0.0,5.34,5.372,5.7977,5.9276,5.771,6.2275,6.3819,6.271,6.4232,6.49,6.487,6.5532,0.0,5.4807,5.5039,0.0,0.0,0.0,0.0,0.0,0.0,0.0,0.0,0.0,0.0,0.0,0.0,0.0,0.0,0.0,0.0,0.0,0.0,0.0,0.0,0.0,0.0,5.8219,5.7722,5.749,5.7048,5.5689,4.9985,4.478,4.3621,4.235,0.0,0.0,0.0,0.0,0.0,0.0,0.0,5.2547,5.7587,6.1084,6.1792,6.1596,6.1369,6.128,5.9795,5.8214,5.6704,5.3388,5.0271,4.7562,4.4121,0.0,0.0,0.0,0.0,0.0,0.0,0.0,0.0,0.0,0.0,0.0,0.0,0.0,0.0,0.0,0.0,0.0,0.0,0.0,0.0,0.0,0.0,0.0,0.0,0.0,0.0,0.0,0.0,0.0,4.8775,5.0526,4.8026,4.9454,4.9351,0.0,0.0,0.0,0.0,0.0,0.0,0.0,0.0,0.0,5.7214,5.7245,5.8448,6.0984,6.3437,6.4715,6.4839,6.7519,6.8409,6.773,6.8805,6.9123,6.8857,6.9755,6.784,6.3858,6.0706,5.7369,5.4097,0.0,0.0,0.0,0.0,5.1978,5.2314,5.4851,5.5461,5.5084,5.4575,0.0,0.0,0.0,0.0,0.0,0.0,0.0,5.1803,5.4326,5.7518,6.038,6.1513,6.1365,6.0935,6.067,5.6799,5.2191,0.0,4.7134,4.5594,4.1047,0.0,0.0,0.0,0.0,5.2069,5.495,5.905,6.1944,6.2598,6.2536,6.2294,6.1892,6.1213,6.0057,5.8321,5.6166,5.3915,5.1589,4.8227,4.5301,0.0,0.0,0.0,0.0,0.0,0.0,0.0,0.0,0.0,0.0,0.0,0.0,0.0,0.0,0.0,0.0,0.0,0.0,0.0,0.0,0.0,0.0,0.0,0.0,0.0,0.0,0.0,0.0,5.1643,5.3545,5.0678,5.2629,5.2507,0.0,0.0,0.0,0.0,0.0,0.0,5.5404,5.6087,5.8333,6.2367,6.216,6.371,6.7296,6.8025,6.8984,7.0185,7.1018,7.1377,7.1318,7.2011,7.2074,7.1689,7.2311,7.2188,7.1099,6.5572,6.1643,5.8853,5.6489,5.5147,5.4754,5.6388,5.6971,5.7496,6.1201,6.2135,6.1522,6.0399,5.862,5.6298,5.3211,0.0,0.0,0.0,0.0,5.4449,5.8292,6.0356,6.1996,6.4391,6.4407,6.389,6.4068,6.2186,5.8813,0.0,5.2285,5.0583,4.4881,0.0,0.0,0.0,0.0,5.4691,5.7319,6.0408,6.2555,6.3048,6.3108,6.2884,6.2405,6.2181,6.1463,5.9967,5.8441,5.6885,5.5256,5.2216,4.9479,4.7111,0.0,0.0,0.0,0.0,0.0,0.0,0.0,0.0,0.0,0.0,0.0,0.0,0.0,0.0,0.0,0.0,0.0,0.0,0.0,0.0,0.0,0.0,0.0,0.0,0.0,0.0,0.0,0.0,0.0,5.4194,5.8961,0.0,0.0,0.0,0.0,5.3308,5.675,5.9499,6.0742,6.3164,6.5731,6.8385,6.9064,6.9772,7.0644,7.1642,7.1685,7.085,7.2168,7.263,7.2357,7.335,7.3771,7.3771,7.4446,7.4168,7.2964,6.9224,6.7219,6.6275,6.4283,6.3148,6.2721,6.3444,6.3725,6.3932,6.5348,6.582,6.5997,6.7101,6.4505,6.0522,5.85,5.6606,0.0,0.0,5.7419,5.9398,6.1466,6.3209,6.4887,6.6862,6.6573,6.6026,6.6669,6.4502,6.1812,0.0,5.7434,5.518,5.2715,0.0,5.2013,5.2375,5.4485,5.6987,5.9608,6.1776,6.3063,6.3108,6.3108,6.3108,6.3048,6.2465,6.2076,6.1942,6.0086,5.8667,5.7935,5.5944,5.3329,5.0046,4.7818,0.0,0.0,0.0,0.0,0.0,0.0,0.0,0.0,0.0,0.0,0.0,0.0,0.0,0.0,0.0,0.0,0.0,0.0,0.0,0.0,0.0,0.0,0.0,0.0,0.0,0.0,0.0,0.0,5.9598,6.3986,0.0,5.9322,6.0752,6.1449,6.0047,6.3342,6.5832,6.6797,6.7749,6.9253,7.1394,7.1292,7.1917,7.3453,7.384,7.4049,7.4121,7.4599,7.4322,7.3383,7.4189,7.4317,7.3941,7.4616,7.4698,7.4219,7.252,7.0628,6.8769,6.7663,6.6587,6.5747,6.6396,6.6898,6.7355,6.8224,6.8831,6.8978,6.7752,6.6388,6.4691,6.1702,6.1208,6.1524,6.1145,6.1975,6.3415,6.5426,6.6038,6.6547,6.8083,6.7849,6.7463,6.8136,6.6773,6.5233,6.4531,6.1548,5.824,5.5496,5.6277,5.6782,5.5253,5.7503,5.9997,6.1806,6.3003,6.3692,6.3692,6.3692,6.3512,6.3123,6.2884,6.2375,6.1509,6.0761,5.9714,5.8145,5.7034,5.5491,5.3473,5.141,4.8197,0.0,0.0,0.0,0.0,0.0,0.0,0.0,0.0,0.0,0.0,0.0,0.0,0.0,0.0,0.0,0.0,0.0,0.0,0.0,0.0,0.0,0.0,0.0,0.0,0.0,6.2084,6.5963,6.4122,6.8595,7.0013,6.5287,6.7073,6.7997,6.6803,6.9066,7.0841,7.1615,7.1661,7.2372,7.3864,7.3672,7.418,7.5527,7.5527,7.5766,7.6198,7.6198,7.5736,7.4881,7.5347,7.5288,7.4899,7.5347,7.5425,7.5215,7.4749,7.3388,7.1511,7.0638,6.9778,6.9066,6.9748,7.0236,7.0681,7.1362,7.157,7.1244,6.9274,6.8498,6.7851,6.5273,6.5365,6.622,6.5605,6.586,6.6654,6.8002,6.8002,6.7956,6.9064,6.884,6.8451,6.8884,6.8286,6.7537,6.7104,6.4382,6.1445,5.9205,6.028,6.0669,5.8527,6.0416,6.2241,6.2704,6.3677,6.4231,6.4006,6.4216,6.4096,6.3452,6.3003,6.2361,6.1493,6.0372,5.9265,5.8145,5.7034,5.585,5.4563,5.2139,4.9045,4.5285,0.0,0.0,0.0,0.0,0.0,0.0,0.0,0.0,0.0,0.0,0.0,0.0,0.0,0.0,0.0,0.0,0.0,0.0,0.0,0.0,0.0,0.0,0.0,5.9801,6.5576,6.928,6.7664,7.2916,7.49,7.0349,7.2838,7.4319,7.3305,7.3781,7.4372,7.505,7.5106,7.5365,7.5985,7.6567,7.6861,7.6826,7.6826,7.6826,7.6826,7.6826,7.6808,7.6779,7.6779,7.6779,7.6779,7.6779,7.6467,7.5946,7.5946,7.5557,7.4826,7.3492,7.2937,7.2997,7.3672,7.3881,7.4001,7.4676,7.4031,7.2847,7.2176,7.1115,6.9947,6.9273,6.9064,6.9064,6.9034,6.9034,6.9034,6.9064,6.9034,6.9183,6.9858,6.9512,6.9034,6.9064,6.9034,6.8645,6.7313,6.5996,6.4874,6.4186,6.4036,6.3617,6.2361,6.3228,0.0,6.2361,6.3872,6.477,6.4066,6.459,6.471,6.4036,6.281,6.2061,6.2061,5.8949,5.7423,5.8025,5.6226,5.4593,5.3288,5.0044,4.741,4.5454,0.0,0.0,0.0,0.0,0.0,0.0,0.0,0.0,0.0,0.0,0.0,0.0,0.0,0.0,0.0,0.0,0.0,0.0,0.0,0.0,0.0,6.2431,6.5627,6.4498,6.9616,7.3564,7.3782,7.7678,7.9439,7.708,7.7771,7.824,7.7964,7.8176,7.8643,7.935,7.9388,7.8996,7.8155,7.8305,7.8109,7.7532,7.7514,7.7514,7.7514,7.7514,7.7275,7.6779,7.6779,7.6779,7.6779,7.6779,7.6706,7.6557,7.6557,7.6437,7.6138,7.4839,7.4031,7.3642,7.3821,7.3881,7.4001,7.4676,7.4646,7.4257,7.3569,7.2774,7.1906,7.0739,7.038,7.029,6.9858,6.9738,6.9828,7.026,6.9692,6.9273,7.038,7.0187,6.9842,7.029,7.0021,6.9468,6.8615,6.7762,6.6805,6.5652,6.5039,6.462,6.4261,6.45,0.0,6.4904,6.5398,6.5278,6.4126,6.4156,6.4006,6.3393,6.2151,6.1359,6.1359,5.9145,5.7679,5.7393,5.5957,5.5042,5.4653,5.1858,4.9901,0.0,0.0,0.0,0.0,0.0,0.0,0.0,0.0,0.0,0.0,0.0,0.0,0.0,0.0,0.0,0.0,0.0,0.0,0.0,0.0,0.0,0.0,6.7471,7.1272,7.1755,7.4708,7.7305,7.8464,8.1028,8.2519,8.1975,8.1964,8.2003,8.2003,8.1569,8.1597,8.2332,8.184,8.1273,8.07,8.0666,8.0178,7.9105,7.9118,7.88,7.822,7.822,7.8011,7.7634,7.7634,7.7634,7.7634,7.7634,7.7484,7.7215,7.7215,7.7065,7.6736,0.0,0.0,0.0,0.0,7.4941,7.4779,7.5168,7.4946,7.4407,7.4048,7.3462,7.2757,7.195,7.1757,7.165,7.1308,7.1218,7.1308,7.1667,7.0979,7.038,7.1128,7.0829,7.038,7.05,7.044,7.0081,6.9183,6.89,0.0,6.7448,6.649,6.5637,6.5084,6.5488,6.5667,6.5233,6.5892,6.6011,6.4964,6.5084,6.4994,6.438,6.2839,0.0,0.0,0.0,5.7141,5.5927,5.4892,0.0,0.0,0.0,0.0,0.0,0.0,0.0,0.0,4.8745,4.86,0.0,0.0,0.0,0.0,0.0,0.0,0.0,0.0,0.0,0.0,0.0,0.0,0.0,0.0,0.0,0.0,7.225,7.6668,7.959,8.004,8.0584,8.1889,8.3281,8.4374,8.5022,8.5088,8.5121,8.5235,8.4135,8.3762,8.4413,8.3338,0.0,0.0,0.0,8.2541,8.1169,8.1152,8.0509,7.9279,7.9279,7.9279,7.9279,7.9279,7.919,7.9046,7.9207,7.8859,7.8158,7.8335,7.8026,7.7449,7.6979,7.6779,7.6779,7.6779,7.6467,7.5988,7.5988,0.0,0.0,7.4121,7.3612,7.2997,7.2997,7.2967,7.2907,7.2907,7.2907,7.2907,7.2907,7.2445,7.2013,7.2013,7.1547,7.0949,7.0336,7.062,7.0649,6.9363,6.9588,6.9798,6.9123,6.7972,6.67,6.5518,6.6281,6.6356,6.4575,6.5907,6.67,6.5981,6.643,0.0,6.5936,6.4171,6.2854,6.2241,5.9142,5.6526,5.4718,5.4132,5.4144,5.4748,5.5329,5.597,5.6641,5.7167,5.7812,5.8427,5.2857,5.1929,0.0,0.0,0.0,0.0,0.0,0.0,0.0,0.0,0.0,0.0,0.0,0.0,0.0,0.0,0.0,7.0443,7.4907,7.8895,8.1856,8.277,8.3233,8.3546,8.4341,8.4923,8.5088,8.5088,8.5335,8.5946,8.574,8.5937,8.6648,8.6456,8.58,8.4728,8.468,8.4027,8.2591,8.2574,8.2473,8.2205,8.2205,0.0,8.2205,8.2205,8.1565,8.0561,8.17,8.1469,8.0382,8.1531,8.1924,8.1471,7.8118,7.6779,7.6779,7.6779,7.6736,7.6647,7.6647,7.6138,7.5527,7.5527,7.4689,7.3702,7.3702,7.3343,0.0,7.2907,7.2907,7.2907,7.2907,7.2787,7.2698,7.2698,7.2608,7.2309,7.1683,7.1623,7.1324,7.0037,6.9917,6.9798,6.9123,6.8331,6.7718,6.7463,6.7194,6.6864,6.646,6.6775,6.655,6.5323,6.5293,6.5323,6.5203,6.3901,6.3033,6.2914,6.0266,5.8308,5.7367,5.7739,5.8022,5.8141,5.8291,5.868,5.9352,5.9472,6.0146,6.1253,5.7932,5.7334,0.0,0.0,0.0,0.0,0.0,0.0,0.0,0.0,0.0,0.0,0.0,6.0937,6.3573,0.0,7.1456,7.5205,7.8563,8.1591,8.419,8.4885,8.5117,8.5117,8.5449,8.5813,8.6163,8.6196,8.6343,8.6708,8.6756,8.6921,8.7271,8.7319,8.7119,8.67,8.6684,8.618,8.5164,8.5147,8.4805,8.4112,8.4112,8.4112,8.4112,8.4112,8.3727,8.3085,8.3811,8.3711,8.3071,8.3416,8.3558,8.3345,8.1262,7.9805,7.8781,7.8038,7.7574,7.7305,7.7305,7.6886,7.6347,7.6347,7.5899,7.533,7.533,7.5121,7.4852,7.4852,7.4642,7.4403,7.4403,7.3894,7.3402,7.3402,7.3146,7.2817,7.2475,7.2385,7.2116,7.1145,7.0935,7.0755,7.0081,6.9439,6.887,6.8541,6.8211,6.7986,6.7986,6.7703,6.7254,6.658,6.6191,6.5996,6.5996,6.48,6.4066,6.4066,6.1882,6.0446,6.0116,6.0103,6.0252,6.0595,6.0938,6.1417,6.2046,6.2391,6.3079,6.4036,6.3019,6.257,0.0,0.0,0.0,0.0,0.0,0.0,0.0,0.0,5.862,6.0952,6.3419,6.6127,6.9175,7.2746,7.6304,7.9524,8.1743,8.3858,8.5927,8.6325,8.6424,8.6424,8.6524,8.684,8.7437,8.7635,8.7702,8.7702,8.7702,8.7702,8.7702,8.7702,8.7952,8.85,8.85,8.8244,8.7707,8.7707,8.7131,8.6006,8.6006,8.6006,8.6006,8.6006,8.5857,8.5608,8.5608,8.5757,8.5974,8.5383,8.5111,8.5095,8.4815,8.3654,8.1934,8.0234,7.9195,7.857,7.8297,7.7664,7.6988,7.6988,7.6916,7.6779,7.6779,7.6779,7.6779,7.6779,7.6467,7.6078,7.6078,7.5288,7.448,7.448,7.3954,7.3445,7.3326,7.3193,7.2894,7.2206,7.2102,7.1876,7.1218,7.0679,7.0097,6.9303,6.9093,6.9004,6.9004,6.8541,6.8197,6.8197,6.7703,6.7403,6.7403,6.6281,6.5518,6.5398,6.3917,6.2989,6.2869,6.2466,6.257,6.3243,6.3782,6.435,6.4964,6.5518,6.6056,6.6595,6.7148,6.6729,5.0588,4.9945,5.1312,5.4508,5.5581,5.7233,0.0,0.0,6.5058,6.8016,7.0933,7.3276,7.4324,7.6974,7.9557,8.1293,8.285,8.4407,8.5993,8.6756,8.7186,8.7186,8.7687,8.8117,8.8169,8.8765,8.9162,8.9162,8.9162,8.9162,8.9162,8.9162,8.9195,8.9262,8.9295,8.9218,8.918,8.918,8.9086,8.8932,8.8932,8.8932,8.8932,8.8932,8.8244,8.7066,8.7066,8.777,8.8932,8.8833,8.88,8.8692,8.7417,8.6808,8.6257,8.3535,8.2104,8.1358,8.0026,7.8741,7.7694,7.7694,7.7305,7.6779,7.6779,7.6779,7.6779,7.6779,7.6749,7.6706,7.6706,7.6587,7.6497,7.6497,7.6018,7.5407,7.4796,7.4227,7.3582,7.2924,7.2787,7.2595,7.1893,7.1743,7.1294,7.0067,6.9363,6.9004,6.9004,6.8944,6.8884,6.8884,6.8824,6.8764,6.8764,6.8092,6.7403,6.6819,6.658,6.6191,6.5592,6.6071,6.6655,6.7329,6.7419,6.7762,6.8435,6.8525,6.8585,6.8675,6.8734,6.8391,5.49,5.5073,5.6382,5.8199,6.0765,6.3584,6.6387,6.813,6.988,7.2481,7.4635,7.6424,7.7583,7.9822,8.1842,0.0,8.4672,8.6277,8.7289,8.7687,8.7885,8.7885,8.815,8.8301,8.8301,8.8963,8.9394,8.9394,8.9394,8.9394,8.9394,8.9394,8.9593,9.0023,9.0056,9.0255,9.0668,9.0668,9.0668,9.0668,9.0668,9.0668,9.0668,9.0668,9.034,8.9806,8.9806,8.9907,9.0056,9.0056,9.0056,8.9962,8.9402,8.9429,8.9358,8.5642,8.41,8.3702,8.2689,8.1938,8.1399,8.0963,8.0653,8.0406,8.0406,8.0406,8.0219,7.9424,7.8907,7.8426,7.7594,7.7095,7.6779,7.6779,7.6617,7.6347,7.6066,7.5527,7.4869,7.418,7.3762,7.3283,7.2595,7.2475,7.2295,7.1757,7.0769,7.0111,7.0111,6.9782,6.9423,6.9034,6.9004,6.9153,6.9558,6.896,6.863,6.875,6.8391,6.8046,6.7747,6.8016,6.8301,6.8571,6.8571,6.8704,6.9004,6.9393,6.9752,7.0111,7.05,7.0739,5.7694,5.881,6.0428,6.1817,6.5367,6.8779,6.9751,7.182,7.4005,7.5807,7.7484,7.8994,8.0286,8.214,8.3811,8.4771,8.6395,8.7768,8.8235,8.8301,8.815,8.7753,8.7885,8.8018,8.8018,8.903,8.9791,8.999,9.0006,9.0006,9.0006,9.0006,9.0271,9.0785,9.0785,9.1066,9.1578,9.1611,9.1611,9.1611,9.1611,9.1611,9.1611,9.1611,9.1611,9.1611,9.1611,9.1313,9.0785,9.0785,9.0785,9.0785,9.0785,9.1132,9.1227,8.8117,8.6601,8.5947,8.5021,8.4554,8.4301,8.3779,8.3621,8.3621,8.3621,8.3621,8.3405,8.2362,8.1607,8.0825,7.9803,7.9038,7.8503,7.8503,7.8382,7.8139,7.7754,7.7184,7.6478,7.5583,7.5018,7.445,7.3612,7.3462,7.3343,7.2967,7.2069,7.1457,7.1457,7.0905,7.0426,7.0111,6.9901,7.0007,7.0486,7.026,7.0141,7.0247,7.0141,6.9991,6.9812,6.9991,7.0081,7.0081,7.0081,7.0081,7.0081,7.056,7.1009,7.1441,7.1936,7.2535,5.7608,5.9386,6.1893,6.5458,6.8594,7.1355,7.3521,7.5695,7.747,7.8232,8.0134,8.1889,8.2651,8.4028,8.55,8.6973,8.7786,8.8283,8.8301,8.8301,8.7786,8.6424,8.6888,8.7352,8.7352,8.9244,9.0752,9.1479,9.1545,9.1545,9.1545,9.1545,9.1545,9.1578,9.1578,9.1578,9.1611,9.1611,9.1611,9.1611,9.1611,9.1611,9.1611,9.1611,9.1611,9.1611,9.1611,9.1578,9.1578,9.1578,9.1578,9.1578,9.1578,9.1578,9.1562,9.1467,9.0089,8.8084,8.6644,8.5727,8.5157,8.5142,8.5126,8.5126,8.5126,8.5126,8.5126,8.5075,8.4536,8.3965,8.3932,8.3362,8.2792,8.2792,8.2352,8.1535,8.0102,7.9321,7.8485,7.7017,7.6719,7.6317,7.5065,7.4826,7.4407,7.3086,7.2877,7.2847,7.2847,7.2265,7.2086,7.2698,7.2206,7.1833,7.1833,7.2415,7.2249,7.0949,7.2069,7.2505,7.1833,7.2445,7.2787,7.2787,7.2787,7.2787,7.2787,7.2787,7.2817,7.2847,7.2847,7.3223,6.0245,6.3007,6.6176,6.9356,7.2337,7.492,7.6655,7.8,7.9226,8.0418,8.012,7.9855,8.0584,8.1525,8.2486,8.3494,8.6262,8.8467,8.8963,8.946,8.9228,8.7753,8.7819,0.0,0.0,8.8349,8.956,9.0801,9.0851,9.1099,9.1578,9.1611,9.1611,9.1611,9.1611,9.1611,9.1611,9.1611,9.1611,9.1611,9.1611,9.1611,9.1611,9.1611,9.1611,9.1611,9.1611,9.1611,9.1611,9.1611,9.1611,9.1611,9.1611,9.1611,9.1611,9.1611,9.1131,9.0393,8.9392,8.8906,8.8628,8.8156,8.7992,8.7992,8.7992,8.7992,8.7786,8.6856,8.6403,8.5786,8.3875,8.2862,8.2107,8.1126,8.1096,8.0898,7.947,7.9393,7.9192,7.7725,7.7095,7.6659,7.6228,7.6168,7.6018,7.557,7.4014,7.2907,7.2907,7.2698,7.2654,7.2877,7.2698,7.2565,7.2565,7.2757,7.2698,7.2265,7.2638,7.2787,7.2565,7.2787,7.2907,7.2907,7.2907,7.2907,7.2907,7.3343,7.3552,7.3582,7.448,7.5001,6.3316,6.6419,6.9554,7.2734,7.5119,7.7073,7.855,7.9458,8.0253,8.1208,7.9855,7.8649,7.9113,7.8742,7.922,8.179,8.454,8.709,8.9096,8.9361,8.9012,8.8051,8.7488,8.709,0.0,0.0,8.8647,9.0388,9.052,9.0818,9.1545,9.1611,9.1611,9.1611,9.1611,9.1611,9.1611,9.1611,9.1611,9.1611,9.1611,9.1611,9.1611,9.1876,9.1976,9.2009,9.2274,9.2406,9.2406,9.2406,9.2406,9.2373,9.2108,9.1976,9.1976,9.1711,9.1777,9.1876,9.1165,9.09,9.0801,9.0337,9.0204,9.0204,9.0204,9.0204,9.0002,8.9093,8.8659,8.8017,8.6173,8.5148,8.4424,8.3474,8.3591,8.3483,8.1811,8.1816,8.1646,7.9983,7.892,7.8191,7.7931,7.7737,7.7776,7.8247,7.6899,7.5374,7.4136,7.3745,7.3612,7.3612,7.3402,7.3266,7.3266,7.3931,7.423,7.4004,7.42,7.4351,7.4351,7.4091,7.3954,7.3954,7.4193,7.4283,7.4283,7.4732,7.4958,7.4958,7.5809,7.6228,6.6595,6.9455,7.2084,7.5549,7.7007,7.7967,7.9378,8.0186,8.0644,8.0644,7.9306,7.81,0.0,0.0,7.6019,8.1691,8.2883,8.4606,8.8864,8.8316,8.7437,0.0,0.0,0.0,0.0,0.0,8.8165,9.0288,9.0454,9.0785,9.1545,9.1611,9.1611,9.1611,9.1611,9.1611,9.1611,9.1611,9.1611,9.1611,9.1611,9.1611,9.1644,9.2373,9.2705,9.2738,9.3484,9.3782,9.3782,9.3782,9.3782,9.3716,9.3036,9.2738,9.2638,9.1976,9.2141,9.2605,9.1943,9.1677,9.1644,9.1611,9.1611,9.1611,9.1611,9.1611,9.1611,9.1611,9.1099,9.0538,9.046,8.9883,8.9338,8.9244,8.9274,8.8718,8.6607,8.6207,8.5631,8.3456,8.1951,8.0799,8.0151,7.9599,7.9652,8.0995,8.1187,7.9981,7.6611,7.5588,7.5215,7.5215,7.4645,7.4267,7.4267,7.6035,7.6838,7.6223,7.6777,7.7114,7.7114,7.6516,7.6171,7.6171,7.6724,7.7024,7.7024,7.7024,7.6989,7.6902,7.6932,7.6926,6.9157,7.2833,7.6112,7.757,7.8908,8.0101,8.1028,8.0518,7.9888,7.9888,7.6112,7.2846,7.2846,7.3144,7.4568,7.8199,8.295,0.0,8.9858,8.9924,0.0,8.8184,0.0,8.7157,8.6292,8.6855,0.0,8.956,8.9692,9.0222,9.1545,9.1611,9.1611,9.1611,9.1611,9.1611,9.1611,9.1611,9.1611,9.1611,9.1611,9.1611,9.1644,9.2373,9.2705,9.2738,9.3484,9.3782,9.3782,9.3782,9.3782,9.3782,9.3583,9.3186,9.2738,9.3102,9.3003,9.2738,9.3102,9.287,9.234,9.1777,9.1611,9.1611,9.1611,9.1611,9.1611,9.1611,9.1479,9.1079,8.9982,8.917,8.8392,8.7285,8.7438,8.7387,8.5799,8.6274,8.6389,8.425,8.3101,8.241,8.2238,8.2081,8.2088,8.2449,8.2514,8.1859,8.0011,7.9633,7.9508,7.9508,7.9368,7.9275,7.9275,7.9739,7.9964,7.9791,7.9932,8.0026,8.0026,7.9875,7.9773,7.9773,7.9929,8.0006,8.0006,8.0006,7.9461,7.843,7.8903,7.8543,7.2767,7.5781,7.8133,7.9193,8.0101,8.0479,7.9604,7.8762,7.7603,7.5682,7.1906,6.8958,6.8958,6.9654,7.1674,7.6179,8.1393,8.5979,8.9096,8.9526,8.9228,0.0,8.8301,0.0,8.7205,8.8084,8.9045,8.9825,8.9593,9.0039,9.1512,9.1611,9.1611,9.1611,9.1611,9.1611,9.1611,9.1611,9.1744,9.2075,9.2075,9.2241,9.2605,9.3334,9.3665,9.3716,9.4445,9.4776,9.4776,9.4776,9.4776,9.4743,9.4411,9.4014,9.3699,9.3749,9.3749,9.3699,9.3749,9.3749,9.35,9.244,9.1876,9.1611,9.1611,9.1611,9.1611,9.1611,9.1611,9.1406,9.0565,9.0323,8.9982,8.8846,8.9123,8.9281,8.7826,8.8163,8.8062,8.5919,8.5161,8.4793,8.4458,8.4666,8.5004,8.5259,8.5322,8.5047,8.4367,8.2669,8.1441,8.1124,8.1109,8.1109,8.1109,8.1649,8.198,8.198,8.198,8.198,8.198,8.1697,8.1535,8.1535,8.1788,8.1946,8.1946,8.2279,8.1996,8.1232,8.1917,8.1787,7.6477,7.8298,7.9358,8.0531,8.0909,8.02,7.7139,7.6146,7.4655,7.0394,6.7501,6.5834,6.6044,6.6408,6.8748,7.5251,7.9571,8.3612,8.797,8.8599,8.8632,8.8747,8.8632,8.8599,8.8599,8.9659,9.0388,9.0472,8.9924,9.0156,9.1545,9.1611,9.1644,9.1744,9.1843,9.1843,9.1744,9.1744,9.2009,9.2572,9.2638,9.3036,9.3683,9.4511,9.4908,9.4941,9.567,9.6001,9.6001,9.6001,9.6001,9.5935,9.5306,9.4975,9.4842,9.4279,9.4411,9.4809,9.4279,9.4445,9.4676,9.3285,9.2406,9.1876,9.1777,9.1744,9.1744,9.1644,9.1611,9.1611,9.1611,9.2075,9.2406,9.1744,9.2075,9.2192,9.0918,9.0586,8.9948,8.8095,8.7644,8.7384,8.6719,8.7157,8.778,8.8366,8.8367,8.8334,8.8433,8.5137,8.2605,8.2127,8.2063,8.2095,8.2191,8.3275,8.3953,8.3953,8.3953,8.3888,8.3775,8.332,8.3019,8.2907,8.3543,8.3845,8.3845,8.4498,8.4702,8.4552,8.4988,8.5088,7.7768,8.0186,8.2055,8.1691,8.2055,8.1591,7.8033,7.5384,0.0,6.876,6.4818,6.24,6.3614,6.5779,6.9344,7.5318,8.0432,8.5121,8.9526,9.0123,9.0321,0.0,9.0502,9.0123,9.0123,8.9791,8.9858,9.0454,9.0388,9.0686,9.1545,9.1611,9.1876,9.2506,9.3102,9.3135,9.2506,9.2506,9.2274,9.181,9.2406,9.2771,9.2937,9.4279,9.4908,9.4941,9.567,9.6001,9.6001,9.6001,9.6001,9.6001,9.5869,9.5438,9.4975,9.5438,9.5306,9.4975,9.5438,9.5306,9.4743,9.3881,9.3533,9.3301,9.2705,9.2506,9.2373,9.1777,9.1611,9.1611,9.1611,9.1677,9.1744,9.1644,9.1711,9.1711,9.1479,9.0933,9.0377,9.0028,8.9453,8.8991,8.8859,8.8958,8.9068,8.9198,8.8698,8.8533,8.9129,8.7542,8.656,8.7005,8.7038,8.7316,8.7908,8.8158,8.8329,8.8329,8.8329,8.8016,8.7437,8.7869,8.786,8.7235,8.7943,8.8305,8.8305,8.8437,8.7875,8.6711,8.5627,8.4511,7.9689,8.1525,8.2817,8.2453,8.2353,8.0863,7.5297,0.0,0.0,6.3659,6.0854,5.9728,6.0798,6.3372,6.6883,7.1587,7.5728,8.0266,8.5751,8.6877,8.7937,9.0204,9.0834,9.0933,9.0553,9.052,9.0701,9.1066,9.143,9.1794,9.2141,9.2539,9.2903,9.3252,9.3632,9.3616,9.3301,9.3268,9.3301,9.3318,9.3699,9.4047,9.4411,9.4743,9.4908,9.4908,9.5273,9.5438,9.5438,9.5438,9.567,9.5968,9.5571,9.5438,9.5505,9.5869,9.5538,9.4941,9.5306,9.5206,9.4776,9.4047,9.3782,9.3716,9.34,9.3268,9.3202,9.2837,9.2738,9.2671,9.2274,9.2473,9.2572,9.1777,9.1876,9.2174,9.2174,9.1894,9.1761,9.2159,9.1629,9.0999,9.0602,9.0867,9.0867,9.009,8.9659,8.956,8.9924,8.9045,8.8515,8.8831,8.8864,8.903,8.9361,8.9394,8.9394,8.9394,8.9394,8.9228,8.8897,8.9195,8.9228,8.8864,8.9228,8.9394,8.9394,9.0171,9.0193,8.9532,8.961,8.928,8.1393,8.2684,8.3347,8.3181,8.2453,7.9869,7.2581,6.95,6.622,5.9241,5.7684,5.7849,5.8734,6.1063,6.4078,6.7855,7.0924,7.5152,8.1724,8.3844,8.6063,8.9659,9.1264,0.0,9.1249,9.143,9.1611,9.1611,9.244,9.2937,9.2937,9.3616,9.4047,9.4047,9.4047,9.4047,9.4047,9.3881,9.4014,9.4411,9.4577,9.4875,9.5273,9.5008,9.4908,9.4908,9.5074,9.514,9.514,9.514,9.5471,9.5935,9.5372,9.5505,9.6001,9.6001,9.5637,9.514,9.514,9.514,9.5041,9.4445,9.4146,9.4014,9.3848,9.3782,9.3782,9.3782,9.3782,9.3649,9.3102,9.3367,9.3451,9.2141,9.2406,9.2903,9.2738,9.2837,9.3102,9.3683,9.3334,9.2705,9.1976,9.244,9.249,9.1183,9.0984,9.1017,9.1183,9.0553,9.0156,9.0321,8.9924,8.9692,8.9858,8.9858,8.9858,8.9858,8.9858,8.9791,8.9626,8.9791,8.9858,8.9858,9.0023,9.0189,9.0355,9.1496,9.2075,9.2093,9.2932,9.3331,8.2022,8.3844,8.4724,8.4076,8.285,7.9869,7.2581,0.0,6.5017,5.9032,5.7253,5.722,5.8644,6.0225,6.2698,6.6993,7.0184,7.4403,8.0962,8.4852,8.8331,9.1976,0.0,0.0,9.3484,9.234,9.1611,9.1611,9.2903,9.3683,9.3683,9.4411,9.4809,9.4809,9.4809,9.4809,9.4809,9.4113,9.3484,9.2903,9.3583,9.3599,9.3069,9.4312,9.4908,9.4941,9.5604,9.5902,9.5902,9.5902,9.5935,9.5985,9.5935,9.5935,9.6001,9.6001,9.5968,9.5902,9.5902,9.5902,9.5902,9.5836,9.5339,9.4676,9.3981,9.3782,9.3782,9.3782,9.3782,9.3782,9.3716,9.3749,9.3599,9.2804,9.3168,9.3533,9.2837,9.3235,9.3716,9.3782,9.3749,9.3451,9.2738,9.3202,9.3434,9.2623,9.2506,9.2738,9.3418,9.2854,9.2656,9.3318,9.158,9.0653,9.1346,9.1412,9.1412,9.1412,9.1412,9.1099,9.0421,9.1032,9.1412,9.1412,9.2075,9.2722,9.3384,9.3517,9.3599,9.3567,9.2367,9.1818,8.1989,8.4322,8.5581,8.4838,8.2883,7.9352,7.2448,6.8263,6.4189,5.8346,5.6888,5.6898,5.7485,5.8048,5.9463,6.2533,6.3626,6.6883,7.48,7.755,8.1393,8.8596,9.0072,9.1198,9.297,9.2208,9.1976,9.287,9.3451,9.3981,9.4445,9.5173,9.5571,9.5571,9.514,9.4908,9.4908,9.461,9.4312,9.4014,9.4776,9.4975,9.4676,9.4842,9.4908,9.4908,9.5206,9.5074,9.4676,9.4676,9.4676,9.4676,9.4676,9.4676,9.4776,9.567,9.5438,9.4743,9.5173,9.5339,9.5273,9.4809,9.4776,9.4941,9.5074,9.5107,9.5107,9.5107,9.5107,9.5008,9.4577,9.4113,9.3732,9.3418,9.3914,9.4378,9.408,9.4246,9.4577,9.5041,9.4776,9.4378,9.408,9.3881,9.3683,9.3434,9.3003,9.297,9.3716,9.355,9.3451,9.3749,9.302,9.2623,9.2903,9.2937,9.2937,9.2937,9.2937,9.2788,9.249,9.2755,9.2937,9.2937,9.3219,9.35,9.3782,9.4246,9.4445,9.4462,9.4321,9.4255,8.1989,8.4687,8.6093,8.5567,8.2718,7.8444,7.2283,6.7744,6.3239,5.7816,5.669,5.669,5.669,5.669,5.7352,5.9363,5.997,6.2819,7.0295,7.2912,7.6854,8.4455,8.613,8.7852,9.0816,9.1412,9.2208,9.3683,9.3782,9.4113,9.4842,9.5405,9.567,9.567,9.4743,9.4445,9.4908,9.4478,9.4345,9.4577,9.4875,9.514,9.5339,9.4809,9.4577,9.461,9.5041,9.4676,9.3815,9.4047,9.3981,9.3815,9.4047,9.3981,9.3948,9.5206,9.5008,9.4179,9.471,9.5041,9.514,9.461,9.4809,9.5339,9.5836,9.5869,9.5736,9.5935,9.6167,9.62,9.5703,9.5339,9.5057,9.4842,9.5339,9.5803,9.5604,9.5703,9.6035,9.6532,9.6233,9.5819,9.5604,9.5306,9.4958,9.4511,9.4179,9.4113,9.4411,9.4445,9.4445,9.4445,9.4445,9.4279,9.3848,9.3782,9.3782,9.3782,9.3782,9.3782,9.3782,9.3782,9.3881,9.4113,9.4113,9.4345,9.4776,9.5074,9.5438,9.5869,9.62,9.6333,8.2221,8.5084,8.6192,8.6192,8.232,7.7172,7.2084,6.6961,6.2068,5.7627,5.669,5.669,5.669,5.669,5.7187,5.8668,6.1361,6.4785,6.9214,7.3541,7.7384,8.0412,8.2055,8.4109,8.7072,8.9921,9.2208,9.3683,9.3782,9.4113,9.4842,9.4908,9.4908,9.4908,9.35,9.3418,9.4875,9.3451,9.3102,9.3782,9.3069,9.3135,9.3815,9.3815,9.3815,9.3881,9.5339,9.5173,9.3848,9.4577,9.4445,9.3881,9.461,9.4445,9.3881,9.4643,9.4908,9.4875,9.4908,9.5372,9.6001,9.6001,9.6001,9.6001,9.6001,9.5505,9.5074,9.5803,9.6532,9.7078,9.7078,9.7592,9.7973,9.7227,9.7625,9.7973,9.7227,9.7658,9.8188,9.8188,9.8188,9.794,9.7194,9.7674,9.7641,9.62,9.6581,9.678,9.6068,9.6001,9.6001,9.6001,9.6001,9.5405,9.3914,9.3782,9.3782,9.3782,9.3782,9.3782,9.3782,9.3782,9.4146,9.4875,9.4875,9.5604,9.7045,9.6316,9.673,9.8155,9.7426,9.7078,7.4833,7.7947,7.9836,7.8372,7.6006,7.2833,6.8196,6.4774,6.1448,5.7528,5.669,5.669,5.669,5.669,5.7849,6.1339,6.2266,6.4255,6.9114,7.1852,7.4986,7.9425,8.4757,8.8647,9.0087,9.1048,9.2208,9.3683,9.3334,9.3351,9.4113,9.3649,9.3616,9.4113,9.3202,9.2937,9.3384,9.2937,9.2837,9.3069,9.3815,9.4312,9.4577,9.5074,9.5306,9.5306,9.5273,9.4975,9.4544,9.4246,9.4014,9.3881,9.461,9.4445,9.3948,9.5206,9.5339,9.4975,9.5471,9.5803,9.6001,9.6001,9.6001,9.6001,9.6001,9.5836,9.5703,9.5935,9.6167,9.6366,9.6366,9.6896,9.7393,9.7161,9.7658,9.8138,9.7906,9.8039,9.8221,9.8221,9.8221,9.8122,9.7873,9.7625,9.7459,9.7509,9.726,9.7194,9.7476,9.7062,9.6747,9.6747,9.63,9.5803,9.5339,9.5306,9.5505,9.6035,9.6068,9.6266,9.678,9.6813,9.6912,9.7144,9.7144,9.7376,9.784,9.7608,9.7741,9.8188,9.7973,9.7558,7.0726,7.4038,7.5927,7.4892,7.2659,6.9798,6.6209,6.3305,6.0467,5.7362,5.669,5.669,5.669,5.669,5.7684,6.0742,6.1769,6.3493,6.7214,6.9964,7.3463,7.8583,8.4426,8.8581,8.9855,9.0949,9.2108,9.3285,9.297,9.2903,9.3367,9.297,9.2771,9.297,9.2539,9.2406,9.2705,9.2406,9.2406,9.2705,9.3367,9.3948,9.4478,9.4676,9.4908,9.5173,9.4975,9.4743,0.0,9.4279,9.4047,9.3881,9.461,9.4445,9.3948,9.514,9.5306,9.4975,9.5438,9.577,9.6001,9.6001,9.6001,9.6001,9.6001,9.6001,9.6001,9.6001,9.62,9.6432,9.6432,9.6962,9.7525,9.7525,9.7873,9.8221,9.8221,9.8221,9.8221,9.8221,9.842,9.8553,9.8254,9.8039,9.7989,9.8171,9.7807,9.7658,9.8138,9.7807,9.7525,9.7525,9.7095,9.683,9.683,9.6565,9.673,9.7459,9.7525,9.7741,9.8188,9.8221,9.8221,9.8221,9.8221,9.8354,9.8619,9.8867,9.8867,9.8619,9.8321,9.794,0.0,7.2196,7.3467,7.3997,7.1069,6.7524,6.5348,6.2268,0.0,5.712,5.669,5.6732,5.6766,5.6732,5.7021,5.8015,6.0477,6.2797,6.4321,6.8473,7.331,7.8497,8.224,8.5235,8.7403,9.0021,9.1909,9.2638,9.2638,9.2638,9.2705,9.2638,9.2307,9.1611,9.1611,9.1943,9.2638,9.1943,9.1943,9.2605,9.1976,9.2406,9.3683,9.3135,9.3219,9.3914,9.461,9.4544,9.4014,9.4643,9.4511,9.4014,9.471,9.4544,9.4047,9.4743,9.4975,9.4975,9.4975,9.5438,9.6001,9.6001,9.6001,9.6001,9.6001,9.6001,9.6001,9.6001,9.6498,9.7012,9.7012,9.7575,9.8105,9.8105,9.8155,9.8221,9.8221,9.8221,9.8221,9.8221,9.8735,9.9,9.8321,9.8785,9.8967,9.8304,9.8221,9.8221,9.8221,9.8138,9.8138,9.8188,9.8122,9.8122,9.8254,9.7592,9.7492,9.8221,9.8288,9.8321,9.8337,9.8337,9.8337,9.8337,9.8337,9.8685,9.9364,10.001,9.9977,9.9364,9.8668,9.8321,6.1251,0.0,6.4663,6.3117,6.2422,6.1616,0.0,5.8943,5.8015,5.6922,5.669,5.6855,5.7452,5.7087,5.7859,6.1438,6.2598,6.3923,6.6474,7.2039,7.8199,8.4488,8.6958,8.878,9.0418,9.1214,9.1909,9.2638,9.2174,9.2108,9.2671,9.2174,9.1777,9.1611,9.1611,9.1677,9.1843,9.1677,9.1677,9.1876,9.2241,9.2638,9.2987,9.3948,9.4478,9.4643,9.4809,9.5107,9.5438,9.5074,9.514,9.5505,9.567,9.5637,9.5505,9.567,9.5736,9.5736,9.5736,9.5869,9.6001,9.6001,9.6001,9.6001,9.6001,9.6001,9.6001,9.6001,9.6134,9.6266,9.6266,9.6797,9.736,9.736,9.7807,9.8221,9.8221,9.8221,9.8221,9.8221,9.8354,9.842,9.8221,9.8354,9.842,9.8221,9.8221,9.8221,9.8221,9.7708,9.7558,9.8138,9.7177,9.7194,9.89,9.837,9.8238,9.9,9.9033,9.9265,9.9778,9.9811,9.9811,9.9811,9.9811,9.991,10.0109,10.0192,10.0192,10.0093,9.9877,9.9513,5.7674,5.9506,6.0964,6.0125,5.996,5.9694,5.8568,5.8048,5.7584,5.6855,5.669,5.6822,5.722,5.7253,5.7982,6.0411,6.1902,6.4619,6.9898,7.5119,8.0617,8.6575,8.8548,8.9972,9.1446,9.1611,9.1777,9.2174,9.1843,9.1777,9.2174,9.181,9.1611,9.1611,9.1611,9.1611,9.1611,9.1611,9.1611,9.1611,9.2009,9.2208,9.2241,9.3351,9.408,9.4411,9.4743,9.5339,9.5968,9.5571,9.5637,9.6001,9.6001,9.6001,9.6001,9.6001,9.6001,9.6001,9.6001,9.6001,9.6001,9.6001,9.6001,9.6001,9.6001,9.6001,9.6001,9.6001,9.6001,9.6101,9.6416,9.678,9.7078,9.7078,9.7393,9.7708,9.7708,9.7708,9.7906,9.8569,9.8702,9.8702,9.8702,9.8702,9.8702,9.8702,9.8702,9.8801,9.9132,9.8817,9.8718,9.9115,9.8453,9.8453,9.9645,9.938,9.9314,9.9712,9.9745,10.0093,10.0805,10.0507,10.0291,10.0291,10.0291,10.0291,10.0291,10.0605,10.0788,10.0788,10.0788,10.0589,5.6779,5.8502,6.0059,6.0347,6.0049,5.9463,5.8734,5.8081,5.7452,5.6822,0.0,5.6766,5.6988,5.765,5.828,5.8744,6.1461,6.6243,7.4097,7.8047,8.2008,8.7171,8.8945,9.0237,9.1479,9.1611,9.1611,9.1611,9.1611,9.1611,9.1611,9.1611,9.1611,9.1611,9.1611,9.1611,9.1611,9.1611,9.1611,9.1611,9.1611,9.1644,9.1777,9.2539,9.3268,9.3981,9.4643,9.5339,9.6001,9.5869,9.5902,9.6001,9.6001,9.6001,9.6001,9.6001,9.6001,9.6001,9.6001,9.6001,9.6001,9.6001,9.6001,9.6001,9.6001,9.6001,9.6001,9.6001,9.6101,9.6316,9.6946,9.7177,9.726,9.726,9.726,9.726,9.726,9.726,9.7625,9.89,9.9132,9.9099,9.8967,9.8967,9.8967,9.8967,9.8967,9.9265,9.9993,9.9993,10.0109,10.0308,10.0092,10.0092,10.039,10.0308,10.0308,10.0589,10.049,10.0788,10.1499,10.1004,10.0589,10.0589,10.0589,10.0589,10.0589,10.1202,10.1384,10.1384,10.1384,10.1384,5.8038,5.9264,5.9595,5.7816,5.775,5.7949,5.722,5.6955,5.6822,5.6732,5.669,5.7087,5.8336,5.9164,6.049,6.2985,6.6861,7.1931,7.8756,8.1274,8.4308,8.9394,9.0767,9.1346,9.1578,9.1611,9.1611,9.1611,9.1611,9.1611,9.1611,9.1611,9.1611,9.1611,9.1611,9.1611,9.1611,9.1611,9.1611,9.1611,9.1611,9.1943,9.2572,9.3285,9.4014,9.4743,9.4842,9.5339,9.5968,9.5339,9.5438,9.6001,9.6001,9.6001,9.6001,9.6001,9.6001,9.6001,9.6001,9.6001,9.6001,9.6001,9.6001,9.6001,9.6001,9.6001,9.6001,9.6001,9.6449,9.6946,9.7078,9.7558,9.8039,9.8039,9.8039,9.8039,9.8039,9.8039,9.8105,9.8321,9.8387,9.8171,9.7558,9.7459,9.7459,9.7459,9.7459,9.7923,9.9265,9.89,9.9,10.0209,9.9215,9.9265,10.1103,10.0109,10.0209,10.1996,10.1583,10.16,10.2311,10.2194,10.2179,10.2179,10.2179,10.2179,10.2196,10.1598,10.1384,10.1384,10.1384,10.1384,5.6339,5.7342,5.8247,5.8436,5.9032,5.9396,5.8634,5.8171,5.7882,5.7882,5.7882,5.8204,5.9297,6.1053,6.3714,6.7844,7.1488,7.5562,8.0611,8.3262,8.613,9.0056,9.1165,9.1611,9.1611,9.1611,9.1611,9.1611,9.1611,9.1611,9.1611,9.1611,9.1611,9.1611,9.1611,9.1611,9.1611,9.1611,9.1611,9.1611,9.1611,9.1976,9.2738,9.3451,9.3981,9.4345,9.514,9.5471,9.5405,9.5471,9.5703,9.6001,9.6001,9.6001,9.6001,9.6001,9.6001,9.6001,9.6001,9.6001,9.6001,9.6001,9.6001,9.6051,9.6449,9.6581,9.6697,9.7078,9.7161,9.7177,9.7592,9.8238,9.8768,9.8768,9.8768,9.8768,9.8768,9.8486,9.8536,9.9712,9.9,9.847,9.9264,9.8784,9.842,9.8767,9.8834,9.9065,9.9745,9.9546,9.9579,10.0192,9.9712,9.9745,10.0688,10.0209,10.039,10.1814,10.198,10.198,10.1914,10.1914,10.1715,10.1318,10.1284,10.1284,10.1284,10.1401,10.1384,10.1417,10.1814,10.2013,5.5535,5.6216,5.7452,5.9496,6.0281,6.0744,6.1374,6.0688,6.0125,0.0,6.0523,6.039,6.1109,6.3968,6.769,7.225,7.5715,7.9074,8.2599,8.515,8.7702,9.0421,9.1264,9.1611,9.1611,9.1611,9.1611,9.1611,9.1611,9.1611,9.1611,9.1611,9.1611,9.1611,9.1611,9.1611,9.1611,9.1611,9.1611,9.1611,9.1611,9.1976,9.2738,9.3301,9.3649,9.3848,9.4809,9.5008,9.4676,9.5074,9.5438,9.5736,9.5736,9.5869,9.6001,9.6001,9.6001,9.6001,9.6001,9.6001,9.6001,9.6001,9.6001,9.6134,9.6879,9.7078,9.726,9.7973,9.794,9.7757,9.8304,9.9,9.953,9.953,9.953,9.953,9.953,9.9099,9.9199,10.0788,9.9811,9.9165,10.0705,10.001,9.9464,9.9977,10.0109,10.0209,10.049,10.039,10.0407,10.049,10.039,10.0291,10.0291,10.0589,10.1004,10.1401,10.2113,10.2194,10.1682,10.1699,10.1384,10.0788,10.0788,10.0788,10.0788,10.1218,10.1384,10.1417,10.2013,10.2194,5.8028,5.8181,5.8081,5.9628,5.9529,6.0291,6.4984,6.4465,0.0,6.6441,0.0,0.0,6.4884,6.8528,7.2448,7.5496,7.9604,8.348,8.6476,8.762,8.8979,9.1247,9.1578,9.1611,9.1611,9.1611,9.1611,9.1611,9.1611,9.1611,9.1611,9.1611,9.1611,9.1611,9.1611,9.1611,9.1611,9.1611,9.1611,9.1611,9.1611,9.1976,9.2705,9.2738,9.3153,9.3749,9.3202,9.3301,9.3815,9.3202,9.3749,9.4975,9.4975,9.5405,9.6001,9.6001,9.6001,9.6001,9.6001,9.6001,9.6001,9.6001,9.6001,9.6134,9.6879,9.7078,9.726,9.7973,9.8635,9.9132,9.9199,9.9712,10.0192,10.0192,10.0192,10.0192,10.0192,10.0209,10.0209,10.0324,10.0308,10.001,9.953,9.9364,9.9298,9.9364,9.9364,9.9844,10.1202,10.0688,10.0606,10.1201,10.0688,10.0291,10.0291,10.16,10.2113,10.14,10.2113,10.251,10.2393,10.2393,10.2411,10.2294,10.2294,10.2294,10.2294,10.1715,10.1384,10.1384,10.1501,10.1483,5.6074,5.6647,5.7783,6.0676,6.1825,0.0,0.0,6.6585,6.7358,6.9819,6.9301,0.0,0.0,7.1985,7.5012,7.7868,8.1677,8.5136,8.7587,8.8533,8.9641,9.1379,9.1611,9.1611,9.1611,9.1611,9.1611,9.1611,9.1611,9.1611,9.1611,9.1611,9.1611,9.1611,9.1611,9.1611,9.1611,9.1611,9.1611,9.1611,9.1611,9.1976,9.2705,9.2705,9.287,9.3135,9.3318,9.3301,9.3135,9.3318,9.3981,9.4941,9.5405,9.577,9.6001,9.6001,9.6001,9.6001,9.6001,9.6001,9.6001,9.6001,9.6001,9.6134,9.6879,9.7426,9.794,9.8668,9.9397,9.9811,9.9397,9.9778,10.0291,10.0291,10.0291,10.0291,10.0291,9.9977,9.9778,10.0192,9.9579,9.9199,9.9811,9.9596,9.943,9.9844,9.991,10.0109,10.0605,10.0507,10.039,10.0688,10.0507,10.0291,10.0291,10.0788,10.0986,10.0721,10.1417,10.1814,10.1814,10.1401,10.1119,10.1119,10.1119,10.1119,10.1119,10.0904,10.0688,10.0688,10.0688,10.0688,5.5104,5.5577,5.7111,6.0344,0.0,0.0,6.7633,6.9368,7.1268,7.4138,7.3442,7.2283,7.2349,7.4138,7.649,7.9179,8.2704,8.5916,8.8301,8.9096,8.9939,9.1412,9.1611,9.1611,9.1611,9.1611,9.1611,9.1611,9.1611,9.1611,9.1611,9.1611,9.1611,9.1611,9.1611,9.1611,9.1611,9.1611,9.1611,9.1611,9.1611,9.1876,9.234,9.234,9.234,9.2373,9.2903,9.2837,9.2406,9.2903,9.3699,9.4643,9.5637,9.6001,9.6001,9.6001,9.6001,9.6001,9.6001,9.6001,9.6001,9.6001,9.6001,9.62,9.7161,9.7807,9.842,9.9364,9.9944,10.0209,9.9712,9.9944,10.0291,10.0291,10.0291,10.0291,10.0291,9.9944,9.9745,10.0192,9.9513,9.9149,10.0092,9.991,9.9778,10.0192,10.0291,10.0291,10.0291,10.0291,10.0291,10.0291,10.0291,10.0291,10.0291,10.0291,10.0291,10.0291,10.0805,10.1103,10.1103,10.0606,10.0291,10.0291,10.0291,10.0291,10.0291,10.0291,10.0291,10.0291,10.0291,10.0291,5.5998,5.5591,5.6164,5.8403,6.1726,6.5801,7.0891,7.319,7.5455,7.9816,7.7861,7.4912,7.343,7.4887,7.7073,7.9245,8.2704,8.6115,8.8997,8.9394,8.9939,9.1412,9.1611,9.1611,9.1611,9.1611,9.1611,9.1611,9.1611,9.1611,9.1611,9.1611,9.1611,9.1611,9.1611,9.1611,9.1611,9.1611,9.1611,9.1611,9.1611,9.1611,9.1611,9.1611,9.1611,9.1611,9.1611,9.1611,9.1611,9.1611,9.2473,9.3948,9.5438,9.5985,9.6001,9.6001,9.6001,9.6001,9.6001,9.6001,9.6001,9.6001,9.6001,9.6266,9.7741,9.8188,9.847,9.9877,10.0308,10.0291,10.0291,10.0291,10.0291,10.0291,10.0291,10.0291,10.0291,10.0291,10.0291,10.0291,10.0291,10.0291,10.0291,10.0291,10.0291,10.0291,10.0291,10.0291,10.0291,10.0291,10.0291,10.0291,10.0291,10.0291,10.0291,10.0291,10.0291,10.0291,10.0291,10.0291,10.0291,10.0291,10.0291,10.0291,10.0291,10.0291,10.0291,10.0291,10.0291,10.0291,10.0291,10.0291,5.5246,5.5965,5.7939,6.1162,6.5105,6.9678,7.5284,7.651,0.0,0.0,8.0578,7.8822,7.7868,7.861,7.9769,8.0962,8.3825,8.6693,8.9063,8.9394,8.9939,9.1412,9.1611,9.1611,9.1611,9.1611,9.1611,9.1611,9.1611,9.1611,9.1611,9.1611,9.1611,9.1611,9.1611,9.1611,9.1611,9.1611,9.1611,9.1611,9.1611,9.1611,9.1611,9.1611,9.1611,9.1611,9.1611,9.1611,9.1644,9.2174,9.2937,9.3881,9.4842,9.5538,9.6001,9.6001,9.6001,9.6001,9.6001,9.6001,9.6001,9.6001,9.6001,9.6101,9.6532,9.7376,9.8288,9.8702,9.9546,10.0291,10.0291,10.0291,10.0291,10.0291,10.0291,10.0291,10.0291,10.0291,10.0291,10.0291,10.0291,10.0291,10.0291,10.0291,10.0291,10.0291,10.0291,10.0291,10.0291,10.0291,10.0291,10.0291,10.0291,10.0291,10.0291,10.0291,10.0291,10.0291,10.0291,10.0291,10.0291,10.0291,10.0291,10.0291,10.0291,10.0291,10.0291,10.0291,10.0291,10.0291,10.0291,10.0606,5.6505,5.7873,6.0378,6.3747,6.7645,7.2349,7.8762,8.012,8.0749,8.3248,8.2585,8.1426,8.0981,8.126,8.1837,8.2552,8.4653,8.684,8.8698,8.9228,8.9825,9.1032,9.1412,9.1658,9.1798,9.1689,9.1674,9.1798,9.1689,9.1611,9.1611,9.1611,9.1611,9.1611,9.1611,9.1611,9.1611,9.1611,9.1611,9.1611,9.1611,9.1611,9.1611,9.1611,9.1611,9.1611,9.1611,9.1611,9.1644,9.2406,9.3119,9.3881,9.461,9.5339,9.6001,9.6001,9.6001,9.6001,9.6001,9.6001,9.6001,9.6001,9.6001,9.6068,9.6366,9.726,9.8254,9.8536,9.9447,10.0291,10.0291,10.0291,10.0291,10.0291,10.0291,10.0291,10.0291,10.0291,10.0291,10.0291,10.0291,10.0291,10.0291,10.0291,10.0291,10.0291,10.0291,10.0291,10.0291,10.0291,10.0291,10.0291,10.0291,10.0291,10.0291,10.0291,10.0291,10.0291,10.0291,10.0291,10.0291,10.0291,10.0291,10.0291,10.0291,10.0291,10.0291,10.0291,10.0291,10.0291,10.0291,10.0688,5.88,6.0566,6.3128,6.6242,7.0018,7.48,8.1624,8.3711,8.4407,8.5055,8.4142,8.3181,8.3181,8.3181,8.3413,8.4076,8.5382,8.6774,8.8217,8.8994,8.9723,9.052,9.1229,9.1782,9.2076,9.1829,9.1782,9.2092,9.1829,9.1642,9.1611,9.1611,9.1611,9.1611,9.1611,9.1611,9.1611,9.1611,9.1611,9.1611,9.1611,9.1611,9.1611,9.1611,9.1611,9.1611,9.1611,9.1611,9.1644,9.2406,9.3119,9.3881,9.461,9.5339,9.6001,9.6001,9.6001,9.6001,9.6001,9.6001,9.6001,9.6001,9.6001,9.6134,9.6879,9.7641,9.8337,9.9099,9.9778,10.0291,10.0291,10.0291,10.0291,10.0291,10.0291,10.0291,10.0291,10.0291,10.0291,10.0291,10.0291,10.0291,10.0291,10.0291,10.0291,10.0291,10.0291,10.0291,10.0291,10.0291,10.0291,10.0291,10.0291,10.0291,10.0291,10.0291,10.0291,10.0291,10.0291,10.0291,10.0291,10.0291,10.0291,10.0291,10.0291,10.0291,10.0291,10.0291,10.0291,10.0291,10.0407,10.0788,5.8048,6.0887,6.4962,6.9654,7.5728,8.1426,8.472,8.5614,8.578,8.5912,8.5714,8.5496,8.5496,8.5496,8.5529,8.5695,8.6476,8.7569,8.8963,8.9522,9.0196,9.1229,9.1745,9.203,9.2107,9.2045,9.203,9.2107,9.2045,9.1891,9.1627,9.1611,9.1611,9.1611,9.1611,9.1611,9.1611,9.1611,9.1611,9.1611,9.1611,9.1611,9.1611,9.1611,9.1611,9.1611,9.1611,9.1611,9.1644,9.2406,9.3119,9.3881,9.461,9.5339,9.6001,9.6001,9.6001,9.6001,9.6001,9.6001,9.6001,9.6001,9.6001,9.6134,9.6879,9.7641,9.8337,9.9099,9.9778,10.0291,10.0291,10.0291,10.0291,10.0291,10.0291,10.0291,10.0291,10.0291,10.0291,10.0291,10.0291,10.0291,10.0291,10.0291,10.0291,10.0291,10.0291,10.0291,10.0291,10.0291,10.0291,10.0291,10.0291,10.0291,10.0291,10.0291,10.0291,10.0291,10.0291,10.0291,10.0291,10.0291,10.0291,10.0291,10.0291,10.0291,10.0291,10.0291,10.0291,10.0291,10.0887,10.16,5.9937,6.3349,6.7976,7.4535,7.9836,8.4076,8.6641,8.6973,8.6822,8.7138,8.694,8.6722,8.6722,8.6722,8.6722,8.6722,8.7054,8.7581,8.8463,8.9341,9.0178,9.0944,9.1796,9.2398,9.2565,9.2291,9.2184,9.2337,9.2045,9.1798,9.1627,9.1611,9.1611,9.1611,9.1611,9.1611,9.1611,9.1611,9.1611,9.1611,9.1611,9.1611,9.1611,9.1611,9.1611,9.1611,9.1611,9.1611,9.1644,9.2406,9.3119,9.3881,9.461,9.5339,9.6001,9.6001,9.6001,9.6001,9.6001,9.6001,9.6001,9.6001,9.6001,9.6134,9.6879,9.7641,9.8337,9.9099,9.9778,10.0291,10.0291,10.0291,10.0291,10.0291,10.0291,10.0291,10.0291,10.0291,10.0291,10.0291,10.0291,10.0291,10.0291,10.0291,10.0291,10.0291,10.0291,10.0291,10.0291,10.0291,10.0291,10.0291,10.0291,10.0291,10.0291,10.0291,10.0291,10.0291,10.0291,10.0291,10.0291,10.0291,10.0291,10.0291,10.0291,10.0291,10.0291,10.0291,10.0291,10.0291,10.1103,10.1814,6.1637,6.611,7.1632,7.9187,8.2751,8.5103,8.7837,8.7852,8.7536,8.8349,8.7867,8.7319,8.7319,8.7403,8.7451,8.7378,8.7493,8.7696,8.8124,8.928,9.0233,9.0724,9.1904,9.2792,9.3048,9.2596,9.2367,9.2581,9.2092,9.1736,9.1627,9.1611,9.1611,9.1611,9.1611,9.1611,9.1611,9.1479,9.1479,9.1611,9.1611,9.1611,9.1611,9.1611,9.1611,9.1611,9.1611,9.1611,9.1644,9.2406,9.3119,9.3881,9.461,9.5339,9.6001,9.6001,9.6001,9.6001,9.6001,9.6001,9.6001,9.6001,9.6101,9.6333,9.7062,9.7807,9.8536,9.9265,9.9877,10.0291,10.0291,10.0291,10.0291,10.0291,10.0291,10.0291,10.0291,10.0291,10.0291,10.0291,10.0291,10.0291,10.0291,10.0291,10.0291,10.0291,10.0291,10.0291,10.0291,10.0291,10.0291,10.0291,10.0291,10.0291,10.0291,10.0291,10.0291,10.0291,10.039,10.049,10.049,10.049,10.049,10.049,10.0407,10.0291,10.0291,10.0291,10.0291,10.0291,10.1185,10.1914,5.9009,6.6795,7.5754,8.1227,8.4256,8.6476,8.8732,8.825,8.7668,8.8963,8.8217,8.7319,8.7319,8.7753,8.806,8.7696,8.8188,8.8954,8.9899,9.0462,9.1155,9.2191,9.2752,9.3066,9.3111,9.3036,9.2852,9.2611,9.252,9.2214,9.1642,9.1611,9.1611,9.1611,9.1611,9.1611,9.1611,9.0966,9.0966,9.1611,9.1611,9.1611,9.1611,9.1611,9.1611,9.1611,9.1611,9.1611,9.1644,9.2406,9.3119,9.3881,9.461,9.5339,9.6001,9.6001,9.6001,9.6001,9.6001,9.6001,9.6001,9.6001,9.6416,9.7095,9.784,9.8569,9.9298,9.9977,10.0192,10.0291,10.0291,10.0291,10.0291,10.0291,10.0291,10.0291,10.0291,10.0291,10.0291,10.0291,10.0291,10.0291,10.0291,10.0291,10.0291,10.0291,10.0291,10.0291,10.0291,10.0291,10.0291,10.0291,10.0291,10.0291,10.0291,10.0291,10.0291,10.0291,10.0887,10.1302,10.1302,10.1302,10.1302,10.1302,10.0589,10.0291,10.0291,10.0291,10.0291,10.0291,10.1715,10.2411,6.2786,7.0307,7.7616,8.2353,8.4885,8.6641,8.8367,8.8316,8.815,8.9195,8.8581,8.7912,8.8106,8.792,8.7932,8.8519,8.8364,8.8565,8.9623,9.0416,9.1235,9.2177,9.2916,9.3379,9.3379,9.3216,9.3051,9.2883,9.2535,9.2199,9.1906,9.1891,9.1798,9.1627,9.1798,9.1891,9.1891,9.0944,9.0454,9.037,9.0801,9.0999,9.0999,9.1412,9.1611,9.1611,9.1611,9.1611,9.1644,9.2406,9.2903,9.3301,9.4445,9.5107,9.5438,9.5869,9.6001,9.6001,9.6001,9.6001,9.6068,9.6482,9.6863,9.7327,9.847,9.9033,9.943,10.0092,10.0291,10.0291,10.0291,10.0291,10.0291,10.0291,10.0291,10.0291,10.0291,10.0291,10.0291,10.0291,10.0291,10.0291,10.0291,10.0291,10.0291,10.0291,10.0291,10.0291,10.0291,10.0291,10.0291,10.0291,10.0291,10.0291,10.0291,10.0705,10.0887,10.0887,10.1616,10.2013,10.2013,10.2013,10.1797,10.1417,10.0705,10.0291,10.0291,10.0291,10.0291,10.0291,10.1814,10.251,6.4708,7.0626,7.5582,8.0749,8.356,8.5548,8.7355,8.7919,8.8316,8.9195,8.8873,8.8626,8.9353,8.8568,8.8239,8.9496,8.9119,8.8997,8.9929,9.0778,9.1579,9.2306,9.31,9.3586,9.3586,9.3379,9.3201,9.3126,9.255,9.2199,9.2107,9.2107,9.1953,9.1627,9.1937,9.2007,9.184,9.0848,8.998,8.925,9.0087,9.052,9.052,9.1264,9.1611,9.1611,9.1611,9.1611,9.1644,9.2208,9.2539,9.2837,9.4113,9.4743,9.5008,9.5736,9.6001,9.6001,9.6001,9.6134,9.6316,9.6681,9.7194,9.7823,9.8735,9.9265,9.9662,10.0209,10.0291,10.0291,10.0291,10.0291,10.0291,10.0291,10.0291,10.0291,10.0291,10.0291,10.0291,10.0291,10.0291,10.0291,10.0291,10.0291,10.0291,10.0291,10.0291,10.0407,10.0606,10.0606,10.0606,10.0606,10.0721,10.0788,10.0589,10.1302,10.1682,10.1682,10.2395,10.2792,10.2792,10.2792,10.251,10.1997,10.1218,10.0705,10.0291,10.0291,10.039,10.0589,10.1914,10.251,6.0875,6.4233,6.7733,7.492,7.9405,8.2798,8.5662,8.6855,8.7735,8.9129,8.9054,8.9302,9.1051,9.0233,8.9613,9.0647,9.1099,9.1521,9.2159,9.2295,9.2614,9.3421,9.3586,9.3586,9.3586,9.3571,9.3438,9.3141,9.2762,9.2444,9.2122,9.2107,9.1953,9.1627,9.1937,9.1759,9.1044,9.0296,8.9564,8.8831,8.9977,9.052,9.052,9.1264,9.1611,9.1611,9.1611,9.1611,9.1611,9.1644,9.2075,9.2771,9.355,9.4279,9.5008,9.5736,9.6001,9.6001,9.6001,9.6465,9.6913,9.6266,9.7459,9.9066,9.8453,9.9199,10.0308,10.0308,10.0291,10.0291,10.0291,10.0291,10.0291,10.0291,10.0291,10.0291,10.0291,10.0291,10.0291,10.0291,10.0291,10.0291,10.0291,10.0291,10.0291,10.0291,10.0291,10.0606,10.1302,10.13,10.13,10.13,10.198,10.2113,10.1384,10.2013,10.2393,10.2393,10.3091,10.3488,10.3488,10.3488,10.3488,10.3506,10.2792,10.1715,10.0291,10.0291,10.0705,10.1401,10.2095,10.251,6.039,6.4089,6.8019,7.2999,7.6974,8.0332,8.2798,8.5051,8.7138,8.8997,8.9468,9.0065,9.1866,9.1028,9.0449,9.1656,9.1457,9.1359,9.2051,9.2275,9.2638,9.3204,9.3468,9.3586,9.3586,9.3586,9.3542,9.3423,9.2461,9.2033,9.2395,9.1781,9.1439,9.1594,9.1937,9.1541,9.0311,8.9769,8.9035,8.8113,8.9247,8.9791,8.9825,9.1032,9.1611,9.1611,9.1611,9.1611,9.1611,9.1611,9.1744,9.2108,9.3334,9.3948,9.4345,9.5571,9.6001,9.6001,9.6001,9.6167,9.6532,9.7211,9.794,9.8702,9.9347,9.991,10.0291,10.0291,10.0291,10.0291,10.0291,10.0291,10.0291,10.0291,10.0291,10.0291,10.0291,10.0291,10.0291,10.0291,10.0291,10.0507,10.092,10.0986,10.0705,9.9778,10.0788,10.1284,10.0209,10.1302,10.2113,10.2113,10.2294,10.2411,10.2095,10.2792,10.319,10.319,10.3903,10.4301,10.4301,10.4301,10.4102,10.3605,10.3289,10.2693,10.1715,10.1715,10.1616,10.1417,10.2196,10.2194,5.8293,6.1529,6.5447,7.0084,7.3053,7.6146,8.1061,8.338,8.538,8.8397,8.9667,9.0653,9.1963,9.1838,9.1783,9.2652,9.2173,9.1842,9.2436,9.2695,9.2923,9.3222,9.3453,9.3586,9.3586,9.3586,9.3484,9.3199,9.2475,9.2098,9.2227,9.1781,9.1607,9.1749,9.1592,9.1059,9.0092,8.9297,8.8695,8.826,8.9148,8.9633,8.9825,9.1048,9.1611,9.1611,9.1611,9.1611,9.1611,9.1611,9.1744,9.2075,9.3334,9.3948,9.4312,9.5538,9.6001,9.6001,9.6001,9.6333,9.6863,9.7608,9.8304,9.9033,9.9745,10.0092,10.0308,10.0495,10.0479,10.0513,10.0598,10.0614,10.0479,10.0479,10.0393,10.0291,10.0291,10.0291,10.0291,10.0291,10.049,10.0788,10.1318,10.1616,10.1501,10.0507,10.16,10.2097,10.0888,10.1997,10.2892,10.2892,10.3091,10.3106,10.2892,10.3521,10.4003,10.4003,10.4383,10.4699,10.4699,10.4699,10.45,10.4003,10.4003,10.3687,10.3206,10.251,10.2095,10.2113,10.2095,10.2013,0.0,0.0,0.0,6.5734,6.7423,7.0106,8.02,8.1694,8.2317,8.7183,8.9543,9.0888,9.142,9.2684,9.3586,9.3586,9.3335,9.3245,9.3542,9.3586,9.3586,9.3586,9.3586,9.3586,9.3586,9.3586,9.3233,9.2474,9.2803,9.2607,9.1558,9.2194,9.241,9.2122,9.0976,9.0419,9.0419,8.8964,8.8596,8.9318,8.971,9.0111,9.0536,9.128,9.1611,9.1611,9.1611,9.1611,9.1611,9.1611,9.2042,9.2771,9.3517,9.4246,9.5008,9.5736,9.6001,9.6001,9.6001,9.6946,9.8056,9.7376,9.8569,10.021,9.9564,9.9812,10.041,10.0817,10.0918,10.1002,10.1303,10.1187,10.0918,10.0918,10.0597,10.0292,10.0292,10.0308,10.0291,10.0291,10.0887,10.1417,10.1501,10.2079,10.2492,10.251,10.251,10.2709,10.3389,10.3488,10.3605,10.3588,10.4301,10.4383,10.3705,10.4301,10.4699,10.4699,10.4699,10.4699,10.4699,10.4699,10.4699,10.4699,10.4699,10.4699,10.4699,10.251,10.2179,10.3605,10.2079,10.1814,5.4309,0.0,0.0,0.0,0.0,0.0,7.1367,7.3604,7.6561,8.3726,8.5959,8.7783,9.1606,9.3021,9.3586,9.3586,9.3512,9.3483,9.3571,9.3098,9.2962,9.3518,9.3098,9.2962,9.3552,9.3064,9.2643,9.2426,9.1859,9.1619,9.1852,9.183,9.1894,9.2089,9.0976,9.0489,9.0709,8.9569,8.9234,8.9653,8.9814,9.0233,9.0858,9.1373,9.1611,9.1611,9.1611,9.1611,9.1611,9.1611,9.2042,9.2771,9.3517,9.4246,9.5008,9.5736,9.6001,9.6001,9.6001,9.6778,9.7822,9.8138,9.9186,10.0419,10.0702,10.0886,10.112,10.122,10.1287,10.132,10.142,10.1287,10.1287,10.1287,10.1203,10.1103,10.1103,10.1318,10.1412,10.1188,10.1302,10.1715,10.2792,10.3208,10.2907,10.1898,10.1715,10.1799,10.1997,10.198,10.2594,10.4184,10.4599,10.4581,10.4383,10.4599,10.4699,10.4699,10.4699,10.4699,10.4699,10.4699,10.4699,10.4699,10.4699,10.4699,10.4699,10.4084,10.3687,10.3605,10.2609,10.2013,0.0,0.0,0.0,0.0,0.0,0.0,6.9081,7.1166,7.404,8.2098,8.4166,8.5915,9.0596,9.1255,9.1561,9.288,9.3098,9.3199,9.3552,9.3096,9.2917,9.3537,9.3048,9.2873,9.336,9.2773,9.2348,9.225,9.1512,9.1189,9.1481,9.1304,9.142,9.1839,9.1052,9.0665,9.0807,9.0248,9.0046,9.0235,9.0593,9.1091,9.169,9.1769,9.1813,9.1813,9.1674,9.1611,9.1611,9.1611,9.2208,9.3202,9.3616,9.4445,9.5405,9.5836,9.6099,9.6263,9.6546,9.7389,9.8382,9.9117,10.0,10.08,10.1303,10.1403,10.1386,10.1585,10.1717,10.1916,10.1916,10.1717,10.1585,10.1585,10.1503,10.1504,10.1788,10.1989,10.2103,10.1694,10.2002,10.2594,10.349,10.3921,10.3804,10.2892,10.2792,10.2792,10.2792,10.2792,10.3289,10.4599,10.4699,10.4699,10.4699,10.4699,10.4699,10.4699,10.4699,10.4699,10.4699,10.4699,10.4699,10.4699,10.4699,10.4699,10.4699,10.44,10.3903,10.3106,10.3305,10.3007,5.4111,0.0,0.0,0.0,5.9496,0.0,6.95,7.1053,7.2768,8.0348,8.2179,8.3669,8.7853,8.7596,8.7669,9.0528,9.1498,9.2305,9.3451,9.3282,9.3174,9.3556,9.3237,9.3025,9.3122,9.2655,9.228,9.2044,9.1585,9.1141,9.0822,9.0807,9.1046,9.1536,9.1102,9.0841,9.0851,9.087,9.087,9.0851,9.163,9.2241,9.2641,9.2306,9.2153,9.2092,9.1765,9.1674,9.1674,9.1674,9.2438,9.3699,9.3797,9.4708,9.5967,9.6066,9.6278,9.6652,9.7386,9.8347,9.9376,10.0079,10.0899,10.1503,10.1503,10.1503,10.1585,10.1898,10.2192,10.2486,10.2486,10.2192,10.1996,10.1996,10.17,10.1704,10.2391,10.2609,10.2592,10.2304,10.2992,10.3711,10.3777,10.439,10.4803,10.4803,10.4518,10.4383,10.4699,10.45,10.4383,10.4699,10.4699,10.4699,10.4699,10.4699,10.4699,10.4699,10.4699,10.4699,10.4699,10.4699,10.4699,10.4699,10.4699,10.4699,10.4699,10.3985,10.3305,10.2693,10.4102,10.4301,5.6126,5.7253,5.8479,5.8446,0.0,0.0,6.1616,6.379,6.703,7.1531,7.317,7.5306,8.0228,8.1261,8.1589,8.2175,8.5973,8.9951,9.3146,9.2971,9.2788,9.3518,9.2799,9.256,9.3434,9.263,9.2148,9.2304,9.1682,9.1141,9.0822,9.0807,9.1148,9.1897,9.0999,9.0709,9.1218,9.0938,9.0938,9.1218,9.1733,9.236,9.2973,9.2656,9.2367,9.2107,9.2045,9.2015,9.2015,9.2015,9.2343,9.2985,9.3885,9.4727,9.5607,9.6497,9.6841,9.7005,9.7757,9.8719,9.9731,10.0505,10.139,10.2292,10.2292,10.2292,10.2308,10.2389,10.2404,10.2486,10.2486,10.2404,10.2405,10.2405,10.2306,10.2292,10.2494,10.3209,10.3783,10.3716,10.4082,10.4695,10.5297,10.5286,10.5193,10.5193,10.3383,10.2693,10.45,10.3106,10.2709,10.4482,10.4699,10.4699,10.4699,10.4699,10.4699,10.4699,10.4699,10.4699,10.4699,10.4699,10.4699,10.4699,10.4699,10.4699,10.4699,10.4599,10.4084,10.3389,10.4301,10.4301,5.6988,5.7518,5.8545,5.9264,0.0,0.0,0.0,6.2233,6.4597,6.9126,6.9482,7.0664,7.6182,7.6072,7.5882,7.8299,8.2598,8.6404,8.8667,9.0818,9.24,9.2933,9.2042,9.1716,9.2457,9.1998,9.1537,9.131,9.1305,9.0909,9.0008,8.996,9.0298,9.1059,9.0929,9.1001,9.1305,9.1904,9.2072,9.1865,9.2497,9.3012,9.3335,9.2988,9.2747,9.2581,9.2429,9.2352,9.2352,9.2352,9.2679,9.3273,9.4211,9.5009,9.5741,9.6669,9.7111,9.7354,9.8093,9.8786,9.9593,10.0691,10.1494,10.1995,10.2401,10.2486,10.2486,10.2486,10.2486,10.2486,10.2486,10.2486,10.2486,10.2486,10.2486,10.2603,10.3009,10.3792,10.4487,10.4892,10.5398,10.58,10.5791,10.5683,10.5509,10.5316,10.4191,10.3703,10.4883,10.3877,10.3508,10.4899,10.4805,10.4699,10.4699,10.4699,10.4699,10.4699,10.4699,10.4699,10.4699,10.4699,10.4699,10.4699,10.4699,10.4699,10.4699,10.4699,10.4482,10.4219,10.4482,10.45,0.0,0.0,0.0,0.0,0.0,5.9937,0.0,0.0,0.0,6.7301,6.6566,6.68,7.1784,7.0471,6.9978,7.4097,7.8278,8.1267,8.1989,8.6169,8.9701,9.1179,9.0871,9.0661,9.0984,9.0799,9.058,9.0325,9.0382,9.0053,8.9154,8.9165,8.9523,9.0174,9.074,9.1078,9.1305,9.2537,9.2895,9.2406,9.3199,9.3586,9.3586,9.332,9.3171,9.3062,9.2807,9.2687,9.2687,9.2687,9.3153,9.397,9.4631,9.5353,9.6106,9.6906,9.7364,9.7716,9.8441,9.885,9.9372,10.0894,10.1503,10.169,10.2283,10.2486,10.2486,10.2486,10.2486,10.2486,10.2486,10.2486,10.2486,10.2486,10.2486,10.2705,10.3296,10.4007,10.4717,10.5395,10.6189,10.6495,10.6084,10.5996,10.5806,10.5595,10.5406,10.5404,10.5404,10.5089,10.5001,10.5314,10.5016,10.4803,10.4699,10.4699,10.4699,10.4699,10.4699,10.4699,10.4699,10.4699,10.4699,10.4699,10.4699,10.4699,10.4699,10.4699,10.4699,10.4699,10.4699,10.4699,0.0,0.0,0.0,0.0,6.3328,0.0,0.0,0.0,6.1813,6.0475,0.0,6.1202,6.2703,0.0,0.0,6.4275,6.9446,7.346,7.4042,7.6894,8.1096,8.6838,8.8683,8.9446,8.937,8.8773,8.9027,9.0611,8.8667,8.7888,8.9052,8.9445,8.9821,9.0208,9.0004,9.0341,9.1271,9.1474,9.1846,9.2406,9.3199,9.3586,9.3586,9.3556,9.3379,9.3111,9.3048,9.3033,9.3033,9.3033,9.3654,9.4639,9.5076,9.5709,9.6464,9.75,9.791,9.8042,9.8802,9.9054,9.9372,10.0894,10.1792,10.2401,10.2502,10.2486,10.2486,10.2486,10.2486,10.2486,10.2486,10.2486,10.2486,10.2486,10.2486,10.2486,10.2587,10.3212,10.3889,10.4684,10.5411,10.6088,10.6697,10.6494,10.6305,10.6305,10.5978,10.5686,10.5686,10.5702,10.5614,10.5316,10.5297,10.5104,10.4716,10.4699,10.4699,10.4699,10.4699,10.4699,10.4699,10.4699,10.4699,10.4699,10.4699,10.4699,10.4699,10.4699,10.4699,10.4699,10.4699,10.4699,0.0,0.0,0.0,0.0,0.0,0.0,5.944,0.0,5.8986,0.0,0.0,0.0,0.0,0.0,0.0,0.0,6.5719,6.9153,6.934,7.2694,7.6789,8.1438,8.1527,8.2111,8.4356,8.5709,8.7031,8.8422,8.7534,8.738,8.8409,8.9027,8.9418,8.9545,9.0263,9.0634,9.0662,9.1962,9.2556,9.2406,9.3199,9.3586,9.3586,9.3586,9.3512,9.3394,9.3394,9.3394,9.3428,9.3852,9.4534,9.5383,9.6006,9.6433,9.6804,9.767,9.7987,9.8037,9.8341,9.8747,9.9372,10.0894,10.1893,10.2486,10.2486,10.2486,10.2486,10.2486,10.2486,10.2486,10.2486,10.2486,10.2486,10.2486,10.2486,10.2486,10.2486,10.3415,10.4295,10.4616,10.5614,10.6494,10.6798,10.6782,10.6596,10.6408,10.6287,10.6115,10.5824,10.5598,10.5493,10.5596,10.5421,10.5195,10.5102,10.5001,10.4912,10.4699,10.4699,10.4699,10.4699,10.4699,10.4699,10.4699,10.4699,10.4699,10.4699,10.4699,10.4699,10.4699,10.4699,10.4699,6.7148,0.0,0.0,0.0,0.0,0.0,0.0,0.0,0.0,0.0,0.0,0.0,0.0,0.0,0.0,0.0,0.0,6.549,6.5603,6.8032,7.1404,7.5758,7.5696,7.6693,8.0329,8.1761,8.345,8.5774,8.5081,8.5533,8.7777,8.8399,8.8813,8.9086,9.0135,9.0628,9.0493,9.2131,9.2895,9.2745,9.3315,9.3586,9.3586,9.3586,9.3586,9.3586,9.3586,9.3721,9.3943,9.4485,9.5263,9.6157,9.6699,9.7037,9.7274,9.78,9.7987,9.8021,9.824,9.8916,9.9913,10.0996,10.1893,10.2486,10.2486,10.2486,10.2486,10.2486,10.2486,10.2486,10.2486,10.2486,10.2486,10.2486,10.2486,10.2486,10.2486,10.3483,10.4497,10.47,10.5682,10.6714,10.6917,10.69,10.6816,10.6578,10.6494,10.6391,10.6101,10.5909,10.5805,10.5877,10.5615,10.5404,10.5298,10.5193,10.4983,10.4699,10.4699,10.4699,10.4699,10.4699,10.4699,10.4699,10.4699,10.4699,10.4699,10.4699,10.4699,10.4699,10.4699,10.4699,0.0,0.0,0.0,6.5978,0.0,0.0,0.0,0.0,6.0579,0.0,0.0,0.0,0.0,0.0,0.0,0.0,0.0,0.0,0.0,6.1239,6.3032,7.0025,7.3311,7.6082,7.8821,7.6801,7.7609,8.311,8.0454,8.1214,8.7282,8.7633,8.8096,8.9086,8.9154,8.983,9.1237,9.1338,9.2131,9.3552,9.3586,9.3586,9.3586,9.3586,9.3586,9.3586,9.3586,9.4011,9.4673,9.4673,9.5567,9.6868,9.6868,9.7341,9.7969,9.8003,9.7987,9.8089,9.8815,10.0082,10.13,10.1402,10.1893,10.2486,10.2486,10.2486,10.2486,10.2486,10.2486,10.2486,10.2486,10.2486,10.2486,10.2486,10.2486,10.2486,10.2486,10.3111,10.3787,10.4598,10.531,10.6088,10.6815,10.69,10.69,10.69,10.69,10.6883,10.6917,10.69,10.6714,10.6391,10.5997,10.5717,10.5316,10.4912,10.4699,10.4699,10.4699,10.4699,10.4699,10.4699,10.4699,10.4699,10.4699,10.4699,10.4699,10.4699,10.4699,10.4699,10.4699,10.4699,7.6079,7.6301,7.5387,7.0023,6.7351,6.4794,0.0,0.0,0.0,0.0,0.0,0.0,0.0,0.0,0.0,0.0,0.0,0.0,0.0,5.9893,6.0528,6.3895,6.7468,6.9885,7.0478,7.2968,7.5466,7.7684,7.7997,8.0018,8.4386,8.5762,8.723,8.9052,8.9579,9.029,9.1271,9.1764,9.2271,9.2812,9.3349,9.3586,9.3586,9.3586,9.3586,9.3586,9.3586,9.4011,9.474,9.5229,9.6022,9.6935,9.7428,9.7766,9.7987,9.7987,9.7987,9.8172,9.9408,10.0506,10.1503,10.2011,10.2299,10.2486,10.2486,10.2486,10.2486,10.2486,10.2486,10.2486,10.2486,10.2486,10.2486,10.2486,10.2486,10.2486,10.2486,10.3111,10.3787,10.4598,10.531,10.6004,10.6815,10.69,10.69,10.69,10.69,10.6816,10.6612,10.6612,10.651,10.6391,10.5997,10.5892,10.5996,10.5507,10.4998,10.4699,10.4699,10.4699,10.4699,10.4699,10.4699,10.4699,10.4699,10.4699,10.4699,10.4699,10.4699,10.4699,10.4699,10.4699,7.9741,7.9928,7.9202,7.5001,7.2477,6.9759,6.4904,6.547,6.6555,0.0,0.0,0.0,0.0,0.0,0.0,0.0,0.0,0.0,0.0,5.9032,5.9363,6.0545,0.0,0.0,0.0,6.9074,7.162,7.4615,7.4734,7.6799,8.1666,8.3934,8.6073,8.826,8.9545,9.0696,9.1677,9.217,9.2542,9.2812,9.3334,9.3586,9.3586,9.3586,9.3586,9.362,9.389,9.4417,9.5161,9.5872,9.6631,9.7341,9.78,9.7987,9.7987,9.7987,9.8172,9.8544,9.9476,10.0287,10.1081,10.1909,10.2096,10.2214,10.2384,10.2486,10.2486,10.2486,10.2486,10.2486,10.2486,10.2486,10.2486,10.2486,10.2486,10.2486,10.2486,10.3111,10.3787,10.4598,10.531,10.6004,10.6815,10.69,10.69,10.69,10.69,10.6816,10.6612,10.6595,10.6595,10.6595,10.6203,10.6013,10.5996,10.5612,10.5089,10.4716,10.4699,10.4699,10.4699,10.4699,10.4699,10.4699,10.4699,10.4699,10.4699,10.4699,10.4699,10.4699,10.4699,10.4699]}]]